[[{"header":{"parameterUnit":"m.s-1","parameterCategory":1,"la1":30.6,"la2":28.766,"lo1":-90.7593,"lo2":-88.6598,"dy":0.0162,"dx":0.0183,"nx":116,"ny":114,"refTime":"2023-07-13T12:00:00:Z","depth":0,"parameterNumber":2,"parameterNumberName":"U-component_of_WINDS"},"data":[0.0,0.0,0.0,0.0,0.0,0.0,0.0,0.0,0.0,0.0,0.0,0.0,0.0,0.0,0.0,0.0,0.0,0.0,0.0,0.0,0.0,0.0,0.0,0.0,0.0,0.0,0.0,0.0,0.0,0.0,0.0,0.0,0.0,0.0,0.0,0.0,0.0,0.0,0.0,0.0,0.0,0.0,0.0,0.0,0.0,0.0,0.0,0.0,0.0,0.0,0.0,0.0,0.0,0.0,0.0,0.0,0.0,0.0,0.0,0.0,0.0,0.0,0.0,0.0,0.0,0.0,0.0,0.0,0.0,0.0,0.0,0.0,0.0,0.0,0.0,0.0,0.0,0.0,0.0,0.0,0.0,0.0,0.0,0.0,0.0,0.0,0.0,0.0,0.0,0.0,0.0,0.0,0.0,0.0,0.0,0.0,0.0,0.0,0.0,0.0,0.0,0.0,0.0,0.0,0.0,0.0,0.0,0.0,0.0,0.0,0.0,0.0,0.0,0.0,0.0,0.0,0.0,0.0,0.0,0.0,0.0,0.0,0.0,0.0,0.0,0.0,0.0,0.0,0.0,0.0,0.0,0.0,0.0,0.0,0.0,0.0,0.0,0.0,0.0,0.0,0.0,0.0,0.0,0.0,0.0,0.0,0.0,0.0,0.0,0.0,0.0,0.0,0.0,0.0,0.0,0.0,0.0,0.0,0.0,0.0,0.0,0.0,0.0,0.0,0.0,0.0,0.0,0.0,0.0,0.0,0.0,0.0,0.0,0.0,0.0,0.0,0.0,0.0,0.0,0.0,0.0,0.0,0.0,0.0,0.0,0.0,0.0,0.0,0.0,0.0,0.0,0.0,0.0,0.0,0.0,0.0,0.0,0.0,0.0,0.0,0.0,0.0,0.0,0.0,0.0,0.0,0.0,0.0,0.0,0.0,0.0,0.0,0.0,0.0,0.0,0.0,0.0,0.0,0.0,0.0,0.0,0.0,0.0,0.0,0.0,0.0,0.0,0.0,0.0,0.0,0.0,0.0,0.0,0.0,0.0,0.0,0.0,0.0,0.0,0.0,0.0,0.0,0.0,0.0,0.0,0.0,0.0,0.0,0.0,0.0,0.0,0.0,0.0,0.0,0.0,0.0,0.0,0.0,0.0,0.0,0.0,0.0,0.0,0.0,0.0,0.0,0.0,0.0,0.0,0.0,0.0,0.0,0.0,0.0,0.0,0.0,0.0,0.0,0.0,0.0,0.0,0.0,0.0,0.0,0.0,0.0,0.0,0.0,0.0,0.0,0.0,0.0,0.0,0.0,0.0,0.0,0.0,0.0,0.0,0.0,0.0,0.0,0.0,0.0,0.0,0.0,0.0,0.0,0.0,0.0,0.0,0.0,0.0,0.0,0.0,0.0,0.0,0.0,0.0,0.0,0.0,0.0,0.0,0.0,0.0,0.0,0.0,0.0,0.0,0.0,0.0,0.0,0.0,0.0,0.0,0.0,0.0,0.0,0.0,0.0,0.0,0.0,0.0,0.0,0.0,0.0,0.0,0.0,0.0,0.0,0.0,0.0,0.0,0.0,0.0,0.0,0.0,0.0,0.0,0.0,0.0,0.0,0.0,0.0,0.0,0.0,0.0,0.0,0.0,0.0,0.0,0.0,0.0,0.0,0.0,0.0,0.0,0.0,0.0,0.0,0.0,0.0,0.0,0.0,0.0,0.0,0.0,0.0,0.0,0.0,0.0,0.0,0.0,0.0,0.0,0.0,0.0,0.0,0.0,0.0,0.0,0.0,0.0,0.0,0.0,0.0,0.0,0.0,0.0,0.0,0.0,0.0,0.0,0.0,0.0,0.0,0.0,0.0,0.0,0.0,0.0,0.0,0.0,0.0,0.0,0.0,0.0,0.0,0.0,0.0,0.0,0.0,0.0,0.0,0.0,0.0,0.0,0.0,0.0,0.0,0.0,0.0,0.0,0.0,0.0,0.0,0.0,0.0,0.0,0.0,0.0,0.0,0.0,0.0,0.0,0.0,0.0,0.0,0.0,0.0,0.0,0.0,0.0,0.0,0.0,0.0,0.0,0.0,0.0,0.0,0.0,0.0,0.0,0.0,0.0,0.0,0.0,0.0,0.0,0.0,0.0,0.0,0.0,0.0,0.0,0.0,0.0,0.0,0.0,0.0,0.0,0.0,0.0,0.0,0.0,0.0,0.0,0.0,0.0,0.0,0.0,0.0,0.0,0.0,0.0,0.0,0.0,0.0,0.0,0.0,0.0,0.0,0.0,0.0,0.0,0.0,0.0,0.0,0.0,0.0,0.0,0.0,0.0,0.0,0.0,0.0,0.0,0.0,0.0,0.0,0.0,0.0,0.0,0.0,0.0,0.0,0.0,0.0,0.0,0.0,0.0,0.0,0.0,0.0,0.0,0.0,0.0,0.0,0.0,0.0,0.0,0.0,0.0,0.0,0.0,0.0,0.0,0.0,0.0,0.0,0.0,0.0,0.0,0.0,0.0,0.0,0.0,0.0,0.0,0.0,0.0,0.0,0.0,0.0,0.0,0.0,0.0,0.0,0.0,0.0,0.0,0.0,0.0,0.0,0.0,0.0,0.0,0.0,0.0,0.0,0.0,0.0,0.0,0.0,0.0,0.0,0.0,0.0,0.0,0.0,0.0,0.0,0.0,0.0,0.0,0.0,0.0,0.0,0.0,0.0,0.0,0.0,0.0,0.0,0.0,0.0,0.0,0.0,0.0,0.0,0.0,0.0,0.0,0.0,0.0,0.0,0.0,0.0,0.0,0.0,0.0,0.0,0.0,0.0,0.0,0.0,0.0,0.0,0.0,0.0,0.0,0.0,0.0,0.0,0.0,0.0,0.0,0.0,0.0,0.0,0.0,0.0,0.0,0.0,0.0,0.0,0.0,0.0,0.0,0.0,0.0,0.0,0.0,0.0,0.0,0.0,0.0,0.0,0.0,0.0,0.0,0.0,0.0,0.0,0.0,0.0,0.0,0.0,0.0,0.0,0.0,0.0,0.0,0.0,0.0,0.0,0.0,0.0,0.0,0.0,0.0,0.0,0.0,0.0,0.0,0.0,0.0,0.0,0.0,0.0,0.0,0.0,0.0,0.0,0.0,0.0,0.0,0.0,0.0,0.0,0.0,0.0,0.0,0.0,0.0,0.0,0.0,0.0,0.0,0.0,0.0,0.0,0.0,0.0,0.0,0.0,0.0,0.0,0.0,0.0,0.0,0.0,0.0,0.0,0.0,0.0,0.0,0.0,0.0,0.0,0.0,0.0,0.0,0.0,0.0,0.0,0.0,0.0,0.0,0.0,0.0,0.0,0.0,0.0,0.0,0.0,0.0,0.0,0.0,0.0,0.0,0.0,0.0,0.0,0.0,0.0,0.0,0.0,0.0,0.0,0.0,0.0,0.0,0.0,0.0,0.0,0.0,0.0,0.0,0.0,0.0,0.0,0.0,0.0,0.0,0.0,0.0,0.0,0.0,0.0,0.0,0.0,0.0,0.0,0.0,0.0,0.0,0.0,0.0,0.0,0.0,0.0,0.0,0.0,0.0,0.0,0.0,0.0,0.0,0.0,0.0,0.0,0.0,0.0,0.0,0.0,0.0,0.0,0.0,0.0,0.0,0.0,0.0,0.0,0.0,0.0,0.0,0.0,0.0,0.0,0.0,0.0,0.0,0.0,0.0,0.0,0.0,0.0,0.0,0.0,0.0,0.0,0.0,0.0,0.0,0.0,0.0,0.0,0.0,0.0,0.0,0.0,0.0,0.0,0.0,0.0,0.0,0.0,0.0,0.0,0.0,0.0,0.0,0.0,0.0,0.0,0.0,0.0,0.0,0.0,0.0,0.0,0.0,0.0,0.0,0.0,0.0,0.0,0.0,0.0,0.0,0.0,0.0,0.0,0.0,0.0,0.0,0.0,0.0,0.0,0.0,0.0,0.0,0.0,0.0,0.0,0.0,0.0,0.0,0.0,0.0,0.0,0.0,0.0,0.0,0.0,0.0,0.0,0.0,0.0,0.0,0.0,0.0,0.0,0.0,0.0,0.0,0.0,0.0,0.0,0.0,0.0,0.0,0.0,0.0,0.0,0.0,0.0,0.0,0.0,0.0,0.0,0.0,0.0,0.0,0.0,0.0,0.0,0.0,0.0,0.0,0.0,0.0,0.0,0.0,0.0,0.0,0.0,0.0,0.0,0.0,0.0,0.0,0.0,0.0,0.0,0.0,0.0,0.0,0.0,0.0,0.0,0.0,0.0,0.0,0.0,0.0,0.0,0.0,0.0,0.0,0.0,0.0,0.0,0.0,0.0,0.0,0.0,0.0,0.0,0.0,0.0,0.0,0.0,0.0,0.0,0.0,0.0,0.0,0.0,0.0,0.0,0.0,0.0,0.0,0.0,0.0,0.0,0.0,0.0,0.0,0.0,0.0,0.0,0.0,0.0,0.0,0.0,0.0,0.0,0.0,0.0,0.0,0.0,0.0,0.0,0.0,0.0,0.0,0.0,0.0,0.0,0.0,0.0,0.0,0.0,0.0,0.0,0.0,0.0,0.0,0.0,0.0,0.0,0.0,0.0,0.0,0.0,0.0,0.0,0.0,0.0,0.0,0.0,0.0,0.0,0.0,0.0,0.0,0.0,0.0,0.0,0.0,0.0,0.0,0.0,0.0,0.0,0.0,0.0,0.0,0.0,0.0,0.0,0.0,0.0,0.0,0.0,0.0,0.0,0.0,0.0,0.0,0.0,0.0,0.0,0.0,0.0,0.0,0.0,0.0,0.0,0.0,0.0,0.0,0.0,0.0,0.0,0.0,0.0,0.0,0.0,0.0,0.0,0.0,0.0,0.0,0.0,0.0,0.0,0.0,0.0,0.0,0.0,0.0,0.0,0.0,0.0,0.0,0.0,0.0,0.0,0.0,0.0,0.0,0.0,0.0,0.0,0.0,0.0,0.0,0.0,0.0,0.0,0.0,0.0,0.0,0.0,0.0,0.0,0.0,0.0,0.0,0.0,0.0,0.0,0.0,0.0,0.0,0.0,0.0,0.0,0.0,0.0,0.0,0.0,0.0,0.0,0.0,0.0,0.0,0.0,0.0,0.0,0.0,0.0,0.0,0.0,0.0,0.0,0.0,0.0,0.0,0.0,0.0,0.0,0.0,0.0,0.0,0.0,0.0,0.0,0.0,0.0,0.0,0.0,0.0,0.0,0.0,0.0,0.0,0.0,0.0,0.0,0.0,0.0,0.0,0.0,0.0,0.0,0.0,0.0,0.0,0.0,0.0,0.0,0.0,0.0,0.0,0.0,0.0,0.0,0.0,0.0,0.0,0.0,0.0,0.0,0.0,0.0,0.0,0.0,0.0,0.0,0.0,0.0,0.0,0.0,0.0,0.0,0.0,0.0,0.0,0.0,0.0,0.0,0.0,0.0,0.0,0.0,0.0,0.0,0.0,0.0,0.0,0.0,0.0,0.0,0.0,0.0,0.0,0.0,0.0,0.0,0.0,0.0,0.0,0.0,0.0,0.0,0.0,0.0,0.0,0.0,0.0,0.0,0.0,0.0,0.0,0.0,0.0,0.0,0.0,0.0,0.0,0.0,0.0,0.0,0.0,0.0,0.0,0.0,0.0,0.0,0.0,0.0,0.0,0.0,0.0,0.0,0.0,0.0,0.0,0.0,0.0,0.0,0.0,0.0,0.0,0.0,0.0,0.0,0.0,0.0,0.0,0.0,0.0,0.0,0.0,0.0,0.0,0.0,0.0,0.0,0.0,0.0,0.0,0.0,0.0,0.0,0.0,0.0,0.0,0.0,0.0,0.0,0.0,0.0,0.0,0.0,0.0,0.0,0.0,0.0,0.0,0.0,0.0,0.0,0.0,0.0,0.0,0.0,0.0,0.0,0.0,0.0,0.0,0.0,0.0,0.0,0.0,0.0,0.0,0.0,0.0,0.0,0.0,0.0,0.0,0.0,0.0,0.0,0.0,0.0,0.0,0.0,0.0,0.0,0.0,0.0,0.0,0.0,0.0,0.0,0.0,0.0,0.0,0.0,0.0,0.0,0.0,0.0,0.0,0.0,0.0,0.0,0.0,0.0,0.0,0.0,-2.3948,0.0,0.0,0.0,0.0,0.0,0.0,0.0,0.0,0.0,0.0,0.0,0.0,0.0,0.0,0.0,0.0,0.0,0.0,0.0,0.0,0.0,0.0,0.0,0.0,0.0,0.0,0.0,0.0,0.0,0.0,0.0,0.0,0.0,0.0,0.0,0.0,0.0,0.0,0.0,0.0,0.0,0.0,0.0,0.0,0.0,0.0,0.0,0.0,0.0,0.0,0.0,0.0,0.0,0.0,0.0,0.0,0.0,0.0,0.0,0.0,0.0,0.0,0.0,0.0,0.0,0.0,0.0,0.0,0.0,0.0,0.0,0.0,0.0,0.0,0.0,0.0,0.0,0.0,0.0,0.0,0.0,0.0,0.0,0.0,0.0,0.0,0.0,0.0,0.0,0.0,0.0,0.0,0.0,0.0,0.0,0.0,0.0,0.0,0.0,0.0,0.0,0.0,0.0,0.0,0.0,0.0,0.0,0.0,0.0,0.0,0.0,0.0,0.0,0.0,0.0,0.0,-2.4921,0.0,0.0,0.0,0.0,0.0,0.0,0.0,0.0,0.0,0.0,0.0,0.0,0.0,0.0,0.0,0.0,0.0,0.0,0.0,0.0,0.0,0.0,0.0,0.0,0.0,0.0,0.0,0.0,0.0,0.0,0.0,0.0,0.0,0.0,0.0,0.0,0.0,0.0,0.0,0.0,0.0,0.0,0.0,0.0,0.0,0.0,0.0,0.0,0.0,0.0,0.0,0.0,0.0,0.0,0.0,0.0,0.0,0.0,0.0,0.0,0.0,0.0,0.0,0.0,0.0,0.0,0.0,0.0,0.0,0.0,0.0,0.0,0.0,0.0,0.0,0.0,0.0,0.0,0.0,0.0,0.0,0.0,0.0,0.0,0.0,0.0,0.0,0.0,0.0,0.0,0.0,0.0,0.0,0.0,0.0,0.0,0.0,0.0,0.0,0.0,0.0,0.0,0.0,0.0,0.0,0.0,0.0,0.0,-3.0658,-3.1486,-3.2265,-3.2265,-3.2064,-3.1662,-2.9704,-2.7896,-2.6314,0.0,0.0,0.0,0.0,0.0,0.0,0.0,0.0,0.0,0.0,0.0,0.0,0.0,0.0,0.0,0.0,0.0,0.0,0.0,0.0,0.0,0.0,0.0,0.0,0.0,0.0,0.0,0.0,0.0,0.0,0.0,0.0,0.0,0.0,0.0,0.0,0.0,0.0,0.0,-2.6207,-2.7788,-2.8633,-2.8768,-2.6716,0.0,0.0,0.0,0.0,0.0,0.0,0.0,0.0,0.0,0.0,0.0,0.0,0.0,0.0,0.0,0.0,0.0,0.0,0.0,0.0,0.0,0.0,0.0,0.0,0.0,0.0,0.0,0.0,0.0,0.0,0.0,0.0,0.0,0.0,0.0,0.0,0.0,0.0,0.0,0.0,0.0,0.0,0.0,-2.2804,-2.385,0.0,0.0,0.0,0.0,0.0,0.0,0.0,0.0,0.0,0.0,0.0,0.0,0.0,-2.8875,-3.0407,-3.2566,-3.3495,-3.3269,-3.5253,-3.6031,-3.5755,-3.573,-3.5977,-3.6282,-3.555,0.0,-2.9202,-2.8699,0.0,0.0,0.0,0.0,0.0,0.0,0.0,0.0,0.0,0.0,0.0,0.0,0.0,0.0,0.0,0.0,0.0,0.0,0.0,0.0,0.0,0.0,0.0,0.0,0.0,0.0,0.0,0.0,0.0,0.0,0.0,0.0,0.0,0.0,0.0,0.0,-2.666,-2.8515,-2.9729,-3.1411,-3.2315,-3.2516,-3.1584,-2.9644,-2.7032,-2.6214,0.0,0.0,0.0,0.0,0.0,0.0,0.0,0.0,0.0,0.0,0.0,0.0,0.0,0.0,0.0,0.0,0.0,0.0,0.0,0.0,0.0,0.0,0.0,0.0,0.0,0.0,0.0,0.0,0.0,0.0,0.0,0.0,0.0,0.0,0.0,0.0,0.0,0.0,0.0,-2.2902,-2.3713,-2.3592,-2.4116,-2.3921,0.0,0.0,0.0,0.0,0.0,0.0,0.0,0.0,0.0,-3.0834,-3.1436,-3.2667,-3.4625,-3.6257,-3.7387,-3.809,-3.9371,-4.0023,-4.0099,-4.0074,-4.0101,-4.0025,-3.9774,-3.7863,-3.4726,-3.2591,-3.0658,-2.8925,0.0,0.0,0.0,0.0,-2.7067,-2.8083,0.0,0.0,0.0,0.0,0.0,0.0,0.0,0.0,0.0,0.0,0.0,0.0,0.0,0.0,0.0,-2.3351,0.0,0.0,0.0,0.0,0.0,0.0,0.0,0.0,0.0,0.0,0.0,-2.6088,-2.9088,-3.1496,-3.3319,-3.5002,-3.578,-3.578,-3.578,-3.3771,-3.0292,-2.8925,-2.6892,0.0,0.0,0.0,0.0,0.0,0.0,0.0,0.0,0.0,0.0,0.0,0.0,0.0,0.0,0.0,0.0,0.0,0.0,0.0,0.0,0.0,0.0,0.0,0.0,0.0,0.0,0.0,0.0,0.0,0.0,0.0,0.0,0.0,0.0,0.0,0.0,0.0,0.0,-2.4035,-2.4933,-2.4048,-2.5937,-2.6314,0.0,0.0,0.0,0.0,0.0,0.0,-2.9729,-3.1386,-3.3119,-3.4926,-3.5504,-3.6734,-3.8642,-3.9647,-4.0752,-4.1927,-4.2534,-4.3011,-4.3388,-4.3388,-4.3112,-4.2615,-4.2489,-4.1408,-3.9497,-3.6107,-3.337,-3.121,-3.0633,-2.9578,-2.851,-2.9277,-3.0105,-3.1009,0.0,0.0,0.0,0.0,0.0,0.0,0.0,0.0,0.0,0.0,0.0,0.0,0.0,0.0,-2.422,-2.517,-2.4328,-2.3981,0.0,0.0,0.0,0.0,0.0,0.0,0.0,0.0,0.0,-2.9553,-3.3301,-3.5508,-3.6232,-3.7889,-3.8718,-3.8718,-3.8718,-3.7086,-3.4299,-3.2114,-3.0206,-2.8361,0.0,0.0,0.0,0.0,0.0,0.0,0.0,0.0,0.0,0.0,0.0,0.0,0.0,0.0,0.0,0.0,0.0,0.0,0.0,0.0,0.0,0.0,0.0,0.0,0.0,0.0,0.0,0.0,0.0,0.0,0.0,0.0,0.0,0.0,0.0,0.0,0.0,0.0,0.0,-2.6323,-2.9603,0.0,0.0,0.0,0.0,-2.8637,-3.0643,-3.2641,-3.4254,-3.5956,-3.7864,-4.0074,-4.0623,-4.153,-4.2685,-4.3263,-4.3589,-4.3689,-4.4242,-4.4518,-4.4543,-4.4543,-4.4242,-4.3689,-4.3162,-4.264,-4.1785,-3.8391,-3.6307,-3.5006,-3.2918,-3.2667,-3.3345,-3.1813,-3.229,-3.3621,0.0,0.0,0.0,0.0,0.0,0.0,0.0,0.0,0.0,0.0,0.0,0.0,0.0,-2.4881,-2.7258,-2.8852,-2.9428,-2.8995,-2.7402,0.0,0.0,0.0,0.0,0.0,0.0,0.0,-2.9302,-3.1913,-3.5052,-3.7262,-3.8542,-3.9496,-4.0124,-4.045,-4.045,-3.9722,-3.8266,-3.5303,-3.2692,-3.0306,-2.7896,-2.5385,0.0,0.0,0.0,0.0,0.0,0.0,0.0,0.0,0.0,0.0,0.0,0.0,0.0,0.0,0.0,0.0,0.0,0.0,0.0,0.0,0.0,0.0,0.0,0.0,0.0,0.0,0.0,0.0,0.0,0.0,0.0,0.0,0.0,0.0,0.0,0.0,0.0,-3.0673,-3.3495,0.0,0.0,-3.2089,-3.2491,-3.2599,-3.47,-3.6835,-3.8818,-4.0199,-4.1932,-4.4166,-4.4091,-4.4694,-4.6125,-4.6024,-4.6125,-4.6451,-4.6301,-4.625,-4.6225,-4.5874,-4.5397,-4.4844,-4.4292,-4.3514,-4.2615,-4.1081,-3.9521,-3.8115,-3.6935,-3.6307,-3.5981,-3.573,-3.6031,-3.6558,0.0,0.0,0.0,0.0,0.0,0.0,0.0,0.0,0.0,0.0,0.0,-2.2861,-2.4775,-2.785,-3.0589,-3.2691,-3.2813,-3.1645,-2.8931,0.0,0.0,0.0,0.0,0.0,0.0,-2.8624,-3.1763,-3.4751,-3.7136,-3.9069,-4.0526,-4.0701,-4.1078,-4.1605,-4.1605,-4.1304,-4.0651,-3.8642,-3.5956,-3.2893,-3.0683,-2.8247,-2.5636,0.0,0.0,0.0,0.0,0.0,0.0,0.0,0.0,0.0,0.0,0.0,0.0,0.0,0.0,0.0,0.0,0.0,0.0,0.0,0.0,0.0,0.0,0.0,0.0,0.0,0.0,0.0,0.0,0.0,0.0,0.0,0.0,0.0,0.0,0.0,-3.3144,-3.4098,-3.696,-3.8065,-3.6056,-3.6358,-3.691,-3.7462,-3.9195,-4.1053,-4.2911,-4.389,-4.5146,-4.6803,-4.6502,-4.6828,-4.7908,-4.7556,-4.7556,-4.7908,-4.7556,-4.7305,-4.7129,-4.6753,-4.5974,-4.4895,-4.4719,-4.389,-4.274,-4.2564,-4.1835,-4.0701,-3.9772,-3.8969,-3.8341,-3.8517,-3.8567,-3.8642,0.0,0.0,0.0,0.0,0.0,0.0,0.0,0.0,0.0,0.0,-2.1953,-2.5005,-2.8626,-3.1378,-3.3907,-3.6241,-3.3828,-3.1286,-2.9038,-2.475,0.0,0.0,0.0,0.0,-2.8172,-3.1486,-3.4776,-3.8065,-3.9722,-4.1103,-4.2213,-4.163,-4.1681,-4.2288,-4.2263,-4.1907,-4.1401,-4.1957,-4.0023,-3.6383,-3.4123,-3.1863,-2.9478,0.0,0.0,0.0,0.0,0.0,0.0,0.0,0.0,0.0,0.0,0.0,0.0,0.0,0.0,0.0,0.0,0.0,0.0,0.0,0.0,0.0,0.0,0.0,0.0,0.0,0.0,0.0,0.0,0.0,0.0,0.0,0.0,0.0,-2.8172,-3.2524,-3.5859,-3.6558,-3.9973,-4.171,-4.0023,-4.1383,-4.2564,-4.3037,-4.4091,-4.5196,-4.6326,-4.6853,-4.738,-4.7883,-4.7908,-4.7908,-4.7908,-4.7933,-4.7958,-4.7958,-4.7933,-4.7631,-4.7093,-4.7068,-4.5924,-4.3915,-4.4418,-4.3714,-4.2313,-4.2816,-4.2961,-4.2785,-4.1178,-4.0551,-4.0475,-3.9923,-3.9697,-3.9697,0.0,0.0,0.0,0.0,0.0,0.0,0.0,0.0,0.0,0.0,-2.119,-2.4804,-2.7359,-3.0498,-3.3325,-3.5576,-3.3568,-3.1286,-2.9038,0.0,0.0,0.0,0.0,0.0,-3.0984,-3.3972,-3.6709,-3.922,-4.0501,-4.1681,-4.2816,-4.261,-4.3037,-4.3915,-4.3539,-4.3263,-4.3112,-4.2861,-4.1961,-4.0377,-3.7335,-3.45,-3.1838,0.0,0.0,0.0,0.0,0.0,0.0,0.0,0.0,0.0,0.0,0.0,0.0,0.0,0.0,0.0,0.0,0.0,0.0,0.0,0.0,0.0,0.0,0.0,0.0,0.0,0.0,0.0,0.0,0.0,0.0,0.0,0.0,-3.2566,-3.2867,-3.6157,-3.9346,-4.1505,-4.379,-4.4819,-4.3966,-4.4669,-4.5221,-4.5372,-4.605,-4.6928,-4.8033,-4.7481,-4.738,-4.7883,-4.7908,-4.7908,-4.7908,-4.8711,-4.9138,-4.9113,-4.8284,-4.7832,-4.7657,-4.6903,-4.62,-4.5573,-4.492,-4.4367,-4.389,-4.3237,-4.2791,-4.2389,-4.1936,-4.1455,-4.1,-4.0501,-4.0049,-3.9647,0.0,0.0,0.0,0.0,0.0,0.0,0.0,0.0,0.0,0.0,-2.1492,-2.551,-2.7901,-3.1441,-3.4045,-3.5041,-3.309,-3.0394,-2.7042,0.0,0.0,0.0,0.0,-2.9779,-3.3477,-3.6132,-3.8417,-4.0375,-4.148,-4.2585,-4.3664,-4.3664,-4.4141,-4.497,-4.4644,-4.4367,-4.4141,-4.4066,-4.3714,-4.2986,-4.0576,-3.7965,-3.5223,-3.2164,-3.0407,-2.9377,-2.7821,-2.7921,-2.8473,-2.6255,0.0,0.0,0.0,0.0,0.0,0.0,0.0,0.0,0.0,0.0,0.0,0.0,0.0,0.0,0.0,0.0,0.0,0.0,0.0,0.0,0.0,0.0,0.0,0.0,-3.3621,-3.6835,-3.8944,-4.0701,-4.2534,-4.4593,-4.61,-4.6954,-4.6878,-4.7154,-4.7431,-4.7682,-4.8184,-4.8686,-4.9088,-4.8736,-4.8335,-4.7933,-4.8586,-4.8611,-4.7908,-4.9264,-4.9816,-4.959,-4.8937,-4.836,-4.7883,-4.7255,-4.6476,0.0,-4.492,-4.4367,-4.389,-4.3237,-4.2715,0.0,0.0,0.0,0.0,0.0,-3.9973,-3.9647,0.0,0.0,0.0,0.0,0.0,0.0,0.0,0.0,0.0,0.0,0.0,-2.6277,-2.8806,-3.2609,-3.4775,-3.4185,-3.2021,-2.882,0.0,0.0,0.0,-2.7595,-3.0331,-3.3068,-3.5809,-3.799,-3.9848,-4.1376,-4.2534,-4.3614,-4.4618,-4.4694,-4.502,-4.5573,-4.5522,-4.5246,-4.4844,-4.5221,-4.5121,-4.4618,-4.3589,-4.1555,-3.8793,-3.5579,-3.4324,-3.3997,-3.1838,-3.0934,-3.0583,-2.9704,0.0,0.0,0.0,0.0,0.0,0.0,0.0,0.0,0.0,0.0,0.0,0.0,0.0,0.0,0.0,0.0,0.0,0.0,0.0,0.0,0.0,0.0,0.0,0.0,-3.7287,-4.045,-4.502,-4.5347,-4.5447,-4.6376,-4.738,-4.8209,-4.8711,-4.8887,-4.9138,-4.9565,-5.0117,-5.0167,-4.9615,0.0,0.0,0.0,0.0,-4.9414,-4.7933,-4.9515,-5.0067,-4.959,-4.954,-4.8937,-4.7908,-4.7857,-4.6728,-4.4819,-4.4744,-4.4116,-4.3162,-4.3087,-4.2766,-4.2137,-4.148,-4.0849,-4.035,-3.9798,-3.9647,-3.9697,0.0,0.0,0.0,0.0,0.0,0.0,0.0,0.0,0.0,-1.7609,-2.1183,-2.4197,-2.5633,-2.8575,-3.0724,-3.1393,-2.896,-2.6629,0.0,0.0,-2.6214,-3.0407,-3.2842,-3.5378,-3.8165,-3.9521,-4.0777,-4.2062,-4.3112,-4.3991,-4.4644,-4.5095,-4.5623,-4.6125,-4.5673,-4.5673,-4.5924,-4.5121,-4.4995,-4.5271,-4.4593,-4.2911,-4.0601,-3.814,-3.6935,-3.6307,-3.455,-3.5002,-3.6006,-3.3219,-3.2641,-3.2692,-3.0256,0.0,0.0,0.0,0.0,0.0,0.0,0.0,0.0,0.0,0.0,0.0,0.0,0.0,0.0,0.0,0.0,0.0,0.0,0.0,0.0,-3.8165,-4.1706,-4.4694,-4.6552,-4.7481,-4.7883,-4.7631,-4.8184,-4.8661,-4.8761,-4.9565,-4.9967,-4.9615,-5.0117,-5.0167,-4.9615,-4.8837,0.0,-4.7908,-4.8234,-4.8234,-4.7908,-4.9138,-4.969,-4.959,0.0,0.0,-4.7883,-4.7481,-4.6803,-4.5949,-4.5522,-4.492,-4.4267,-4.3815,-4.3062,-4.2112,-4.1053,-4.035,-3.9798,-3.922,-3.932,-3.9622,0.0,0.0,0.0,0.0,0.0,0.0,0.0,0.0,0.0,0.0,-1.9981,-2.2556,-2.4076,-2.5819,-2.7237,-2.8048,-2.5581,0.0,0.0,-2.6526,-2.8976,-3.3715,-3.5479,-3.7287,-3.9245,-4.035,-4.1204,-4.1756,-4.3413,-4.4342,-4.4644,-4.5497,-4.605,-4.6301,-4.6024,-4.605,-4.6276,-4.5698,-4.5472,-4.5447,-4.4844,-4.379,-4.2384,-4.0727,-3.9572,-3.8718,-3.7613,-3.7563,-3.7764,-3.6107,-3.5353,-3.4806,-3.3151,-3.0959,-2.8485,0.0,0.0,0.0,0.0,0.0,0.0,0.0,0.0,0.0,0.0,0.0,0.0,0.0,0.0,-3.0357,0.0,0.0,-3.8492,-4.2384,-4.4618,-4.6577,-4.851,-4.9238,-4.9289,-4.8435,-4.8837,-4.9188,-4.9188,-4.969,-4.9891,-4.9615,-5.0368,-5.0469,-4.964,-4.959,-4.9088,-4.7933,-4.8736,-4.8761,-4.7908,-4.9314,-4.9866,-4.959,-4.9314,-4.8887,-4.8309,-4.7782,-4.723,-4.6677,-4.5849,-4.5171,-4.4518,-4.3137,-4.2233,-4.163,-4.0526,-4.0099,-4.0049,-3.9496,-3.9446,-3.9647,0.0,0.0,0.0,0.0,0.0,0.0,0.0,0.0,0.0,0.0,-1.8894,-2.0976,-2.2652,-2.342,-2.3971,0.0,0.0,0.0,0.0,-2.9223,-3.2184,-3.6705,-3.8155,-3.9146,-3.9848,-4.0927,-4.1505,-4.1505,-4.3589,-4.4618,-4.4644,-4.5773,-4.6301,-4.6301,-4.6301,-4.6301,-4.6301,-4.62,-4.5899,-4.5447,-4.4844,-4.4242,-4.3539,-4.259,-4.153,-4.0551,-3.9546,-3.8492,-3.7538,-3.7538,-3.6611,-3.5433,-3.5152,-3.3746,-3.1537,-2.8158,-2.7304,0.0,0.0,0.0,0.0,0.0,0.0,0.0,0.0,0.0,-2.9252,-3.0583,-3.2616,-3.4901,-3.7387,-3.9371,-4.2007,-4.625,-4.7129,-4.8058,-5.0268,-5.0494,-5.0042,-4.9063,-4.9414,-4.9715,-4.9615,-4.969,-4.9715,-4.9615,-5.0544,-5.067,-4.964,-5.0444,-5.0117,-4.8284,-4.954,-4.9615,-4.8234,-4.959,-5.0092,-4.9741,-4.964,-4.9364,-4.8912,-4.8234,-4.7631,-4.6993,-4.5849,-4.5045,-4.4468,-4.2429,-4.1605,-4.1404,-4.04,-4.0224,-4.045,-3.9898,-3.9697,-3.9697,0.0,0.0,0.0,0.0,0.0,0.0,0.0,0.0,0.0,0.0,0.0,0.0,0.0,0.0,0.0,0.0,0.0,0.0,-2.862,-3.2588,-3.5967,-3.8483,-4.0717,-4.1465,-4.0425,-4.1505,-4.2112,-4.2112,-4.379,-4.4618,-4.4644,-4.5773,-4.6301,-4.6301,-4.6301,-4.6301,-4.6276,-4.5773,-4.5547,-4.5447,-4.4844,-4.3991,-4.3011,-4.2439,-4.1781,-4.0874,-3.8366,-3.6759,-3.5784,-3.5784,-3.5658,-3.5583,-3.6031,-3.568,-3.4279,-3.0532,0.0,-2.7168,-2.3276,-2.2447,-2.3502,-2.6892,-2.7469,-2.8599,0.0,0.0,-3.5182,-3.7337,-3.9573,-4.1483,-4.2735,-4.5121,-4.7405,-4.8962,-5.0067,-5.0845,-5.1147,-5.0745,-5.0193,-4.9565,-4.9992,-5.0117,-4.964,-5.0042,-5.0117,-4.964,-5.0167,-5.0243,-4.9615,-4.9715,-4.9665,-4.9414,-4.959,-4.959,-4.9414,-4.959,-4.9891,-5.0318,-4.9816,-4.9565,-4.9464,-4.8385,-4.7631,-4.6993,-4.5422,-4.4694,-4.4518,-4.3288,-4.2509,-4.2062,-4.1404,-4.0902,-4.045,-3.9898,-3.9697,-3.9697,0.0,0.0,0.0,0.0,0.0,0.0,0.0,0.0,0.0,0.0,0.0,0.0,0.0,0.0,0.0,0.0,0.0,0.0,-2.8654,-3.3,-3.6593,-3.9301,-4.2113,-4.3199,-4.232,-4.302,-4.3691,-4.4419,-4.4548,-4.4794,-4.5121,-4.5623,-4.5999,-4.6301,-4.5974,-4.5999,-4.6276,-4.5723,-4.5296,-4.4945,-4.4367,-4.3489,-4.2414,-4.1178,-3.9973,-3.8592,-3.6157,-3.4148,0.0,0.0,-3.2918,-3.295,-3.4826,-3.3922,-3.1813,-2.9854,-2.8273,0.0,-2.5963,-2.6389,0.0,0.0,-3.1788,-3.3897,-3.7111,-3.8391,-3.9395,-4.1354,-4.3237,-4.4895,-4.5999,-4.7129,-4.8385,0.0,-4.9941,-5.0042,-5.0695,-5.0293,-4.949,-4.8309,-4.836,-4.8535,-4.8611,-4.9113,-4.9364,-4.9138,-4.9916,-5.0167,-4.9615,-5.0218,-5.0268,-4.9615,-5.0243,-5.0419,-5.0067,-5.0067,-5.0193,-5.0419,-4.9866,-4.9439,-4.9088,-4.8284,-4.728,-4.6125,-4.507,-4.4443,-4.4041,-4.261,-4.1882,-4.158,-4.0727,-4.0249,-3.9998,-3.9772,-3.9697,-3.9697,0.0,0.0,0.0,0.0,0.0,0.0,0.0,0.0,0.0,0.0,0.0,0.0,0.0,0.0,0.0,0.0,0.0,0.0,0.0,-3.2449,-3.627,-3.9582,-4.2592,-4.398,-4.3563,-4.4323,-4.5153,-4.6089,-4.5898,-4.5808,-4.5864,-4.6017,-4.6087,-4.605,-4.5497,-4.5472,-4.5799,-4.5246,-4.4694,-4.4116,-4.3564,-4.2509,-4.1131,-3.9572,-3.7387,-3.4926,-3.3169,-3.111,0.0,0.0,-2.9076,-2.9377,-3.1537,-3.0984,-2.9377,-2.8499,-2.7193,-2.6314,-2.772,0.0,0.0,-3.3043,-3.5855,-3.8517,-4.0099,-4.1756,-4.3256,-4.4669,-4.6024,-4.723,-4.8008,-4.8159,0.0,-4.9967,-4.964,-4.9515,-5.0293,-4.9665,-4.8535,-4.6878,-4.6276,-4.6075,-4.6301,-4.7405,-4.8284,-4.8736,-4.9515,-4.9916,-4.9816,-5.0594,-5.0745,-5.0092,-5.0845,-5.0996,-5.0419,-5.0419,-5.0419,-5.0419,-4.9715,-4.9238,-4.8962,-4.8083,-4.6878,-4.5447,-4.4869,-4.4317,-4.3689,-4.2183,-4.148,-4.12,-4.03,-3.9823,-3.9697,-3.9697,-3.9697,-3.9697,0.0,0.0,0.0,0.0,0.0,0.0,0.0,0.0,0.0,0.0,0.0,0.0,0.0,0.0,0.0,0.0,0.0,0.0,0.0,-3.1362,-3.5339,-3.9322,-4.1953,-4.3392,-4.3484,-4.52,-4.6109,-4.6316,-4.7981,-4.8056,-4.6705,-4.734,-4.6855,-4.5497,-4.492,-4.4669,-4.4644,-4.4091,-4.3539,-4.2986,-4.2489,-4.0955,-3.8894,-3.7688,-3.4248,-2.993,-2.9302,0.0,0.0,0.0,-2.4073,-2.5076,-2.5686,-2.7293,0.0,-2.7052,-2.5737,0.0,0.0,0.0,-3.0984,-3.583,-3.8743,-4.1128,-4.384,-4.5689,-4.7104,-4.7682,-4.8259,-4.8711,-4.8736,-4.8736,-4.8937,-4.9515,-5.0042,-5.0368,-5.0419,-4.8987,-4.7355,-4.5723,-4.4091,-4.2967,0.0,-4.4794,-4.7054,-4.8661,-4.8812,-4.9289,-5.0343,-5.0419,-5.0695,-5.1222,-5.1272,-5.0996,-5.0419,-5.0419,-5.0419,-5.0393,-4.9314,-4.9063,-4.9515,-4.7883,-4.6552,-4.5447,-4.4869,-4.4317,-4.3714,-4.264,-4.1831,-4.1225,-4.0701,-4.0174,-3.9697,-3.9697,-3.9697,-3.9697,0.0,0.0,0.0,0.0,0.0,0.0,0.0,0.0,0.0,0.0,0.0,0.0,0.0,0.0,0.0,0.0,0.0,0.0,0.0,-2.8667,-3.2517,-3.6082,-4.0821,-4.3394,-4.3442,-4.5222,-4.6583,-4.7404,-4.7124,-4.6901,-4.6756,-4.5741,-4.5249,-4.5063,-4.366,-4.3665,-4.4672,-4.292,-4.2522,-4.2888,-4.0412,-3.8743,-3.7462,-3.4876,-3.1712,-2.8273,0.0,0.0,0.0,0.0,0.0,0.0,-2.2899,-2.2895,0.0,-2.2096,-2.413,-2.6866,0.0,0.0,-3.5554,-3.9069,-4.2158,-4.4895,-4.6903,-4.8109,-4.8711,-4.851,-4.6878,-4.5246,-4.4576,-4.379,-4.3714,-4.4995,-4.6301,-4.7531,-4.8611,-4.7657,-4.6225,-4.4568,-4.3539,0.0,0.0,0.0,0.0,-4.6502,-4.7581,-4.8686,-4.9816,-5.0594,-5.0896,-5.072,-5.1448,-5.1373,-5.0419,-5.0419,-5.0419,-5.0393,-4.8912,-4.8109,-4.7908,-4.6627,-4.5623,-4.4895,-4.4317,-4.3765,-4.3187,-4.2514,-4.2605,-4.3151,-4.2138,-4.2205,-4.2838,-4.2413,-4.223,-4.1985,0.0,0.0,0.0,0.0,0.0,0.0,0.0,0.0,0.0,0.0,0.0,0.0,0.0,0.0,0.0,0.0,0.0,0.0,0.0,0.0,-2.8024,-3.1606,-3.6043,-3.8779,-3.9508,-4.1389,-4.2976,-4.4226,-4.4322,-4.4369,-4.4386,-4.3764,-4.3368,-4.3112,-4.1746,-4.1796,-4.2767,-4.1201,-4.0624,-4.0542,-3.7831,-3.5917,-3.4264,-3.1055,-2.8134,0.0,0.0,0.0,0.0,0.0,0.0,0.0,0.0,-2.0263,-2.0162,-2.1493,-2.4732,-2.8549,0.0,-3.5479,-3.9421,-4.2554,-4.5321,-4.7456,-4.8535,-4.9038,-4.8912,-4.7556,-4.5271,-4.2861,-4.083,-3.9647,-3.9521,-4.0978,-4.2459,-4.4192,-4.6426,-4.5799,-4.4794,-4.3915,-4.3137,0.0,0.0,0.0,0.0,-4.5397,-4.6828,-4.8109,-4.9238,-5.0167,-5.0695,-5.072,-5.1423,-5.1373,-5.0419,-5.0419,-5.0117,-4.9515,-4.8234,-4.7355,-4.6803,-4.5899,-4.4945,-4.4016,-4.3865,-4.3162,-4.2137,-4.2423,-4.2941,-4.3516,-4.3018,-4.3356,-4.4076,-4.3642,-4.3504,-4.3266,0.0,0.0,0.0,0.0,0.0,0.0,0.0,0.0,0.0,0.0,0.0,0.0,0.0,0.0,0.0,0.0,0.0,0.0,0.0,0.0,0.0,-2.6183,-2.8393,-3.0372,-3.2258,-3.4322,-3.5938,-3.7165,-3.9709,-4.0586,-3.9788,-4.1139,-4.0997,-3.9652,-3.901,-3.8738,-3.8782,-3.8711,-3.7691,-3.5995,-3.4617,-3.2357,-2.9483,-2.6579,0.0,0.0,0.0,0.0,0.0,0.0,0.0,0.0,0.0,0.0,-2.2272,-2.4933,-2.7419,-3.0442,-3.583,-3.9396,-4.2479,-4.6215,-4.8033,-4.8786,-4.8736,-4.8636,-4.7757,-4.5003,-4.3369,-4.1336,0.0,0.0,-3.648,-3.7687,-3.8944,-4.0877,-4.4166,-4.3765,-4.3313,0.0,0.0,0.0,0.0,0.0,0.0,-4.5447,0.0,-4.7631,-4.8761,-4.9364,-5.0233,-5.133,-5.1339,-5.1062,-5.0499,-5.0499,-4.9668,-4.8131,-4.7626,-4.7036,-4.6396,-4.5817,-4.4684,-4.3087,-4.3595,-4.267,-4.0887,-4.2632,-4.3146,-4.2817,-4.3451,-4.3729,-4.3776,-4.3721,-4.3693,-4.3693,0.0,0.0,0.0,0.0,0.0,0.0,0.0,0.0,0.0,0.0,0.0,0.0,0.0,0.0,0.0,0.0,0.0,0.0,0.0,0.0,0.0,0.0,0.0,0.0,0.0,0.0,0.0,0.0,0.0,-3.5416,-3.5171,-3.4577,-3.4122,-3.3701,-3.2589,-3.2645,-3.3449,-3.2083,-3.179,-3.201,0.0,-2.798,-2.7068,0.0,0.0,0.0,0.0,0.0,0.0,0.0,0.0,0.0,0.0,0.0,-2.5519,-2.7017,-3.0809,-3.5077,-3.7713,-4.1982,-4.61,-4.7908,-4.8887,-4.9163,-4.8309,-4.6853,-4.4943,-4.2307,-3.8207,-3.4641,0.0,0.0,0.0,-3.5859,-3.8537,0.0,-4.4217,-4.5121,0.0,0.0,0.0,-4.5146,-4.4869,-4.5723,0.0,0.0,-4.6753,-4.7782,-4.9314,-5.0318,-5.1336,-5.2398,-5.1656,-5.1427,-5.1601,-5.1601,-5.154,-5.135,-5.1215,-4.9983,-4.7893,-4.696,-4.5716,-4.4224,-4.4531,-4.4351,-4.399,-4.5466,-4.6643,-4.737,-4.6585,-4.6893,-4.7711,-4.6696,-4.6344,-4.6344,0.0,0.0,0.0,0.0,0.0,0.0,0.0,0.0,0.0,0.0,0.0,0.0,0.0,0.0,0.0,0.0,0.0,0.0,0.0,0.0,0.0,0.0,0.0,0.0,0.0,0.0,0.0,0.0,0.0,0.0,0.0,-2.9753,-2.9841,-2.9812,-2.9096,-2.9187,-2.9783,-2.8758,0.0,0.0,0.0,0.0,0.0,0.0,0.0,0.0,0.0,0.0,0.0,0.0,0.0,-2.3351,-2.5653,-2.777,-2.9868,-3.2139,0.0,-3.9145,-4.1781,-4.5121,-4.8109,-4.9213,-4.9012,-4.8033,-4.6175,-4.4124,-4.1486,-3.7474,-3.4069,0.0,0.0,0.0,0.0,0.0,0.0,0.0,-4.3493,-4.4516,-4.5178,0.0,-4.7144,0.0,-4.6964,-4.8747,-4.943,0.0,-4.836,-4.8942,-4.9893,-5.1669,-5.2932,-5.3516,-5.3233,-5.3038,-5.3066,-5.2527,-5.2321,-5.248,-5.1956,-5.0925,-4.9425,-4.862,-4.7346,-4.5805,0.0,-4.5762,-4.4948,-4.684,-4.7921,-4.8413,-4.8191,-4.8427,-4.8745,-4.7997,-4.7549,-4.7309,0.0,0.0,0.0,0.0,0.0,0.0,0.0,0.0,0.0,0.0,0.0,0.0,0.0,0.0,0.0,0.0,0.0,0.0,0.0,0.0,0.0,0.0,0.0,0.0,0.0,0.0,0.0,0.0,0.0,0.0,0.0,0.0,0.0,0.0,0.0,0.0,0.0,0.0,0.0,0.0,0.0,0.0,0.0,0.0,0.0,0.0,0.0,0.0,0.0,0.0,-2.5753,-2.633,-3.0181,-3.2566,-3.4695,-3.8165,-4.0475,-4.2579,-4.61,-4.7933,-4.9088,-4.9967,-4.8535,-4.6175,-4.3557,-4.1028,-3.7707,-3.2411,0.0,0.0,-2.5767,0.0,-2.8125,-3.0782,0.0,-3.6955,-4.2486,-4.3534,-4.4853,-4.7901,-4.9234,-4.9625,-4.8951,-5.177,-5.2803,-5.0879,-5.1092,-5.1103,-5.065,-5.3147,-5.4556,-5.4524,-5.515,-5.5242,-5.471,-5.3516,-5.2991,-5.3106,-5.1988,-5.1292,-5.0961,-5.0375,-4.91,-4.7553,0.0,0.0,-4.5392,-4.7625,-4.8325,-4.8021,-4.904,-4.9045,-4.8536,-4.8356,-4.7938,-4.7429,0.0,0.0,0.0,0.0,0.0,0.0,0.0,0.0,0.0,0.0,0.0,0.0,0.0,0.0,0.0,0.0,0.0,0.0,0.0,0.0,0.0,0.0,0.0,0.0,0.0,0.0,0.0,0.0,0.0,0.0,0.0,0.0,0.0,0.0,0.0,0.0,0.0,0.0,0.0,0.0,0.0,0.0,0.0,0.0,0.0,0.0,0.0,0.0,0.0,0.0,-2.842,-3.0859,-3.4324,-3.686,-3.8868,-4.045,-4.2735,-4.502,-4.615,-4.7933,-4.9389,-4.9113,-4.7405,-4.5254,-4.3269,-3.8799,0.0,0.0,0.0,-2.6234,-2.6268,-2.759,0.0,-3.3333,0.0,0.0,0.0,0.0,-4.7592,0.0,0.0,0.0,0.0,0.0,0.0,0.0,0.0,0.0,-5.2509,-5.4087,-5.5104,-5.5044,-5.5957,-5.6423,-5.6308,-5.5508,-5.5519,-5.6267,-5.5611,-5.4305,-5.2587,-5.1413,-5.0049,-4.8664,-4.8906,0.0,-4.8526,-5.0022,-5.0632,-5.053,-5.0179,-4.9956,-4.9717,-4.8686,-4.8207,-4.8027,0.0,0.0,0.0,0.0,0.0,0.0,0.0,0.0,0.0,0.0,-1.5499,0.0,0.0,0.0,0.0,0.0,0.0,0.0,0.0,0.0,0.0,0.0,0.0,0.0,0.0,0.0,0.0,0.0,0.0,0.0,0.0,0.0,0.0,0.0,0.0,0.0,0.0,0.0,0.0,0.0,0.0,0.0,0.0,0.0,0.0,0.0,0.0,0.0,0.0,0.0,-2.8287,-3.2071,-3.6362,-3.9473,-4.1543,-4.172,-4.4198,-4.6865,-4.6758,-4.8134,-4.9464,-4.8912,-4.6451,-4.3417,-4.0329,0.0,0.0,0.0,0.0,-2.4617,-2.3702,0.0,0.0,0.0,0.0,0.0,0.0,0.0,0.0,0.0,0.0,0.0,0.0,0.0,0.0,0.0,0.0,0.0,-5.6015,-5.7044,-5.7715,-5.7715,-5.7903,-5.7768,-5.7416,-5.677,-5.6498,-5.6615,-5.5957,-5.4964,-5.362,-5.2973,-5.1946,-5.0616,-5.073,0.0,-4.9345,-5.0666,-5.081,-5.0242,-5.0601,-5.0495,-5.0076,-4.9164,-4.8566,-4.8177,0.0,0.0,0.0,0.0,0.0,0.0,0.0,-1.5245,-1.5155,-1.5559,-1.5245,-1.5215,-1.5739,-1.5799,0.0,0.0,0.0,0.0,0.0,0.0,0.0,0.0,0.0,0.0,0.0,0.0,0.0,0.0,0.0,0.0,0.0,0.0,0.0,0.0,0.0,0.0,0.0,0.0,0.0,0.0,0.0,0.0,0.0,0.0,0.0,0.0,0.0,0.0,0.0,0.0,-2.6982,-3.0794,-3.5344,-3.9194,-4.1977,-4.1764,-4.4613,-4.7728,-4.7615,-4.8993,-5.0204,-4.9163,-4.6076,-4.2134,-3.7938,-3.3752,0.0,0.0,0.0,-2.3797,-2.1884,0.0,0.0,0.0,0.0,0.0,0.0,0.0,0.0,0.0,0.0,0.0,0.0,0.0,0.0,0.0,0.0,0.0,-5.9073,-5.9685,-6.0027,-5.9877,-5.9368,-5.88,-5.8141,-5.7453,-5.6795,-5.6218,-5.5508,-5.485,-5.4221,-5.4072,-5.3324,-5.2187,-5.2067,0.0,0.0,-5.069,-5.0451,-4.9449,-5.069,-5.09,-5.0315,-4.9553,-4.9,-4.8386,0.0,0.0,0.0,0.0,0.0,0.0,0.0,-1.5365,-1.5529,-1.4975,-1.5379,-1.5739,-1.5799,-1.5799,0.0,0.0,0.0,0.0,0.0,0.0,0.0,0.0,0.0,0.0,0.0,0.0,0.0,0.0,0.0,0.0,0.0,0.0,0.0,0.0,0.0,0.0,0.0,0.0,0.0,0.0,0.0,0.0,0.0,0.0,0.0,0.0,0.0,0.0,0.0,0.0,0.0,-2.6631,-2.9067,-3.3645,-3.8366,-3.9786,0.0,0.0,-4.8737,-5.1137,-5.2434,-5.0061,-4.6732,-4.3018,-3.8907,0.0,0.0,0.0,-2.491,-2.3819,-2.4186,-2.5974,0.0,0.0,0.0,0.0,0.0,0.0,0.0,0.0,0.0,0.0,0.0,0.0,0.0,0.0,0.0,0.0,0.0,-6.0061,-5.9817,-5.9219,-5.9129,-5.88,-5.8141,-5.7453,-5.6795,-5.6218,-5.5508,-5.485,-5.4192,-5.3563,-5.2875,-5.2157,-5.1558,0.0,0.0,-5.069,-5.0451,-4.9449,-5.069,-5.1169,-5.096,-4.9733,-4.9269,-4.906,0.0,0.0,0.0,0.0,0.0,0.0,0.0,-1.5275,-1.5245,-1.5365,-1.5275,-1.5335,-1.5769,-1.5799,0.0,0.0,0.0,0.0,0.0,0.0,0.0,0.0,0.0,0.0,0.0,0.0,0.0,0.0,0.0,0.0,0.0,0.0,0.0,0.0,0.0,0.0,0.0,0.0,0.0,0.0,0.0,0.0,0.0,0.0,0.0,0.0,0.0,0.0,0.0,0.0,0.0,0.0,-2.4519,-2.7133,0.0,0.0,-4.0567,-4.5277,-4.735,-5.032,-5.2306,-5.015,-4.6632,-4.2416,-3.7562,0.0,0.0,-2.5402,-2.4148,-2.346,-2.2951,-2.4148,-2.5825,0.0,0.0,0.0,0.0,0.0,0.0,0.0,0.0,0.0,0.0,0.0,0.0,0.0,0.0,0.0,0.0,-6.0326,-5.9787,-5.9129,-5.871,-5.8201,-5.7513,-5.6855,-5.6226,-5.5568,-5.5329,-5.464,-5.3593,-5.3294,-5.2606,-5.1588,-5.1319,0.0,0.0,-5.0361,-4.9972,-4.8297,-5.0391,-5.0913,-5.0465,-4.9613,-4.906,-4.8536,0.0,0.0,0.0,0.0,0.0,0.0,-1.5725,-1.5344,-1.5185,-1.5469,-1.5289,-1.5275,-1.5739,-1.5799,-1.5799,-1.5799,0.0,0.0,0.0,0.0,0.0,0.0,0.0,0.0,0.0,0.0,0.0,0.0,0.0,0.0,0.0,0.0,0.0,0.0,0.0,0.0,0.0,0.0,0.0,0.0,0.0,0.0,0.0,0.0,0.0,0.0,0.0,0.0,0.0,0.0,0.0,0.0,0.0,0.0,0.0,0.0,-3.7254,-4.2693,-4.5188,-4.8902,-5.1586,-4.9749,-4.5957,-4.1451,0.0,0.0,0.0,-2.4789,-2.3879,-2.34,-2.2682,-2.331,-2.4418,-2.5944,0.0,0.0,0.0,0.0,0.0,0.0,0.0,0.0,0.0,0.0,0.0,0.0,0.0,0.0,0.0,-5.9967,-5.9368,-5.9129,-5.8471,-5.7782,-5.7094,-5.6466,-5.5837,-5.5179,-5.5179,-5.4281,-5.2606,-5.2995,-5.2247,-5.0661,0.0,0.0,0.0,-5.0301,-4.9912,-4.8087,-5.0122,-5.0614,-5.0076,-4.9284,-4.873,-4.8177,0.0,0.0,0.0,0.0,0.0,0.0,0.0,-1.557,-1.5559,-1.4916,-1.5365,-1.5799,-1.5799,-1.5799,-1.5799,-1.5799,0.0,0.0,0.0,0.0,0.0,0.0,0.0,0.0,0.0,0.0,0.0,-1.5799,-1.6413,0.0,0.0,0.0,0.0,0.0,0.0,0.0,0.0,0.0,0.0,0.0,0.0,0.0,0.0,0.0,0.0,0.0,0.0,0.0,0.0,0.0,0.0,0.0,0.0,0.0,0.0,0.0,-3.3139,-3.8852,-4.2466,-4.7238,-5.0704,-4.8731,-4.4819,-4.0359,0.0,0.0,0.0,-2.5854,-2.4537,-2.3819,-2.4455,-2.4575,-2.5232,-2.7255,-2.8154,0.0,0.0,0.0,0.0,0.0,0.0,0.0,0.0,0.0,0.0,0.0,0.0,0.0,0.0,-5.886,-5.8441,-5.9069,-5.8471,-5.7782,-5.7094,-5.6466,-5.5837,-5.5179,-5.5179,-5.3803,-5.1289,-5.2576,-5.1815,0.0,0.0,0.0,0.0,-5.069,-5.0451,-4.9359,-5.0002,-5.0196,-5.0046,-4.8775,-4.8297,-4.8177,0.0,0.0,0.0,0.0,0.0,0.0,0.0,0.0,-1.5991,-1.5557,-1.5679,-1.5799,-1.5799,-1.5799,-1.5799,-1.5799,0.0,0.0,0.0,0.0,0.0,0.0,0.0,0.0,0.0,0.0,-1.5994,-1.6413,-1.6607,-1.7174,-1.8057,0.0,0.0,0.0,0.0,0.0,0.0,0.0,0.0,0.0,0.0,0.0,0.0,0.0,0.0,0.0,0.0,0.0,0.0,0.0,0.0,0.0,0.0,0.0,0.0,-2.3201,0.0,0.0,-3.7624,-4.0842,-4.2852,-4.1775,-3.906,-3.575,-3.2252,0.0,-2.6297,-2.4081,-2.361,-2.355,-2.334,-2.364,-2.4717,-2.7195,-2.7794,0.0,0.0,0.0,0.0,0.0,0.0,0.0,0.0,0.0,0.0,0.0,0.0,0.0,0.0,-5.8141,-5.7723,-5.8411,-5.7363,-5.6675,-5.6466,-5.5388,-5.497,-5.5179,-5.4251,-5.2905,-5.1259,-5.2127,0.0,0.0,0.0,0.0,0.0,-5.069,-5.0451,-4.9389,-4.9972,-4.9972,-4.9464,-4.8596,-4.7997,-4.7578,0.0,0.0,0.0,0.0,0.0,0.0,0.0,0.0,-1.6232,-1.6041,-1.5885,-1.5799,-1.5799,-1.5799,-1.5799,-1.5799,0.0,0.0,0.0,0.0,0.0,0.0,0.0,0.0,0.0,-1.5799,-1.5994,-1.6353,-1.6607,-1.7145,-1.7938,-1.7085,-1.692,0.0,0.0,0.0,0.0,0.0,0.0,0.0,0.0,0.0,-1.6711,0.0,0.0,0.0,0.0,0.0,0.0,0.0,0.0,0.0,0.0,0.0,0.0,0.0,-2.3939,0.0,0.0,-3.5669,-3.7464,-3.7015,-3.4921,0.0,0.0,0.0,-2.5375,-2.3759,-2.3729,-2.3879,-2.349,-2.3729,-2.4537,-2.6183,0.0,0.0,0.0,0.0,0.0,0.0,0.0,0.0,0.0,0.0,0.0,0.0,0.0,0.0,0.0,0.0,-5.6825,-5.7004,-5.6226,-5.5927,-5.6218,-5.461,-5.4162,-5.482,-5.3713,-5.2366,-5.0823,-5.1798,0.0,0.0,0.0,0.0,0.0,-5.087,-5.0601,-4.9643,-4.9793,-4.9464,-4.885,-4.8147,-4.7668,-4.7309,0.0,0.0,0.0,0.0,0.0,0.0,0.0,0.0,0.0,0.0,0.0,-1.5799,-1.5799,-1.5799,0.0,0.0,0.0,0.0,0.0,0.0,0.0,0.0,0.0,0.0,0.0,-1.5799,-1.5829,-1.5858,-1.6473,-1.6801,-1.683,-1.6906,-1.686,-1.6756,-1.6189,-1.5888,-1.5799,-1.5799,-1.5799,-1.5858,-1.6413,-1.6637,0.0,0.0,0.0,0.0,0.0,0.0,0.0,0.0,0.0,0.0,0.0,0.0,0.0,0.0,0.0,0.0,0.0,0.0,0.0,0.0,0.0,0.0,0.0,0.0,0.0,-2.4545,-2.4575,-2.4605,-2.4605,-2.4694,-2.4784,0.0,0.0,0.0,0.0,0.0,0.0,0.0,0.0,0.0,0.0,0.0,0.0,0.0,0.0,0.0,0.0,0.0,-5.5718,-5.5059,-5.4999,-5.5299,-5.6008,-5.4072,-5.3414,-5.3982,-5.3354,-5.2007,-5.0106,-5.1498,0.0,0.0,0.0,0.0,0.0,-5.1079,-5.0674,-5.0076,-4.9464,-4.888,-4.8207,-4.7549,-4.7309,-4.7309,0.0,0.0,0.0,0.0,0.0,0.0,0.0,0.0,0.0,0.0,0.0,-1.5799,-1.5799,-1.5799,0.0,0.0,0.0,0.0,0.0,0.0,0.0,0.0,0.0,0.0,0.0,-1.5799,-1.6024,-1.6488,-1.7145,-1.7728,-1.8237,-1.8762,-1.8446,-1.7443,-1.731,-1.6697,-1.5799,-1.5799,-1.5799,-1.5799,-1.5934,-1.6024,0.0,0.0,0.0,0.0,-1.6756,-1.7354,0.0,0.0,0.0,0.0,0.0,0.0,0.0,0.0,-2.0288,-2.0987,-2.2413,0.0,-2.471,-2.471,0.0,0.0,0.0,0.0,0.0,0.0,0.0,0.0,0.0,0.0,0.0,0.0,0.0,0.0,0.0,0.0,0.0,0.0,0.0,0.0,0.0,0.0,0.0,0.0,0.0,0.0,0.0,-5.5029,-5.4371,-5.3683,-5.3174,-5.3234,-5.3862,-5.2905,-5.2247,-5.1917,-5.1768,-5.0661,-4.8805,-5.0631,0.0,0.0,0.0,0.0,-4.9733,-4.9733,-4.9643,-4.9434,-4.8775,-4.8416,-4.8207,-4.7549,-4.7309,-4.7309,0.0,0.0,0.0,0.0,0.0,0.0,0.0,0.0,0.0,0.0,0.0,0.0,0.0,0.0,0.0,0.0,0.0,0.0,0.0,0.0,0.0,0.0,0.0,0.0,-1.5799,-1.5799,-1.6099,-1.6711,-1.7384,-1.7878,-1.8267,-1.8942,-1.8702,-1.7699,-1.7384,-1.6712,-1.5799,-1.5799,-1.5799,-1.5799,-1.5799,0.0,0.0,0.0,0.0,0.0,-1.6488,-1.692,0.0,-1.8732,-1.9181,-1.9331,0.0,0.0,0.0,0.0,-1.9959,-2.0228,-2.0228,-2.1365,-2.2712,-2.334,-2.352,-2.3729,0.0,0.0,0.0,0.0,0.0,0.0,0.0,0.0,0.0,0.0,0.0,0.0,0.0,0.0,0.0,0.0,0.0,0.0,0.0,0.0,0.0,0.0,0.0,0.0,0.0,-5.3922,-5.3414,-5.2755,-5.2396,-5.2516,-5.3174,-5.2217,-5.1259,-5.0331,-5.0631,-4.9733,-4.7908,-4.9553,-4.9733,0.0,0.0,0.0,-4.9269,-4.8626,-4.8536,-4.882,-4.8416,-4.8087,-4.7788,-4.7429,-4.7309,-4.7309,0.0,0.0,0.0,0.0,0.0,0.0,0.0,0.0,0.0,0.0,0.0,0.0,0.0,0.0,0.0,0.0,0.0,0.0,0.0,0.0,0.0,0.0,0.0,-1.5799,-1.5799,-1.5799,-1.6054,-1.6547,-1.7429,-1.7848,-1.7878,-1.8852,-1.8852,-1.7968,-1.7085,-1.6353,-1.5799,-1.5799,-1.5799,-1.5799,-1.5799,0.0,0.0,0.0,0.0,0.0,0.0,0.0,0.0,-1.8822,-1.9091,-1.8912,-2.003,0.0,0.0,0.0,0.0,0.0,-1.9947,-2.1844,-2.3969,-2.4807,-2.4784,-2.4903,-2.6033,0.0,0.0,0.0,0.0,0.0,0.0,0.0,0.0,0.0,0.0,0.0,0.0,0.0,0.0,0.0,0.0,0.0,0.0,0.0,0.0,0.0,0.0,0.0,0.0,-5.3025,-5.2665,-5.1917,-5.1887,-5.2127,-5.2576,-5.1588,-5.0361,-4.903,-4.9733,-4.9105,-4.7369,-4.87,-4.9269,0.0,0.0,0.0,-4.894,-4.7758,-4.7638,-4.8147,-4.8147,-4.7788,-4.7309,-4.7309,-4.7309,-4.7309,0.0,0.0,0.0,0.0,0.0,0.0,0.0,0.0,0.0,0.0,0.0,0.0,0.0,0.0,0.0,0.0,0.0,0.0,0.0,0.0,0.0,0.0,-1.5799,-1.5799,-1.5799,-1.5799,-1.5858,-1.5934,-1.7685,-1.8553,-1.8612,-2.0996,-2.1115,-1.9301,-1.7519,-1.6353,-1.5799,-1.5799,-1.5799,-1.5799,-1.5799,0.0,0.0,0.0,0.0,0.0,0.0,0.0,0.0,-1.7908,-1.8326,-1.8732,-1.8942,0.0,0.0,0.0,0.0,0.0,-2.1066,-2.2892,-2.4096,-2.2652,-2.3439,-2.4664,-2.4874,0.0,0.0,0.0,0.0,0.0,0.0,0.0,0.0,0.0,0.0,0.0,0.0,0.0,0.0,0.0,0.0,0.0,0.0,0.0,0.0,0.0,0.0,0.0,0.0,0.0,-5.1798,-5.0524,-5.0495,-5.0331,-4.9928,-5.0212,-4.9464,-4.7608,-4.8835,-4.8686,-4.7369,-4.87,-4.9,0.0,0.0,-4.7938,-4.7578,-4.7399,-4.7369,-4.7459,-4.7459,-4.7399,-4.7309,-4.7309,-4.7309,-4.7309,0.0,0.0,0.0,0.0,0.0,0.0,0.0,0.0,0.0,0.0,0.0,0.0,0.0,0.0,0.0,0.0,0.0,0.0,0.0,0.0,0.0,-1.5799,-1.5799,-1.5799,-1.5799,-1.6129,-1.6443,-1.6817,-1.8433,-1.942,-1.9809,-2.0677,-2.0007,-1.8027,-1.7115,-1.6353,-1.5799,-1.5799,-1.5799,-1.5799,0.0,0.0,0.0,0.0,0.0,0.0,0.0,0.0,0.0,0.0,-1.8446,-1.8762,-1.9121,0.0,0.0,0.0,0.0,0.0,-2.0456,-2.2054,-2.352,-2.3319,-2.4777,-2.6482,-2.756,0.0,0.0,0.0,0.0,0.0,0.0,0.0,0.0,0.0,0.0,0.0,0.0,0.0,0.0,0.0,0.0,0.0,0.0,0.0,0.0,0.0,0.0,0.0,0.0,0.0,-5.069,-4.9733,-4.9703,-4.9404,-4.879,-4.9015,-4.8356,-4.68,-4.8117,-4.7848,-4.6262,-4.7608,-4.8027,-4.7728,0.0,-4.692,-4.7249,-4.6531,-4.6651,-4.7309,-4.7309,-4.7309,-4.7309,-4.7309,-4.7309,-4.7309,0.0,0.0,0.0,0.0,0.0,0.0,0.0,0.0,0.0,0.0,0.0,0.0,0.0,0.0,0.0,0.0,0.0,0.0,0.0,0.0,-1.5799,-1.5799,-1.5799,-1.5799,-1.5799,-1.6383,-1.6965,-1.7473,-1.8972,-2.0049,-2.0688,-2.0019,-1.8702,-1.6936,-1.6771,-1.6353,-1.5799,-1.5799,-1.5888,-1.6024,0.0,0.0,0.0,0.0,0.0,0.0,0.0,0.0,0.0,0.0,0.0,0.0,0.0,0.0,0.0,-1.9708,-1.9708,-1.9768,-2.0097,-2.1505,-2.3161,-2.4306,0.0,-2.7739,-3.0193,0.0,0.0,0.0,0.0,0.0,0.0,0.0,0.0,0.0,0.0,0.0,0.0,0.0,0.0,0.0,0.0,0.0,0.0,0.0,0.0,0.0,0.0,0.0,0.0,0.0,-4.9703,-4.912,-4.909,-4.8716,-4.8057,-4.8057,-4.7549,-4.6561,-4.7578,-4.7249,-4.5813,-4.683,-4.7309,-4.7249,-4.6202,-4.6352,-4.7219,-4.6202,-4.6381,-4.7309,-4.7309,-4.7309,-4.7309,-4.7309,-4.7309,-4.7309,0.0,0.0,0.0,0.0,0.0,0.0,0.0,0.0,0.0,0.0,0.0,0.0,0.0,0.0,0.0,0.0,0.0,0.0,0.0,0.0,-1.5799,-1.5799,-1.5799,-1.5799,-1.5799,-1.6383,-1.6711,-1.6771,-1.8732,-2.0049,-2.0688,-2.0019,-1.8972,-1.7593,-1.6995,-1.6353,-1.5799,-1.5799,-1.6129,-1.6637,-1.6637,0.0,0.0,0.0,0.0,0.0,0.0,0.0,0.0,0.0,0.0,0.0,0.0,0.0,-1.9708,-1.9708,-1.9708,-1.9977,-2.1216,-2.2503,-2.3699,-2.4425,-2.5173,0.0,-3.0554,-3.0372,0.0,0.0,0.0,0.0,0.0,0.0,0.0,0.0,0.0,0.0,0.0,0.0,0.0,0.0,0.0,0.0,0.0,0.0,0.0,0.0,0.0,0.0,0.0,0.0,0.0,-4.8386,-4.8356,-4.8027,-4.7369,-4.7369,-4.7339,-4.7249,-4.7339,-4.7309,-4.716,-4.7249,-4.7309,-4.7309,-4.7189,-4.7219,-4.7309,-4.7189,-4.7219,-4.7309,-4.7309,-4.7309,-4.7309,-4.7309,-4.7309,-4.7309,0.0,0.0,0.0,0.0,0.0,0.0,0.0,0.0,0.0,0.0,0.0,0.0,0.0,0.0,0.0,0.0,0.0,0.0,0.0,0.0,-1.5799,-1.5799,-1.5799,-1.5799,-1.5799,-1.6383,-1.6517,-1.6129,-1.8104,-1.9001,-1.8835,-1.8565,-1.7775,-1.6503,-1.6248,-1.6219,-1.6353,-1.6353,-1.6488,-1.6741,-1.7145,-1.7473,0.0,0.0,0.0,0.0,0.0,0.0,0.0,0.0,-1.8493,-1.8762,0.0,0.0,-1.9708,-1.9708,-1.9708,-1.9798,-2.0337,-2.1994,-2.3849,-2.4933,-2.5734,0.0,0.0,-3.1749,-3.2647,0.0,0.0,0.0,0.0,0.0,0.0,0.0,0.0,0.0,0.0,0.0,0.0,0.0,0.0,0.0,0.0,0.0,0.0,0.0,0.0,0.0,0.0,0.0,0.0,-4.7698,-4.7668,-4.7369,-4.6711,-4.6681,-4.6681,-4.6711,-4.71,-4.7309,-4.7309,-4.7309,-4.7309,-4.7309,-4.7309,-4.7309,-4.7309,-4.7309,-4.7309,-4.7309,-4.7309,-4.7309,-4.7309,-4.7309,-4.7309,-4.7309,0.0,0.0,0.0,0.0,0.0,0.0,0.0,0.0,0.0,0.0,0.0,0.0,0.0,0.0,0.0,0.0,0.0,0.0,0.0,-1.5799,-1.5799,-1.5799,-1.5799,-1.5709,-1.5499,-1.6099,-1.6293,-1.6069,-1.7625,-1.8027,-1.7384,-1.7593,-1.713,-1.6099,-1.6323,-1.6622,-1.7025,-1.7025,-1.7145,-1.7384,-1.7818,-1.8147,0.0,0.0,0.0,0.0,0.0,0.0,0.0,0.0,0.0,0.0,0.0,0.0,0.0,0.0,-1.9708,-1.9708,-1.9708,-2.1306,-2.337,0.0,0.0,0.0,0.0,0.0,0.0,0.0,0.0,0.0,0.0,0.0,0.0,0.0,0.0,0.0,0.0,0.0,0.0,0.0,0.0,0.0,0.0,0.0,0.0,0.0,0.0,0.0,0.0,0.0,0.0,0.0,-4.71,-4.677,-4.6279,-4.6112,-4.5992,-4.5992,-4.6471,-4.677,-4.701,-4.7219,-4.7189,-4.701,-4.7219,-4.7309,-4.7309,-4.7309,-4.7309,-4.7309,-4.7309,-4.7309,-4.7309,-4.7309,-4.7309,-4.7309,0.0,0.0,0.0,0.0,0.0,0.0,0.0,0.0,0.0,0.0,0.0,0.0,0.0,0.0,0.0,0.0,0.0,0.0,-1.5799,-1.5799,-1.5799,-1.5799,-1.5799,-1.5499,-1.4826,-1.5455,-1.6099,-1.6681,-1.7354,-1.7324,-1.6711,-1.7384,-1.7324,-1.6711,-1.7413,-1.7712,-1.7712,-1.7728,-1.8087,-1.8702,-1.8702,-1.9091,-1.9678,0.0,0.0,0.0,0.0,0.0,0.0,0.0,-1.7145,0.0,0.0,0.0,0.0,0.0,-1.9708,-1.9708,-1.9708,-2.0696,0.0,0.0,0.0,0.0,0.0,0.0,0.0,0.0,0.0,0.0,0.0,0.0,0.0,0.0,0.0,0.0,0.0,0.0,0.0,0.0,0.0,0.0,0.0,0.0,0.0,0.0,0.0,0.0,0.0,0.0,0.0,0.0,-4.6651,-4.6279,-4.6249,-4.5633,-4.5274,-4.5274,-4.5274,-4.5633,-4.6279,-4.698,-4.692,-4.6309,-4.701,-4.7279,-4.7279,-4.7279,-4.7279,-4.7279,-4.7309,-4.7309,-4.7309,-4.7309,-4.7309,-4.7309,0.0,0.0,0.0,0.0,0.0,0.0,0.0,0.0,0.0,0.0,0.0,0.0,0.0,0.0,0.0,0.0,0.0,0.0,-1.5799,-1.5799,-1.5799,-1.5799,-1.5799,-1.5709,-1.5529,-1.5709,-1.5874,-1.6069,-1.6263,-1.6263,-1.6069,-1.6697,-1.6906,-1.6741,-1.7908,-1.8386,-1.8416,-1.8912,-1.8942,-1.8732,-1.9211,-1.9241,-1.9061,0.0,0.0,0.0,0.0,0.0,0.0,0.0,0.0,0.0,0.0,0.0,0.0,-2.0198,-2.0408,-2.0528,-2.0976,-2.1744,0.0,0.0,0.0,0.0,0.0,0.0,0.0,0.0,0.0,0.0,0.0,0.0,0.0,0.0,0.0,0.0,0.0,0.0,0.0,0.0,0.0,0.0,0.0,0.0,0.0,0.0,0.0,0.0,0.0,0.0,0.0,0.0,-4.5693,-4.5394,-4.4915,-4.4706,-4.4616,-4.4616,-4.4616,-4.4945,-4.5603,-4.5813,-4.5783,-4.5603,-4.5813,-4.5873,-4.5873,-4.5873,-4.5873,-4.5933,-4.6411,-4.6621,-4.6621,-4.6621,-4.692,-4.7249,0.0,0.0,0.0,0.0,0.0,0.0,0.0,0.0,0.0,0.0,0.0,0.0,0.0,0.0,0.0,0.0,0.0,0.0,0.0,0.0,-1.5799,-1.5799,-1.5799,-1.5799,-1.5799,-1.5799,-1.5799,-1.5799,-1.5799,-1.5904,-1.6159,-1.6786,-1.7234,-1.7533,-1.8612,-1.9091,-1.9121,-1.9528,-1.9468,-1.9121,-1.9558,-1.9468,-1.9121,0.0,0.0,0.0,0.0,0.0,0.0,0.0,0.0,0.0,0.0,0.0,0.0,-1.9869,-2.009,-2.0468,-2.1126,0.0,0.0,0.0,0.0,0.0,0.0,0.0,0.0,0.0,0.0,0.0,0.0,0.0,0.0,0.0,0.0,0.0,0.0,0.0,0.0,0.0,0.0,0.0,0.0,0.0,0.0,0.0,0.0,0.0,0.0,0.0,0.0,0.0,-4.5035,-4.4706,-4.4317,-4.4047,-4.3888,-4.3888,-4.3888,-4.4137,-4.4526,-4.5065,-4.5155,-4.4915,-4.5185,-4.5304,-4.5304,-4.5304,-4.5304,-4.5334,-4.5753,-4.5903,-4.5903,-4.5903,-4.6352,-4.686,0.0,0.0,0.0,0.0,0.0,0.0,0.0,0.0,0.0,0.0,0.0,0.0,0.0,0.0,0.0,0.0,0.0,0.0,0.0,0.0,-1.5799,-1.5799,-1.5799,-1.5799,-1.5799,-1.5799,-1.5799,-1.5799,-1.5799,-1.6099,-1.6711,-1.7384,-1.8057,-1.8732,-1.945,-1.9768,-1.9708,-1.9768,-1.9768,-1.9708,-1.9708,-1.9708,-1.9708,-1.9708,0.0,0.0,0.0,0.0,0.0,0.0,0.0,0.0,0.0,0.0,-1.957,-1.9031,-1.9361,-2.0019,0.0,0.0,0.0,0.0,0.0,0.0,0.0,0.0,0.0,0.0,0.0,0.0,0.0,0.0,0.0,0.0,0.0,0.0,0.0,0.0,0.0,0.0,0.0,0.0,0.0,0.0,0.0,0.0,0.0,0.0,0.0,0.0,0.0,0.0,-4.4526,-4.4227,-4.4227,-4.3529,-4.323,0.0,-4.323,-4.323,-4.3319,-4.4556,-4.4796,-4.4257,-4.4855,-4.5125,-4.5125,-4.5125,-4.5125,-4.5125,-4.5185,-4.5214,-4.5214,-4.5214,-4.5633,-4.619,0.0,0.0,0.0,0.0,0.0,0.0,0.0,0.0,0.0,0.0,0.0,0.0,0.0,0.0,0.0,0.0,0.0,0.0,0.0,0.0,-1.5799,-1.5799,-1.5799,-1.5799,-1.5799,-1.5799,-1.5799,-1.5799,-1.5799,-1.6099,-1.6711,-1.7384,-1.8057,-1.8762,-1.9941,-2.0198,-1.9738,-2.0258,-2.0168,-1.9708,-1.9708,-1.9708,-1.9708,-1.9708,-1.9618,0.0,0.0,0.0,0.0,0.0,0.0,0.0,-1.8493,-1.9151,-1.9798,-2.0168,-2.0737,-2.1515,0.0,0.0,0.0,0.0,0.0,0.0,0.0,0.0,0.0,0.0,0.0,0.0,0.0,0.0,0.0,0.0,0.0,0.0,0.0,0.0,0.0,0.0,0.0,0.0,0.0,0.0,0.0,0.0,0.0,0.0,0.0,0.0,0.0,-4.3708,-4.3589,-4.3499,-4.3499,-4.291,-4.2821,0.0,-4.2821,-4.2851,-4.329,-4.3589,-4.3648,-4.3499,-4.3648,-4.3708,-4.3708,-4.3708,-4.3708,-4.3768,-4.4317,-4.4526,-4.4526,-4.4526,-4.4945,-4.5454,0.0,0.0,0.0,0.0,0.0,0.0,0.0,0.0,0.0,0.0,0.0,0.0,0.0,0.0,0.0,0.0,0.0,0.0,0.0,0.0,0.0,-1.5799,-1.5799,-1.5799,-1.5799,-1.5799,-1.5799,-1.5799,-1.6099,-1.6562,0.0,0.0,-1.8715,-1.969,-2.0389,-2.0509,-2.0168,-2.0198,-2.0019,-1.9708,-1.9708,-1.9708,-1.9708,-1.9708,-1.9708,-1.9648,-1.9301,0.0,0.0,0.0,0.0,0.0,0.0,0.0,-2.0109,-1.9839,-2.0228,-2.0946,0.0,0.0,0.0,0.0,0.0,0.0,0.0,0.0,0.0,0.0,0.0,0.0,0.0,0.0,0.0,0.0,0.0,0.0,0.0,0.0,0.0,0.0,0.0,0.0,0.0,0.0,0.0,0.0,0.0,0.0,0.0,-4.2581,-4.2402,-4.2402,-4.2402,-4.2402,-4.2402,-4.2111,-4.2111,-4.2402,-4.2043,-4.2073,-4.2432,-4.3021,-4.329,-4.329,-4.329,-4.329,-4.329,-4.329,-4.329,-4.3319,-4.3678,-4.3798,-4.3798,-4.3798,-4.4257,-4.4766,0.0,0.0,0.0,0.0,0.0,0.0,0.0,0.0,0.0,0.0,0.0,0.0,0.0,0.0,0.0,0.0,0.0,0.0,0.0,0.0,0.0,-1.5799,-1.5799,-1.5799,-1.5799,-1.5904,-1.5964,-1.5964,-1.6592,0.0,0.0,0.0,0.0,-2.0887,-2.0748,-2.0628,-2.0498,-1.9947,-1.9708,-1.9708,-1.9708,-1.9708,-1.9708,-1.9708,-1.9708,-1.9708,-1.9708,-1.9708,-1.9708,-1.9708,0.0,0.0,0.0,0.0,-2.0318,-1.9211,-1.9361,-2.0037,0.0,0.0,0.0,0.0,0.0,0.0,0.0,0.0,0.0,0.0,0.0,0.0,0.0,0.0,0.0,0.0,0.0,0.0,0.0,0.0,0.0,0.0,0.0,0.0,0.0,0.0,0.0,0.0,0.0,0.0,-4.1422,-4.1422,-4.1422,-4.1422,-4.1422,-4.1324,-4.1205,-4.1085,-4.1085,-4.1205,-4.1324,-4.1422,-4.1452,-4.2491,-4.2961,-4.2961,-4.2961,-4.2961,-4.2961,-4.2961,-4.2961,-4.2961,-4.308,-4.311,-4.314,-4.326,-4.3648,-4.4137,0.0,0.0,0.0,0.0,0.0,0.0,0.0,0.0,0.0,0.0,0.0,0.0,0.0,0.0,0.0,0.0,0.0,0.0,-1.5799,0.0,0.0,-1.5799,-1.5799,-1.5799,-1.5799,-1.6293,-1.6577,-1.6577,0.0,0.0,0.0,0.0,0.0,-2.1545,0.0,-2.0378,-1.9828,-1.9738,-1.9708,-1.9708,-1.9708,-1.9708,-1.9708,-1.9708,-1.9708,-1.9708,-1.9708,-1.9708,-1.9708,-1.9708,-1.9708,0.0,0.0,0.0,-1.9798,-1.9618,-2.0049,0.0,0.0,0.0,0.0,0.0,0.0,0.0,0.0,0.0,0.0,0.0,0.0,0.0,0.0,0.0,0.0,0.0,0.0,0.0,0.0,0.0,0.0,0.0,0.0,0.0,0.0,0.0,0.0,0.0,0.0,0.0,-4.1422,-4.1422,-4.1422,-4.1422,-4.1422,-4.1115,-4.0546,-3.9978,-3.9978,-4.0546,-4.1115,-4.1422,-4.1384,-4.1564,-4.1654,-4.1654,-4.1654,-4.1654,-4.1654,-4.1654,-4.1654,-4.1683,-4.2321,-4.253,-4.259,-4.312,-4.3349,-4.3409,0.0,0.0,0.0,0.0,0.0,0.0,0.0,0.0,0.0,0.0,0.0,0.0,0.0,0.0,0.0,-1.5799,-1.5799,-1.5799,-1.5799,-1.5799,-1.5799,-1.5799,-1.5799,-1.5799,-1.5799,-1.6383,-1.6711,-1.6711,0.0,0.0,0.0,-2.1994,-2.2592,0.0,0.0,0.0,0.0,0.0,0.0,-1.9708,-1.9708,0.0,-1.9708,-1.9708,-1.9708,-1.9708,-1.9708,-1.9708,-1.9708,-1.9708,-1.9708,-1.9708,-1.9708,0.0,0.0,0.0,-1.9899,0.0,0.0,0.0,0.0,0.0,0.0,0.0,0.0,0.0,0.0,0.0,0.0,0.0,0.0,0.0,0.0,0.0,0.0,0.0,0.0,0.0,0.0,0.0,0.0,0.0,0.0,0.0,0.0,0.0,0.0,-3.9888,-4.0277,-3.9918,-3.9888,-4.0277,-3.9918,-3.9559,-3.929,-3.8631,-3.8452,-3.8721,-3.902,-3.917,-3.917,-3.9529,-4.0307,-4.1422,-4.1422,-4.1422,-4.1422,-4.1422,-4.1422,-4.1482,-4.2141,-4.241,-4.247,-4.309,-4.329,-4.329,0.0,0.0,0.0,0.0,0.0,0.0,0.0,0.0,0.0,0.0,0.0,0.0,0.0,0.0,0.0,0.0,-1.5799,-1.5799,-1.5799,-1.5799,-1.5799,-1.5799,-1.5934,-1.6024,-1.6024,-1.6802,-1.7204,0.0,0.0,0.0,-2.2733,-2.367,-2.4747,0.0,-2.5525,0.0,0.0,0.0,0.0,0.0,0.0,0.0,-1.9708,-1.9708,-1.9708,-1.9708,-1.9708,-1.9708,-1.9708,-1.9708,-1.9708,-1.9708,-1.9708,-1.9708,0.0,0.0,0.0,0.0,0.0,0.0,0.0,0.0,0.0,0.0,0.0,0.0,0.0,0.0,0.0,0.0,0.0,0.0,0.0,0.0,0.0,0.0,0.0,0.0,0.0,0.0,0.0,0.0,0.0,0.0,0.0,0.0,0.0,-3.8362,-3.8871,-3.8422,-3.8392,-3.8901,-3.8422,-3.8063,-3.7913,-3.7434,-3.7165,-3.7165,-3.7345,-3.7404,-3.7434,-3.7913,-3.896,-4.0397,-4.0726,-4.0876,-4.0876,-4.0876,-4.0876,-4.0935,-4.1632,-4.2021,-4.2201,-4.2641,-4.3021,-4.326,0.0,0.0,0.0,0.0,0.0,0.0,0.0,0.0,0.0,0.0,0.0,0.0,-1.5799,-1.5799,-1.5799,-1.5799,-1.5799,-1.5799,-1.5799,-1.5799,-1.5799,-1.5799,-1.6353,0.0,-1.6651,-1.7938,0.0,0.0,0.0,0.0,-2.2733,-2.4627,-2.5884,-2.6482,-2.5202,-2.4246,-2.346,0.0,0.0,0.0,0.0,0.0,0.0,0.0,0.0,0.0,0.0,0.0,-1.9708,-1.9708,-1.9708,-1.9708,-1.9708,-1.9708,-1.9708,0.0,0.0,0.0,0.0,0.0,0.0,0.0,0.0,0.0,0.0,0.0,0.0,0.0,0.0,0.0,0.0,0.0,0.0,0.0,0.0,0.0,0.0,0.0,0.0,0.0,0.0,0.0,0.0,0.0,0.0,0.0,0.0,-3.7494,-3.7524,-3.7494,-3.7494,-3.7524,-3.7494,-3.7195,-3.6596,-3.6537,-3.6537,-3.6537,-3.7135,-3.7404,-3.7404,-3.7434,-3.7524,-3.7674,-3.896,-3.9529,-3.9529,-3.9529,-3.9529,-3.9553,-4.0247,-4.0876,-4.1482,-4.1474,-4.2252,-4.32,0.0,0.0,0.0,0.0,0.0,0.0,0.0,0.0,0.0,0.0,0.0,0.0,0.0,-1.5799,-1.5799,-1.5799,-1.5799,-1.5799,-1.5799,-1.5799,-1.5964,-1.6353,-1.6577,-1.689,-1.7324,-1.8237,0.0,0.0,0.0,-2.0516,-2.2084,-2.3212,-2.4298,-2.5352,-2.6608,-2.6069,-2.4216,-2.3738,0.0,0.0,0.0,0.0,0.0,0.0,0.0,0.0,0.0,0.0,0.0,-1.9857,-1.9708,-1.9708,-1.9708,-1.9708,-1.9708,-1.9708,-1.9708,0.0,0.0,0.0,0.0,0.0,0.0,0.0,0.0,0.0,0.0,0.0,0.0,0.0,0.0,0.0,0.0,0.0,0.0,0.0,0.0,0.0,0.0,0.0,0.0,0.0,0.0,0.0,0.0,0.0,0.0,0.0,-3.7375,-3.6626,-3.6567,-3.7375,-3.7015,-3.6507,-3.5848,-3.5848,-3.5848,-3.5848,-3.6088,-3.6178,-3.6207,-3.6626,-3.6806,-3.6866,-3.7734,-3.8362,-3.8751,-3.8751,-3.902,-3.9499,-4.0157,-4.0546,-4.0816,-4.1235,-4.1683,-4.2102,0.0,0.0,0.0,0.0,0.0,0.0,0.0,0.0,0.0,-1.6163,0.0,0.0,0.0,0.0,-1.5927,-1.5813,-1.5799,-1.5874,-1.6099,-1.6099,-1.6383,-1.7025,-1.7264,-1.7579,-1.8027,-1.8702,0.0,0.0,0.0,0.0,0.0,-2.1954,-2.2802,-2.3708,-2.5944,-2.6303,0.0,0.0,0.0,-2.3041,0.0,0.0,-2.1754,0.0,0.0,0.0,0.0,0.0,0.0,0.0,0.0,0.0,-2.0109,-1.9887,-1.9708,-1.9708,-1.9708,0.0,0.0,0.0,0.0,0.0,0.0,0.0,0.0,0.0,0.0,0.0,0.0,0.0,0.0,0.0,0.0,0.0,0.0,0.0,0.0,0.0,0.0,0.0,0.0,0.0,0.0,0.0,0.0,0.0,0.0,0.0,-3.6716,-3.5968,-3.5908,-3.6746,-3.6357,-3.5938,-3.5519,-3.5519,-3.5519,-3.5519,-3.5519,-3.5519,-3.5519,-3.5968,-3.6148,-3.6178,-3.6596,-3.7375,-3.8392,-3.8392,-3.8811,-3.9433,-3.9888,-4.0217,-4.0427,-4.0636,-4.0995,-4.1482,0.0,0.0,0.0,0.0,0.0,0.0,0.0,0.0,-1.6066,-1.6714,0.0,0.0,0.0,0.0,0.0,-1.5887,-1.5858,-1.6099,-1.6681,-1.6711,-1.7025,-1.7699,-1.8356,-1.8702,-1.8732,-1.9378,0.0,0.0,0.0,0.0,0.0,0.0,-2.1635,-2.1724,-2.2981,-2.4627,-2.6393,0.0,-2.4963,-2.5345,0.0,-2.3122,-2.361,0.0,0.0,0.0,-2.5076,-2.4717,0.0,0.0,0.0,0.0,0.0,0.0,-1.9708,-1.9708,0.0,0.0,0.0,0.0,0.0,0.0,0.0,0.0,0.0,0.0,0.0,0.0,0.0,0.0,0.0,0.0,0.0,0.0,0.0,0.0,0.0,0.0,0.0,0.0,0.0,0.0,0.0,0.0,0.0,0.0,0.0,-3.5489,-3.5519,-3.5489,-3.5489,-3.5519,-3.5489,-3.5489,-3.5519,-3.5519,-3.5519,-3.5519,-3.5519,-3.5519,-3.5519,-3.5519,-3.5519,-3.5519,-3.5519,-3.6596,-3.8332,-3.8332,-3.8751,-3.9379,-3.9379,-3.9798,-4.0277,-3.9649,-4.0217,-4.1324,0.0,0.0,0.0,0.0,0.0,0.0,0.0,-1.7076,-1.6786,0.0,0.0,0.0,-1.6622,-1.7015,-1.7286,-1.7176,-1.716,-1.725,-1.7413,-1.7413,-1.7712,-1.8386,-1.8612,-1.8942,-1.939,-1.9618,0.0,0.0,0.0,0.0,0.0,0.0,0.0,0.0,-2.1844,-2.2802,-2.3841,-2.4896,0.0,0.0,-2.5309,-2.462,0.0,0.0,0.0,0.0,0.0,-2.3909,0.0,0.0,-2.2942,-2.2224,0.0,0.0,0.0,0.0,0.0,0.0,-1.9708,0.0,0.0,0.0,0.0,0.0,0.0,0.0,0.0,0.0,0.0,0.0,0.0,0.0,0.0,0.0,0.0,0.0,0.0,0.0,0.0,0.0,0.0,0.0,0.0,0.0,0.0,0.0,-3.504,-3.4981,-3.5489,-3.504,-3.4981,-3.5489,-3.5011,-3.5011,-3.5519,-3.5519,-3.5519,-3.5519,-3.5519,-3.5519,-3.5519,-3.5519,-3.5519,-3.5519,-3.5519,-3.6088,-3.7015,-3.7015,-3.7674,-3.8691,-3.8691,-3.908,-3.9679,-3.9499,-3.9649,-4.0038,0.0,0.0,0.0,0.0,0.0,0.0,0.0,-1.7429,-1.7448,0.0,0.0,0.0,-1.7855,-1.8082,-1.8176,-1.8019,-1.7987,-1.8029,-1.8104,-1.8117,-1.8433,-1.9091,-1.9121,-1.9301,-1.9678,-1.9708,0.0,0.0,0.0,0.0,0.0,0.0,0.0,0.0,0.0,0.0,0.0,0.0,0.0,0.0,-2.5249,0.0,0.0,-2.6153,-2.5974,0.0,0.0,0.0,-2.5974,-2.5136,-2.4059,0.0,0.0,0.0,0.0,0.0,0.0,0.0,0.0,0.0,0.0,0.0,0.0,0.0,0.0,-2.0157,0.0,0.0,0.0,0.0,0.0,0.0,0.0,0.0,0.0,0.0,0.0,0.0,0.0,0.0,0.0,0.0,0.0,0.0,0.0,-3.4681,-3.4292,-3.4233,-3.4651,-3.4532,-3.4532,-3.4651,-3.4532,-3.4841,-3.5518,-3.5262,-3.5383,-3.5943,-3.5651,-3.5519,-3.5519,-3.5519,-3.5519,-3.5519,-3.5519,-3.5729,-3.6088,-3.6088,-3.6836,-3.8003,-3.8272,-3.8631,-3.902,-3.932,-3.9373,-3.9529,0.0,0.0,0.0,0.0,0.0,0.0,0.0,-1.7856,-1.8221,0.0,-1.8489,-1.8772,-1.9575,-1.9339,-1.8995,-1.8717,-1.8687,-1.8748,-1.895,-1.8895,-1.9148,-1.9749,-1.9726,-1.9708,-1.9708,-1.9708,0.0,0.0,0.0,0.0,0.0,0.0,0.0,0.0,0.0,0.0,0.0,0.0,0.0,-2.5196,-2.4298,-2.5279,0.0,0.0,-2.8034,0.0,-2.8903,-2.9322,-2.8992,-2.72,-2.5345,0.0,0.0,0.0,0.0,0.0,-2.0748,0.0,0.0,0.0,0.0,0.0,0.0,0.0,-1.9001,-2.0707,-2.2134,0.0,0.0,0.0,0.0,0.0,0.0,0.0,0.0,0.0,0.0,0.0,0.0,0.0,0.0,0.0,0.0,-3.3275,-3.3305,-3.3395,-3.3455,-3.3484,-3.3484,-3.3993,-3.4054,-3.3514,-3.4024,-3.4636,-3.5365,-3.485,-3.5245,-3.6507,-3.6008,-3.5716,-3.5619,-3.5619,-3.5587,-3.5489,-3.5587,-3.5619,-3.5651,-3.5716,-3.6373,-3.7375,-3.7943,-3.8272,-3.8452,-3.908,-3.9349,-3.9499,-1.7783,0.0,0.0,0.0,0.0,0.0,0.0,0.0,-1.9523,-1.9306,-1.9009,-1.9283,-2.0571,-2.0125,-1.9937,-2.0448,-2.048,-2.0496,-2.0558,-2.018,-2.0039,-2.0193,-1.9874,-1.9708,-1.9708,-1.9708,-1.9708,0.0,0.0,0.0,0.0,0.0,0.0,0.0,0.0,0.0,0.0,0.0,0.0,-2.3422,-2.5279,0.0,-2.5382,-2.7111,-2.7021,-2.6153,-2.7525,-2.7645,-2.7111,0.0,-2.5974,-2.4986,0.0,0.0,0.0,0.0,0.0,0.0,0.0,0.0,0.0,0.0,0.0,0.0,-1.9899,-2.0318,-2.0857,0.0,0.0,0.0,0.0,0.0,0.0,0.0,0.0,0.0,0.0,0.0,0.0,0.0,0.0,0.0,0.0,-3.1899,-3.2108,-3.2647,-3.3215,-3.3484,-3.3484,-3.3125,-3.3095,-3.3484,-3.3095,-3.3246,-3.3909,-3.4911,-3.552,-3.5794,-3.6833,-3.7025,-3.6384,-3.6384,-3.607,-3.5522,-3.6134,-3.6384,-3.6446,-3.7086,-3.7064,-3.6686,-3.6806,-3.7494,-3.8392,-3.8542,-3.8931,-3.9439,-1.7783,0.0,0.0,0.0,0.0,0.0,0.0,0.0,-2.045,-2.0094,-2.0369,-2.085,-2.1579,-2.1333,-2.1145,-2.1274,-2.1291,-2.1213,-2.1007,-2.078,-2.0665,-2.0665,-2.0448,-2.0227,-1.9984,-1.9984,-1.9909,0.0,0.0,0.0,0.0,0.0,0.0,0.0,0.0,0.0,0.0,0.0,-2.1981,-2.2882,-2.4837,0.0,-2.5764,-2.7106,-2.7195,-2.6716,-2.7375,-2.7375,-2.7106,-2.7106,-2.6632,0.0,0.0,-2.3648,-2.302,0.0,-2.1964,-2.1695,0.0,0.0,0.0,-2.1695,0.0,0.0,0.0,-2.0468,0.0,0.0,0.0,0.0,0.0,0.0,0.0,0.0,0.0,0.0,0.0,0.0,0.0,0.0,0.0,0.0,0.0,-3.0372,-3.0702,-3.1031,-3.136,-3.1539,-3.1539,-3.2184,-3.2366,-3.2018,-3.2984,-3.372,-3.4089,-3.477,-3.564,-3.6706,-3.7057,-3.7239,-3.7203,-3.7203,-3.6995,-3.6662,-3.7055,-3.7203,-3.7233,-3.7616,-3.7514,-3.7188,-3.7529,-3.8055,-3.8673,-3.9418,-3.9849,-4.0189,-1.7783,0.0,0.0,0.0,0.0,0.0,0.0,0.0,-2.1299,-2.0988,-2.172,-2.2415,-2.2699,-2.2598,-2.2603,-2.2789,-2.2526,-2.2288,-2.2102,-2.1876,-2.1633,-2.1344,-2.1376,-2.1163,-2.0669,-2.0794,-2.0715,-2.0363,0.0,0.0,0.0,0.0,0.0,0.0,0.0,0.0,0.0,0.0,0.0,-2.3528,0.0,-2.5764,-2.6482,-2.7315,-2.7525,-2.7435,-2.7555,-2.7585,-2.7585,-2.7435,0.0,-2.6417,-2.5303,-2.4784,0.0,0.0,0.0,0.0,0.0,0.0,0.0,0.0,0.0,-2.1374,0.0,0.0,0.0,0.0,0.0,0.0,0.0,0.0,0.0,0.0,0.0,0.0,0.0,0.0,0.0,0.0,0.0,0.0,0.0,-2.8201,-2.897,-2.9358,-2.9588,-2.9788,-2.9936,-3.137,-3.1736,-3.0725,-3.2833,-3.4107,-3.4264,-3.4625,-3.574,-3.7597,-3.7275,-3.7455,-3.7991,-3.7991,-3.7905,-3.7822,-3.7966,-3.7991,-3.8019,-3.8193,-3.825,-3.8254,-3.8488,-3.869,-3.8946,-4.0224,-4.0799,-4.1023,-1.7783,-1.7783,0.0,0.0,0.0,0.0,0.0,0.0,-2.2178,-2.2102,-2.2231,-2.2801,0.0,0.0,0.0,0.0,0.0,0.0,-2.6,0.0,-2.3951,-2.2553,-2.2783,-2.2627,-2.1919,-2.2544,-2.2847,-2.2794,0.0,0.0,0.0,0.0,0.0,0.0,-2.0478,0.0,0.0,0.0,-2.4748,0.0,-2.7434,-2.7074,0.0,-2.7136,-2.7225,-2.6806,-2.7375,-2.7585,-2.7495,0.0,-2.6662,-2.6573,0.0,-2.5441,0.0,0.0,0.0,0.0,0.0,0.0,0.0,0.0,-2.4575,0.0,0.0,0.0,0.0,0.0,0.0,0.0,0.0,0.0,0.0,0.0,0.0,0.0,0.0,0.0,0.0,0.0,0.0,0.0,0.0,0.0,-2.6649,-2.8515,-2.9546,-3.0433,-3.117,-3.091,-3.0922,-3.1272,-3.1732,-3.2217,-3.2723,-3.4626,-3.6024,-3.6916,-3.8154,-3.8753,-3.8772,-3.8772,-3.8414,-3.7851,-3.8497,-3.8772,-3.8827,-3.9558,-3.985,-3.9722,-3.8399,-3.8272,-3.8882,-3.971,-4.0383,-4.1023,-1.7884,-1.8121,0.0,0.0,0.0,0.0,0.0,0.0,-2.2767,-2.2347,-2.2665,0.0,0.0,0.0,0.0,0.0,0.0,-2.7503,0.0,0.0,-2.5062,-2.4409,0.0,0.0,-2.3161,-2.3455,-2.3467,-2.3193,-2.3467,0.0,0.0,0.0,0.0,0.0,-2.1561,0.0,-2.3814,0.0,0.0,0.0,0.0,0.0,0.0,-2.8116,-2.8459,-2.821,-2.8085,-2.8303,-2.849,0.0,-2.7555,0.0,0.0,0.0,0.0,0.0,0.0,0.0,0.0,0.0,0.0,0.0,0.0,0.0,0.0,0.0,-2.186,0.0,0.0,0.0,0.0,0.0,0.0,0.0,0.0,0.0,0.0,0.0,0.0,0.0,0.0,0.0,0.0,0.0,0.0,0.0,0.0,-2.7249,-2.823,-2.9598,-3.0509,-3.0807,-3.2423,-3.3199,-3.3055,-3.4774,-3.6238,-3.7434,-3.8072,-3.8789,-3.961,-3.961,-3.9454,-3.9129,-3.948,-3.961,-3.961,-3.9952,-4.0113,-4.0062,-3.9401,-3.9566,-4.0293,-4.1016,-4.1749,-4.2381,-1.8493,0.0,0.0,0.0,0.0,0.0,0.0,0.0,0.0,0.0,0.0,0.0,-2.7114,-2.7131,0.0,0.0,0.0,-2.9973,0.0,0.0,-2.686,0.0,0.0,0.0,0.0,0.0,-2.4513,-2.4174,0.0,0.0,0.0,0.0,0.0,0.0,0.0,-2.3389,-2.4826,0.0,0.0,-2.7499,-2.8563,-2.8748,-2.851,-2.8973,-2.9246,-2.9342,-2.8852,-2.9012,-2.9214,-2.802,-2.8276,0.0,-2.8114,0.0,0.0,0.0,0.0,0.0,-2.6564,0.0,0.0,0.0,0.0,0.0,0.0,0.0,0.0,0.0,0.0,0.0,0.0,0.0,0.0,0.0,0.0,0.0,0.0,0.0,0.0,0.0,0.0,0.0,0.0,0.0,0.0,0.0,-2.4557,-2.5163,-2.6128,-2.8633,-3.0095,-3.0313,-3.2475,-3.3583,-3.347,-3.469,-3.6096,-3.7584,-3.7821,-3.8565,-3.9808,-4.0011,-4.0113,-4.0113,-4.0113,-4.0113,-4.0113,-4.0113,-4.0113,-4.0113,-4.0113,-4.0527,-4.1305,-4.2016,-4.2523,-4.2834,-1.9934,-1.9934,0.0,0.0,0.0,0.0,0.0,0.0,0.0,0.0,0.0,0.0,0.0,0.0,0.0,0.0,0.0,-3.3254,-3.322,0.0,-3.004,0.0,0.0,-2.6623,0.0,0.0,0.0,0.0,0.0,0.0,0.0,0.0,0.0,0.0,0.0,-2.5007,-2.7038,-2.7528,-2.8583,-3.0051,-3.0799,-3.1103,-3.0884,0.0,-2.8842,-2.9406,-2.9374,0.0,0.0,-2.8596,-2.8383,0.0,0.0,0.0,0.0,0.0,0.0,0.0,0.0,0.0,0.0,-2.9128,0.0,0.0,0.0,0.0,-2.3932,0.0,0.0,0.0,0.0,0.0,-2.067,-1.9181,-1.9495,0.0,0.0,0.0,0.0,0.0,0.0,0.0,0.0,0.0,0.0,-2.2621,-2.4478,-2.5881,-2.6641,-2.832,-2.951,-3.0099,-3.1021,-3.2119,-3.3381,-3.4167,-3.5306,-3.6829,-3.755,-3.8294,-3.9039,-3.9774,-4.0113,-4.0113,-4.0113,-4.0113,-4.0113,-4.0113,-4.0113,-4.0113,-4.0113,-4.0527,-4.1305,-4.2016,-4.1847,-4.1474,0.0,0.0,0.0,0.0,0.0,0.0,0.0,-2.3985,0.0,0.0,0.0,0.0,0.0,0.0,-3.418,0.0,0.0,-3.5938,-3.4923,-3.3491,0.0,0.0,0.0,-2.8958,0.0,0.0,0.0,0.0,0.0,0.0,0.0,0.0,0.0,0.0,0.0,-2.5967,0.0,0.0,0.0,0.0,0.0,-3.0751,-3.1137,0.0,0.0,-3.058,-3.058,-3.058,0.0,-2.9749,-2.9836,-3.0196,-2.992,-2.9676,-2.9609,-3.0348,-2.9993,0.0,0.0,0.0,-3.0001,-2.9382,0.0,0.0,0.0,0.0,0.0,0.0,0.0,0.0,0.0,0.0,-2.0852,-1.9811,-1.9439,-1.8729,0.0,0.0,0.0,0.0,0.0,0.0,0.0,0.0,0.0,-2.0084,-2.1039,-2.2013,0.0,-2.5916,-2.7866,-2.8568,-3.0777,-3.2446,-3.3389,-3.4134,-3.525,-3.6795,-3.7066,-3.7787,-3.9005,-3.9242,-3.9639,-4.0113,-4.0113,-4.0113,-4.0113,-4.0113,-4.0113,-4.0113,-4.0113,-4.0248,-4.062,-4.1847,-4.2455,-4.2828,-2.2415,0.0,0.0,0.0,0.0,0.0,0.0,0.0,0.0,0.0,-3.048,0.0,-3.7043,0.0,-3.6411,0.0,-3.8159,-3.7483,-3.6479,-3.4776,0.0,-3.3106,-3.1596,0.0,0.0,0.0,0.0,0.0,0.0,-2.7097,0.0,0.0,0.0,0.0,0.0,0.0,0.0,0.0,-2.8789,0.0,0.0,-3.0548,0.0,0.0,-3.1123,-3.1582,0.0,-3.119,-3.1123,-3.0649,-3.0818,-3.1123,-3.0649,-3.048,-3.0581,-3.1055,-3.0533,-2.9814,-2.9942,-3.0213,0.0,-2.9721,-2.9494,0.0,-2.9077,0.0,0.0,0.0,0.0,0.0,0.0,0.0,-2.1549,-2.0204,-1.9372,-1.864,0.0,-1.758,0.0,0.0,0.0,0.0,0.0,0.0,-1.7419,-1.8076,-1.883,-1.9721,0.0,0.0,-2.6928,-2.7384,-3.0345,-3.2374,-3.3389,-3.3863,-3.4878,-3.6366,-3.666,-3.7438,-3.8633,-3.887,-3.9377,-4.0113,-4.0113,-4.0113,-4.0113,-4.0113,-4.0113,-4.0113,-4.0113,-4.0113,-4.0282,-4.1745,-4.276,-4.3477,0.0,0.0,0.0,0.0,-2.3004,0.0,0.0,0.0,-3.1021,0.0,-3.4201,-3.5284,-3.6897,-3.6332,-3.6377,-3.7855,-3.7956,0.0,-3.7922,-3.5859,0.0,0.0,-3.1935,-3.0683,-3.1224,0.0,0.0,0.0,0.0,0.0,0.0,0.0,0.0,0.0,-2.6691,0.0,-2.6793,-2.8367,-2.901,-2.9111,-2.977,-3.0514,-3.1123,-3.0378,-3.1021,-3.2192,-3.1481,-3.119,-3.119,-3.119,-3.1224,-3.1258,-3.119,-3.1224,-3.1258,-3.119,-3.119,-3.119,-3.119,-3.119,-3.1021,-3.0345,0.0,0.0,0.0,0.0,-2.9649,0.0,0.0,0.0,0.0,0.0,0.0,-2.0487,-1.9406,-1.8606,-1.7884,0.0,0.0,0.0,0.0,0.0,0.0,-1.7354,-1.749,-1.6688,-1.8008,0.0,0.0,0.0,-2.6556,-2.6691,-2.9499,-3.1799,-3.3389,-3.3355,-3.41,-3.56,-3.64,-3.7178,-3.7922,-3.8667,-3.9377,-4.0113,-4.0113,-4.0113,-4.0113,-4.0113,-4.0113,-4.0113,-4.0113,-4.0146,-4.0383,-4.1805,-4.2794,-4.3443,-2.3308,-2.3545,-2.3763,0.0,-2.4188,-2.5338,0.0,0.0,0.0,0.0,-3.6197,-3.8024,-4.0595,-3.9715,-3.887,-3.8734,-3.8734,0.0,0.0,0.0,0.0,-3.7043,-3.5757,-3.4121,-3.2056,-3.165,0.0,-2.901,0.0,0.0,-2.779,0.0,0.0,0.0,0.0,0.0,-2.6793,-2.8367,-2.9314,-2.9803,-2.945,-3.004,0.0,0.0,-3.1021,-3.2192,-3.1481,-3.119,-3.119,-3.119,-3.1562,-3.1921,-3.136,-3.1562,-3.1921,-3.136,-3.119,-3.119,-3.119,-3.119,-3.1157,-3.0954,-3.0514,-3.0074,0.0,0.0,0.0,0.0,0.0,0.0,0.0,0.0,0.0,-2.1874,-1.9676,-1.802,0.0,0.0,0.0,0.0,0.0,0.0,0.0,0.0,-1.7287,-1.5977,-1.7253,0.0,0.0,0.0,0.0,-2.6623,-2.7977,-3.019,-3.3389,-3.2848,-3.3592,-3.56,-3.64,-3.7178,-3.7922,-3.8667,-3.9377,-4.0113,-4.0113,-4.0113,-4.0113,-4.0113,-4.0113,-4.0113,-4.0113,-4.079,-4.1805,-4.2151,-4.3132,-4.4282,-2.3613,0.0,0.0,-2.4425,0.0,0.0,-2.9077,0.0,0.0,-3.7178,-3.8328,0.0,-4.1162,-4.0865,-4.0257,-3.9571,-3.887,0.0,0.0,0.0,0.0,-3.8362,-3.7043,-3.5182,-3.2814,-3.2462,0.0,-2.9465,0.0,0.0,-2.8315,0.0,0.0,0.0,0.0,-2.6691,0.0,-2.8367,-2.945,-3.0055,-2.9634,0.0,0.0,-3.0378,-3.0818,-3.1752,-3.1326,-3.119,-3.119,-3.119,-3.1481,-3.1752,-3.1326,-3.1461,-3.1752,-3.1326,-3.119,-3.119,-3.119,-3.119,-3.119,-3.119,-3.0886,-3.0581,-3.0581,-3.0581,-3.0446,0.0,0.0,0.0,0.0,0.0,0.0,0.0,0.0,0.0,0.0,0.0,0.0,0.0,0.0,0.0,0.0,0.0,0.0,0.0,0.0,0.0,0.0,0.0,0.0,-2.4729,-2.801,-3.048,-3.1935,-3.251,-3.3558,-3.5148,-3.5893,-3.684,-3.7922,-3.8667,-3.9377,-4.0113,-4.0113,-4.0113,-4.0113,-4.0113,-4.0113,-4.0146,-4.0426,-4.1271,-4.232,-4.2658,-4.3538,-4.4615,0.0,0.0,0.0,0.0,0.0,0.0,0.0,-3.4358,0.0,-3.9673,0.0,-4.0223,-4.0113,-4.0663,-4.0764,-4.0011,0.0,-3.8599,-3.9876,-3.8149,-3.7675,-3.8937,-3.7009,-3.516,-3.3592,-3.2814,0.0,0.0,0.0,0.0,0.0,0.0,0.0,0.0,0.0,0.0,0.0,-2.8333,-2.933,0.0,-3.0108,-3.048,-3.0987,-3.0446,-3.0649,-3.119,-3.119,-3.119,-3.119,-3.119,-3.1258,-3.1326,-3.1224,-3.1258,-3.1326,-3.1224,-3.119,-3.119,-3.119,-3.119,-3.119,-3.119,-3.119,-3.119,-3.119,-3.119,-3.119,-3.119,-3.119,-3.0818,0.0,0.0,0.0,0.0,0.0,0.0,0.0,0.0,0.0,0.0,0.0,0.0,0.0,0.0,0.0,0.0,0.0,0.0,0.0,0.0,0.0,-2.2632,-2.8315,0.0,-3.0412,0.0,-3.3728,-3.4945,-3.552,-3.6546,-3.8058,-3.8802,-3.9503,-4.0113,-4.0113,-4.0113,-4.0113,-4.0113,-4.0113,-4.018,-4.1001,-4.1745,-4.2388,-4.3267,-4.4012,-4.4615,0.0,0.0,0.0,0.0,0.0,-3.4235,-3.7347,-3.8556,-3.9368,-4.0011,-4.0629,-4.0764,-4.018,-4.0214,-4.0011,-3.9242,-3.8937,0.0,0.0,0.0,0.0,-3.8971,-3.8024,-3.6502,-3.4336,-3.3592,-3.2476,0.0,0.0,0.0,0.0,0.0,0.0,0.0,0.0,0.0,-2.857,-2.818,0.0,-3.0108,-3.0108,-3.0176,-3.0345,-3.0818,-3.1089,-3.119,-3.119,-3.119,-3.119,-3.119,-3.1616,-3.1989,-3.1413,-3.1616,-3.1989,-3.136,-3.119,-3.119,-3.119,-3.119,-3.119,-3.119,-3.119,-3.119,-3.119,-3.119,-3.119,-3.119,-3.119,-3.1123,-3.0852,0.0,0.0,0.0,0.0,0.0,0.0,0.0,0.0,0.0,0.0,0.0,0.0,0.0,0.0,0.0,0.0,0.0,0.0,0.0,0.0,0.0,-2.5845,0.0,0.0,0.0,-3.3525,-3.7313,-3.6806,-3.7347,-3.8836,-3.9571,-3.9977,-4.0113,-4.0113,-4.0113,-4.0113,-4.0113,-4.0113,-4.0248,-4.1576,-4.2185,-4.2455,-4.3842,-4.4479,-4.4615,0.0,0.0,0.0,0.0,0.0,0.0,0.0,-4.0595,0.0,-4.0764,-4.0324,-3.9918,-3.9571,-3.9876,-3.9977,-3.9605,-3.9208,-3.914,-3.9571,-3.9208,-3.9005,-3.9005,-3.8294,0.0,-3.4539,-3.3795,-3.2679,-3.119,0.0,0.0,-2.8976,0.0,0.0,0.0,0.0,-2.7672,0.0,0.0,0.0,-3.0176,-3.092,-3.1021,-3.0717,-3.1055,-3.119,-3.119,-3.119,-3.119,-3.119,-3.119,-3.1427,-3.1684,-3.1292,-3.1427,-3.1684,-3.1292,-3.119,-3.119,-3.119,-3.119,-3.119,-3.119,-3.119,-3.119,-3.119,-3.119,-3.119,-3.119,-3.119,-3.0954,-3.0194,-2.8518,0.0,0.0,0.0,0.0,0.0,0.0,0.0,0.0,0.0,0.0,0.0,0.0,0.0,0.0,0.0,0.0,0.0,0.0,0.0,0.0,0.0,0.0,0.0,0.0,0.0,-3.6715,-3.6772,-3.7574,-3.9005,-3.9774,-4.0113,-4.0113,-4.0113,-4.0113,-4.0113,-4.0113,-4.0113,-4.0248,-4.1711,-4.2286,-4.2489,-4.4039,-4.4615,-4.4615,0.0,-3.1698,0.0,0.0,-3.5893,0.0,-3.9783,-4.1644,-4.2564,-4.1576,-4.029,-3.9411,-3.9242,-3.9774,-4.0045,-3.9876,-3.9503,-3.9368,-3.9639,-3.9377,-3.9005,-3.8531,-3.8125,-3.684,-3.4539,-3.3795,-3.2747,0.0,0.0,0.0,0.0,0.0,0.0,0.0,0.0,0.0,0.0,0.0,-3.119,-3.092,-3.209,-3.2192,-3.1664,-3.1495,-3.1427,-3.1393,-3.1258,-3.119,-3.119,-3.119,-3.119,-3.119,-3.119,-3.119,-3.119,-3.119,-3.119,-3.119,-3.119,-3.119,-3.119,-3.119,-3.119,-3.119,-3.119,-3.119,-3.119,-3.119,-3.119,-3.0852,-2.9687,-2.8822,0.0,0.0,0.0,0.0,0.0,0.0,0.0,0.0,0.0,0.0,0.0,0.0,0.0,0.0,0.0,0.0,0.0,0.0,0.0,0.0,0.0,-2.9447,-3.0089,0.0,-3.4235,-3.6309,-3.6806,-3.7811,-3.9242,-3.9842,-4.0113,-4.0113,-4.0113,-4.0113,-4.0113,-4.0113,-4.0113,-4.0248,-4.1711,-4.2286,-4.2489,-4.4039,-4.4615,-4.4615,0.0,0.0,0.0,0.0,0.0,0.0,0.0,-4.2083,-4.161,-4.2117,-4.1508,-4.073,-4.0079,-4.0079,-3.9842,-3.914,-3.9673,-3.9469,-3.8193,-3.9276,-3.9097,-3.71,-3.7584,-3.684,-3.4539,-3.3795,-3.2983,0.0,0.0,0.0,0.0,0.0,0.0,0.0,0.0,0.0,0.0,-3.1819,-3.2544,-3.3119,-3.3254,-3.3254,-3.3119,-3.2462,-3.2192,-3.2124,-3.1427,-3.119,-3.119,-3.119,-3.119,-3.119,-3.119,-3.119,-3.119,-3.119,-3.119,-3.119,-3.119,-3.119,-3.119,-3.119,-3.119,-3.119,-3.119,-3.119,-3.119,-3.119,-3.119,-3.1157,-3.1021,-3.0378,-2.9161,0.0,0.0,0.0,0.0,0.0,0.0,0.0,0.0,0.0,0.0,0.0,0.0,0.0,0.0,0.0,0.0,0.0,0.0,-2.2212,0.0,-2.7317,-3.0074,-3.163,-3.4527,-3.8667,-3.8091,-3.8565,-4.0011,-4.0079,-4.0113,-4.0113,-4.0113,-4.0113,-4.0113,-4.0113,-4.0113,-4.0248,-4.1711,-4.2286,-4.2489,-4.4039,-4.4615,-4.4615,0.0,0.0,0.0,0.0,0.0,0.0,0.0,-4.1948,-4.1813,-4.1644,-4.1001,-4.0451,-4.0146,-4.0113,-3.9977,-3.9706,-3.9943,-3.9842,-3.9242,-3.9774,-3.9503,-3.8183,-3.799,-3.728,-3.5915,-3.4675,-3.3694,0.0,0.0,0.0,0.0,0.0,0.0,0.0,0.0,-3.1562,-3.1955,-3.3139,-3.3525,-3.3457,-3.3863,-3.3795,-3.3322,-3.2598,-3.2293,-3.2192,-3.1481,-3.119,-3.119,-3.119,-3.119,-3.119,-3.119,-3.119,-3.119,-3.119,-3.119,-3.119,-3.119,-3.119,-3.119,-3.119,-3.119,-3.119,-3.119,-3.119,-3.119,-3.119,-3.119,-3.119,-3.119,-3.0954,-3.0311,0.0,0.0,0.0,0.0,0.0,0.0,0.0,0.0,0.0,0.0,0.0,0.0,0.0,0.0,0.0,0.0,0.0,0.0,-2.3545,0.0,-2.9262,-3.2713,-3.3322,-3.5419,-3.9005,-3.87,-3.9106,-4.0113,-4.0113,-4.0113,-4.0113,-4.0113,-4.0113,-4.0113,-4.0113,-4.0113,-4.0248,-4.1711,-4.2286,-4.2489,-4.4039,-4.4615,-4.4615,-3.9614,0.0,-3.8328,0.0,-4.0054,-4.0857,-4.117,-4.1644,-4.1711,-4.0967,-4.0426,-4.0113,-4.0113,-4.0113,-4.0011,-3.9808,-3.9977,-3.991,-3.9503,-3.9876,-3.9673,-3.8734,-3.8193,0.0,-3.6829,-3.5284,-3.4235,-3.3728,-3.2476,0.0,0.0,0.0,0.0,0.0,-3.253,-3.2936,-3.3038,-3.4303,-3.4539,-3.4078,-3.4607,-3.4506,-3.3964,-3.3241,-3.2801,-3.253,-3.1785,-3.136,-3.119,-3.119,-3.119,-3.119,-3.119,-3.119,-3.119,-3.119,-3.119,-3.119,-3.119,-3.119,-3.119,-3.119,-3.119,-3.119,-3.119,-3.119,-3.119,-3.119,-3.119,-3.119,-3.119,-3.119,-3.0886,-2.9939,0.0,0.0,0.0,0.0,0.0,0.0,0.0,-2.4508,-2.4508,0.0,0.0,0.0,0.0,0.0,0.0,0.0,0.0,0.0,0.0,0.0,0.0,-3.4167,-3.5994,-3.9005,-3.9208,-3.9605,-4.0113,-4.0113,-4.0113,-4.0113,-4.0113,-4.0113,-4.0113,-4.0113,-4.0248,-4.0553,-4.1813,-4.2422,-4.276,-4.4107,-4.4615,-4.4615,-4.1035,-4.117,-4.1373,-4.2117,-4.2252,-4.2016,-4.1305,-4.1204,-4.0967,-4.0197,-4.0087,-4.0113,-4.0113,-4.0113,-3.9808,-3.9073,-3.9673,-3.9503,-3.8024,-3.9276,-3.9469,0.0,0.0,-3.755,-3.6829,-3.5284,-3.4506,-3.4472,0.0,0.0,-3.2259,0.0,-3.2293,-3.2361,-3.3816,-3.4472,-3.4506,-3.5261,-3.5566,-3.5566,-3.5566,-3.5566,-3.5498,-3.4742,-3.4032,-3.3288,-3.2564,-3.1819,-3.119,-3.119,-3.119,-3.119,-3.119,-3.119,-3.119,-3.119,-3.119,-3.119,-3.119,-3.119,-3.119,-3.119,-3.119,-3.119,-3.119,-3.119,-3.119,-3.119,-3.119,-3.119,-3.119,-3.119,-3.0717,-2.9247,0.0,0.0,0.0,0.0,0.0,0.0,-2.4982,-2.4508,-2.4508,0.0,0.0,0.0,0.0,0.0,0.0,0.0,0.0,-2.4406,-2.5236,0.0,-3.119,-3.3389,-3.5994,-3.9005,-3.974,-4.0079,-4.0113,-4.0113,-4.0113,-4.0113,-4.0113,-4.0113,-4.0113,-4.0113,-4.0553,-4.1271,-4.2016,-4.276,-4.3504,-4.4282,-4.4615,-4.4615,-3.9749,-4.0527,-4.0967,-4.0189,-4.0865,-4.1305,-4.0561,-4.0451,-4.0358,-4.0121,-4.0113,-4.0113,-4.0113,-4.0113,-4.0011,0.0,-3.9478,-3.9343,0.0,-3.9368,-3.914,-3.8667,-3.7686,-3.6772,-3.5994,-3.5013,-3.4235,-3.3761,0.0,0.0,0.0,-3.3288,-3.3592,-3.4573,-3.5047,-3.5228,-3.5261,-3.5498,-3.56,-3.56,-3.56,-3.56,-3.5464,-3.4235,-3.3592,-3.3254,-3.2002,-3.1393,-3.119,-3.119,-3.119,-3.119,-3.119,-3.119,-3.119,-3.119,-3.119,-3.119,-3.119,-3.119,-3.119,-3.119,-3.119,-3.119,-3.119,-3.119,-3.119,-3.119,-3.119,-3.119,-3.119,-3.119,-3.0886,-2.9905,-3.0378,0.0,0.0,0.0,0.0,0.0,0.0,-2.5439,0.0,-2.4677,0.0,0.0,0.0,0.0,0.0,0.0,0.0,0.0,-2.9281,0.0,-3.5001,-3.5712,-3.7303,-3.9774,-4.0011,-4.0113,-4.0113,-4.0113,-4.0113,-4.0113,-4.0113,-4.0113,-4.0113,-4.0113,-4.0248,-4.0587,-4.1813,-4.2422,-4.2794,-4.4141,-4.4615,-4.4615,-3.9503,-4.0155,-4.0493,-3.9546,-4.0155,-4.0527,-3.9808,-3.991,-4.0011,-3.974,-3.9943,-4.0113,-4.0113,-4.0113,0.0,-4.0113,-3.9673,-3.9605,-4.0079,-3.9436,-3.9005,-3.9005,-3.7608,-3.6558,-3.6062,0.0,0.0,-3.4213,-3.4709,-3.4912,-3.4912,-3.4416,-3.4721,-3.56,-3.56,-3.56,-3.56,-3.56,-3.56,-3.56,-3.56,-3.56,-3.5498,-3.4585,-3.4066,-3.3694,-3.278,-3.2273,-3.2036,-3.2036,-3.2036,-3.1968,-3.1698,-3.1596,-3.1562,-3.1258,-3.119,-3.119,-3.119,-3.119,-3.119,-3.119,-3.119,-3.119,-3.119,-3.119,-3.119,-3.119,-3.119,-3.119,-3.119,-3.119,-3.1055,-3.0581,-3.0886,-3.1021,-3.0581,0.0,0.0,0.0,0.0,0.0,0.0,-2.6742,0.0,0.0,0.0,0.0,0.0,0.0,0.0,-2.8908,-3.0601,0.0,-3.6332,-3.666,-3.7912,-4.0113,-4.0113,-4.0113,-4.0113,-4.0113,-4.0113,-4.0113,-4.0113,-4.0113,-4.0113,-4.0113,-4.0282,-4.0629,-4.1813,-4.2455,-4.2861,-4.4141,-4.4615,-4.4615,-3.9977,-4.0045,0.0,0.0,-4.0079,0.0,-3.9248,-3.9697,-3.9876,-3.9214,-3.9697,-4.0138,-4.0129,-4.0188,-4.0154,-4.0204,0.0,0.0,0.0,-3.9343,-3.8903,-3.8903,-3.7506,-3.6717,-3.6695,-3.596,-3.5599,-3.5667,-3.5667,-3.5644,-3.56,-3.5644,-3.5644,-3.56,-3.56,-3.56,-3.56,-3.56,-3.56,-3.56,-3.56,-3.5622,-3.5667,-3.5599,-3.5169,-3.4601,-3.4533,-3.4071,-3.3452,-3.3494,-3.3439,-3.3283,-3.2625,-3.2388,-3.2198,-3.1413,-3.1224,-3.1258,-3.119,-3.1224,-3.1258,-3.119,-3.119,-3.119,-3.119,-3.119,-3.119,-3.1258,-3.1224,-3.1224,-3.1258,-3.1224,-3.119,-3.119,-3.119,-3.1157,-3.1055,0.0,0.0,0.0,0.0,0.0,0.0,-2.9077,-2.9416,0.0,0.0,0.0,0.0,0.0,-2.6302,-2.9281,-3.0108,-3.2185,-3.5802,-3.6569,-3.8014,-4.0113,-4.0113,-4.0113,-4.0113,-4.0113,-4.0113,-4.0113,-4.0113,-4.0113,-4.0113,-4.0113,-4.0527,-4.1271,-4.2016,-4.276,-4.3477,-4.4282,-4.4615,-4.4615,0.0,0.0,-3.991,-3.9343,-3.974,-4.0186,-4.0431,-4.0266,-4.0186,-4.049,-4.03,-4.0254,-4.0672,-4.0709,-4.0897,-4.1353,-4.0096,-3.9503,-4.0079,-3.887,-3.8159,-3.8159,-3.6705,-3.5788,-3.5676,-3.547,-3.5642,-3.6207,-3.6207,-3.6006,-3.5622,-3.6028,-3.6006,-3.56,-3.56,-3.56,-3.56,-3.56,-3.56,-3.56,-3.56,-3.5832,-3.6172,-3.5608,-3.5491,-3.5582,-3.5022,-3.4444,-3.4066,-3.4436,-3.3903,-3.3175,-3.3593,-3.3352,-3.2636,-3.1511,-3.1616,-3.1921,-3.1326,-3.1616,-3.1887,-3.1326,-3.119,-3.119,-3.119,-3.119,-3.136,-3.1921,-3.1582,-3.136,-3.1955,-3.1562,-3.119,-3.119,-3.119,-3.0818,-2.9687,-2.9213,0.0,0.0,-2.796,-2.8604,-2.8976,-3.0025,-3.0514,0.0,0.0,0.0,0.0,-2.977,-3.0736,-3.3119,-3.3931,-3.5554,-3.8159,-3.8362,-3.9005,-4.0113,-4.0113,-4.0113,-4.0113,-4.0113,-4.0113,-4.0113,-4.0113,-4.0113,-4.0113,-4.0113,-4.0527,-4.1271,-4.2016,-4.276,-4.3477,-4.4282,-4.4615,-4.4615,-3.9442,-3.9942,-4.0353,-3.9942,-4.0216,-4.0672,-4.1206,-4.1059,-4.1001,-4.1343,-4.1094,-4.0967,-4.1273,-4.1296,-4.1429,-4.1789,-4.0892,-4.0435,-4.085,-3.9467,-3.8614,-3.8614,-3.7128,-3.629,-3.619,-3.6155,-3.6346,-3.6781,-3.6781,-3.6641,-3.6354,-3.6641,-3.6586,-3.6333,-3.6333,-3.6333,-3.6333,-3.6333,-3.6333,-3.6333,-3.6333,-3.6519,-3.6711,-3.6311,-3.6328,-3.6502,-3.6095,-3.5788,-3.5617,-3.5862,-3.5487,-3.491,-3.4999,-3.4719,-3.4173,-3.3183,-3.3022,-3.3083,-3.2672,-3.2743,-3.2775,-3.1977,-3.2065,-3.2256,-3.1892,-3.2207,-3.2569,-3.2618,-3.242,-3.2205,-3.2293,-3.1989,-3.1582,-3.1258,-3.0615,-2.9924,-2.9111,-2.84,0.0,-2.7757,-2.8807,-2.9788,-3.0431,-3.1529,-3.2036,-3.163,-3.163,0.0,-3.163,-3.2645,-3.3626,-3.4472,-3.5194,-3.6681,-3.8971,-3.9309,-3.9706,-4.0113,-4.0113,-4.0113,-4.0113,-4.0113,-4.0113,-4.0113,-4.0113,-4.0113,-4.0113,-4.0113,-4.035,-4.0798,-4.188,-4.2523,-4.3031,-4.4175,-4.4615,-4.4615,-4.1208,-4.1059,-4.1059,-4.1059,-4.1059,-4.1228,-4.1853,-4.1874,-4.1832,-4.1916,-4.1853,-4.1832,-4.1916,-4.1937,-4.1979,-4.2062,-4.2062,-4.2,-4.181,-4.0359,-3.9509,-3.9509,-3.8042,-3.7229,-3.7304,-3.7304,-3.7304,-3.7304,-3.7304,-3.7267,-3.7192,-3.7267,-3.7267,-3.7192,-3.7192,-3.7192,-3.7192,-3.7192,-3.7192,-3.7192,-3.7192,-3.7229,-3.7304,-3.7304,-3.7341,-3.745,-3.745,-3.736,-3.7323,-3.7396,-3.7288,-3.7037,-3.6451,-3.6221,-3.5989,-3.5439,-3.5027,-3.4711,-3.4391,-3.4109,-3.3719,-3.3047,-3.3383,-3.3719,-3.3012,-3.3617,-3.4144,-3.3568,-3.3549,-3.3468,-3.2876,-3.2652,-3.2258,-3.121,-3.0093,-2.9179,-2.8705,0.0,-2.7706,-2.901,-2.9905,-3.0954,-3.2327,-3.3119,-3.3626,-3.3728,-3.3829,-3.3931,-3.3931,-3.5194,-3.5656,-3.5013,-3.5723,-3.711,-3.914,-3.9808,-4.0113,-4.0113,-4.0113,-4.0113,-4.0113,-4.0113,-4.018,-4.0282,-4.0146,-4.0214,-4.0417,-4.018,-4.0316,-4.0722,-4.1847,-4.2422,-4.2794,-4.4141,-4.4615,-4.4615,-4.1703,-4.1682,-4.1682,-4.1682,-4.1682,-4.1874,-4.2462,-4.2124,-4.1979,-4.2482,-4.2139,-4.1979,-4.2482,-4.2577,-4.2751,-4.3214,-4.325,-4.2829,-4.1874,-4.0359,-3.9509,-3.9509,-3.8042,-3.7378,-3.7772,-3.779,-3.779,-3.779,-3.779,-3.7596,-3.7192,-3.7614,-3.7578,-3.7192,-3.7192,-3.7192,-3.7192,-3.7192,-3.7192,-3.7192,-3.7192,-3.7433,-3.779,-3.779,-3.8065,-3.8449,-3.8449,-3.8185,-3.7842,-3.83,-3.7697,-3.6856,-3.743,-3.7125,-3.6608,-3.6789,-3.7077,-3.6933,-3.5244,-3.473,-3.4676,-3.4569,-3.4605,-3.4676,-3.4569,-3.4659,-3.4907,-3.5436,-3.5082,-3.4706,-3.4822,-3.4328,-3.3122,-3.0658,-3.0581,-2.9991,-2.7419,0.0,-2.9668,-2.9905,-3.1123,-3.2273,-3.3152,-3.3897,-3.4573,-3.5194,-3.5893,-3.6288,-3.6288,-3.7077,-3.7483,-3.7381,-3.8091,-3.8937,-3.991,-4.0045,-4.0113,-4.0113,-4.0113,-4.0113,-4.0113,-4.0113,-4.0426,-4.1001,-4.0383,-4.0823,-4.1847,-4.062,-4.1204,-4.2861,-4.2455,-4.3125,-4.4276,-4.4513,-4.4615,-4.4615,-4.2342,-4.2282,-4.2282,-4.2282,-4.2282,-4.2482,-4.3032,-4.2902,-4.281,-4.3105,-4.2902,-4.281,-4.3105,-4.3142,-4.3232,-4.3497,-4.3515,-4.3286,-4.2753,-4.1233,-4.0366,-4.0366,-3.8848,-3.8118,-3.8316,-3.8316,-3.8316,-3.8316,-3.8316,-3.8218,-3.8034,-3.8234,-3.8218,-3.8017,-3.8017,-3.8017,-3.8017,-3.8017,-3.8017,-3.8017,-3.8017,-3.8152,-3.8316,-3.8316,-3.8481,-3.8689,-3.8689,-3.8528,-3.8348,-3.8627,-3.8293,-3.7842,-3.8207,-3.8061,-3.7794,-3.7976,-3.7964,-3.7658,-3.6584,-3.6311,-3.6202,-3.5752,-3.5985,-3.6202,-3.5752,-3.6115,-3.6503,-3.6397,-3.6257,-3.6021,-3.5744,-3.5406,-3.4614,-3.2962,-3.2299,0.0,0.0,-3.0836,-3.1376,-3.1104,-3.3108,-3.4541,-3.4595,-3.5656,-3.6468,-3.6783,-3.7178,-3.7381,-3.7381,-3.8091,-3.8497,-3.8497,-3.9208,-3.9774,-4.0113,-4.0113,-4.0113,-4.0113,-4.0113,-4.0113,-4.0113,-4.0113,-4.0282,-4.0595,-4.0248,-4.0485,-4.1094,-4.0798,-4.1305,-4.2252,-4.2726,-4.3335,-4.4012,-4.4445,-4.4615,-4.4615,-4.2976,-4.2901,-4.2901,-4.2901,-4.2901,-4.3032,-4.3445,-4.3515,-4.3515,-4.3515,-4.3515,-4.3515,-4.3515,-4.3515,-4.3515,-4.3515,-4.3515,-4.3515,-4.3515,-4.2176,-4.1279,-4.1095,-3.957,-3.8689,-3.8689,-3.8689,-3.8689,-3.8689,-3.8689,-3.8689,-3.8689,-3.8689,-3.8689,-3.8689,-3.8689,-3.8689,-3.8689,-3.8689,-3.8689,-3.8689,-3.8689,-3.8689,-3.8689,-3.8689,-3.8689,-3.8689,-3.8689,-3.8689,-3.8689,-3.8689,-3.8689,-3.8689,-3.8689,-3.8689,-3.8689,-3.8689,-3.8417,-3.8056,-3.7842,-3.7786,-3.7639,-3.7,-3.7345,-3.7639,-3.7,-3.7489,-3.7901,-3.7305,-3.7359,-3.7327,-3.6577,-3.6452,-3.6043,-3.4853,0.0,0.0,0.0,-3.2999,-3.3206,-3.3141,-3.537,-3.6769,-3.6551,-3.7752,-3.8539,-3.8539,-3.857,-3.8578,-3.8578,-3.9035,-3.9316,-3.9428,-3.9883,-4.0113,-4.0113,-4.0113,-4.0113,-4.0113,-4.0282,-4.0282,-4.0113,-4.0282,-4.0383,-4.035,-4.018,-4.0383,-4.0865,-4.1102,-4.1508,-4.2083,-4.3003,-4.3511,-4.3775,-4.435,-4.4615,-4.4615,-4.3463,-4.3463,-4.3463,-4.3463,-4.3463,-4.3463,-4.3497,-4.3515,-4.3515,-4.3515,-4.3515,-4.3515,-4.3515,-4.3515,-4.3515,-4.3515,-4.3515,-4.3515,-4.3515,-4.269,-4.1882,-4.1132,-3.957,-3.8689,-3.8689,-3.8689,-3.8689,-3.8689,-3.8689,-3.8689,-3.8689,-3.8689,-3.8689,-3.8689,-3.8689,-3.8689,-3.8689,-3.8689,-3.8689,-3.8689,-3.8689,-3.8689,-3.8689,-3.8689,-3.8689,-3.8689,-3.8689,-3.8689,-3.8689,-3.8689,-3.8689,-3.8689,-3.8689,-3.8689,-3.8689,-3.8689,-3.8658,-3.8643,-3.86,-3.8615,-3.8615,-3.8542,-3.8579,-3.8615,-3.8542,-3.8585,-3.8606,-3.8569,-3.8575,-3.8396,-3.7855,-3.777,-3.6911,-3.4281,0.0,0.0,-3.2876,-3.3925,-3.535,-3.6751,-3.7761,-3.8593,-3.9241,-4.0014,-4.0488,-4.0474,-4.0603,-4.0677,-4.0677,-4.0266,-4.0251,-4.0723,-4.0309,-4.0113,-4.0113,-4.0113,-4.0113,-4.0113,-4.0798,-4.0764,-4.0113,-4.0798,-4.1136,-4.1068,-4.0417,-4.1238,-4.3064,-4.1745,-4.2455,-4.431,-4.3673,-4.3876,-4.4513,-4.4581,-4.4615,-4.4615,-4.3515,-4.3515,-4.3515,-4.3515,-4.3515,-4.3515,-4.3515,-4.3515,-4.3515,-4.3515,-4.3515,-4.3515,-4.3515,-4.3515,-4.3515,-4.3515,-4.3515,-4.3515,-4.3515,-4.2763,-4.1735,-4.0414,-3.9753,-3.9203,-3.8726,-3.8689,-3.8689,-3.8689,-3.8689,-3.8689,-3.8689,-3.8689,-3.8689,-3.8689,-3.8689,-3.8689,-3.8689,-3.8689,-3.8689,-3.8689,-3.8689,-3.8689,-3.8689,-3.8689,-3.8689,-3.8689,-3.8689,-3.8689,-3.8689,-3.8689,-3.8689,-3.8689,-3.8689,-3.8689,-3.8689,-3.8689,-3.8689,-3.8689,-3.8689,-3.8689,-3.8689,-3.8689,-3.8689,-3.8689,-3.8689,-3.8689,-3.8689,-3.8689,-3.8689,-3.8789,-3.9069,-3.9146,-3.8968,-3.8416,0.0,-3.8528,-3.798,-3.8416,-3.8879,-3.9139,-3.9838,-4.0279,-4.0284,-4.0967,-4.1371,-4.1371,-4.1441,-4.1451,-4.1451,-4.1263,-4.1241,-4.1429,-4.1263,-4.0967,-4.0601,-4.0601,-4.0656,-4.0798,-4.1068,-4.1068,-4.0798,-4.1068,-4.0933,-4.0553,-4.0696,-4.1271,-4.2083,-4.2422,-4.3064,-4.3876,-4.4079,-4.4316,-4.4615,-4.4615,-4.4615,-4.4615,-4.3515,-4.3515,-4.3515,-4.3515,-4.3515,-4.3515,-4.3515,-4.3515,-4.3515,-4.3515,-4.3515,-4.3515,-4.3515,-4.3515,-4.3515,-4.3515,-4.3515,-4.3515,-4.3515,-4.2983,-4.1846,-3.9974,-3.9643,-3.9276,-3.8726,-3.8689,-3.8689,-3.8689,-3.8689,-3.8689,-3.8689,-3.8689,-3.8689,-3.8689,-3.8689,-3.8689,-3.8689,-3.8689,-3.8689,-3.8689,-3.8689,-3.8689,-3.8689,-3.8689,-3.8689,-3.8689,-3.8689,-3.8689,-3.8689,-3.8689,-3.8689,-3.8689,-3.8689,-3.8689,-3.8689,-3.8689,-3.8689,-3.8762,-3.9019,-3.9093,-3.9093,-3.9093,-3.9276,-3.9386,-3.9129,-3.9276,-3.9386,-3.9129,-3.9276,-3.9643,-4.0194,-4.0267,-4.0451,-4.1022,-4.1095,-4.1095,-4.1095,-4.1315,-4.1325,-4.096,-4.1597,-4.194,-4.16,-4.2024,-4.2327,-4.2327,-4.2165,-4.2,-4.181,-4.1979,-4.2062,-4.2062,-4.2246,-4.2062,-4.1451,-4.1273,-4.1371,-4.1793,-4.1975,-4.2137,-4.2137,-4.2402,-4.2093,-4.1429,-4.1921,-4.2174,-4.2287,-4.331,-4.3729,-4.3842,-4.4378,-4.4615,-4.4615,-4.4615,-4.4615,-4.4615,-4.3515,-4.3515,-4.3515,-4.3515,-4.3515,-4.3515,-4.3515,-4.3515,-4.3515,-4.3515,-4.3515,-4.3515,-4.3515,-4.3515,-4.3515,-4.3515,-4.3515,-4.3515,-4.3515,-4.3478,-4.2396,-4.001,-3.9129,-3.8726,-3.8726,-3.8689,-3.8689,-3.8726,-3.8689,-3.8689,-3.8689,-3.8689,-3.8689,-3.8689,-3.8689,-3.8689,-3.8689,-3.8689,-3.8689,-3.8689,-3.8689,-3.8689,-3.8689,-3.8689,-3.8689,-3.8689,-3.8689,-3.8689,-3.8689,-3.8689,-3.8689,-3.8689,-3.8726,-3.8726,-3.8689,-3.8726,-3.8726,-3.8909,-3.968,-3.99,-3.99,-3.9916,-4.0524,-4.0875,-4.0084,-4.0524,-4.0875,-4.0084,-4.0561,-4.1095,-4.1095,-4.1095,-4.1095,-4.1132,-4.1132,-4.1132,-4.1132,-4.1809,-4.2323,-4.2323,-4.302,-4.3515,-4.3515,-4.3515,-4.3515,-4.3515,-4.3013,-4.2422,-4.1853,-4.2382,-4.2693,-4.2693,-4.3214,-4.3232,-4.2693,-4.2103,-4.2221,-4.3009,-4.3758,-4.4134,-4.4214,-4.4936,-4.4923,-4.4201,-4.4201,-4.4273,-4.4401,-4.4401,-4.4508,-4.4615,-4.4615,-4.4615,-4.4615,-4.4615,-4.4615,-4.4615,-4.3515,-4.3515,-4.3515,-4.3515,-4.3515,-4.3515,-4.3515,-4.3515,-4.3515,-4.3515,-4.3515,-4.3515,-4.3515,-4.3515,-4.3515,-4.3515,-4.3515,-4.324,-4.269,-4.2139,-4.1258,-3.9937,-4.023,-4.012,-3.9533,-3.8982,-3.8982,-3.9533,-3.8982,-3.8689,-3.8689,-3.8689,-3.8689,-3.8689,-3.8689,-3.8689,-3.8689,-3.8689,-3.8689,-3.8689,-3.8689,-3.8689,-3.8689,-3.8689,-3.8689,-3.8689,-3.8689,-3.8689,-3.8689,-3.8689,-3.8689,-3.8799,-3.935,-3.9166,-3.8909,-4.0031,-3.9974,-3.9717,-4.0524,-4.1148,-4.1442,-4.0891,-4.0912,-4.1022,-4.0818,-4.0912,-4.1022,-4.0781,-4.0912,-4.1279,-4.1846,-4.1956,-4.2139,-4.269,-4.2763,-4.2763,-4.2763,-4.2983,-4.313,-4.313,-4.3368,-4.3515,-4.3515,-4.3515,-4.3515,-4.3515,-4.3339,-4.3196,-4.3014,-4.3142,-4.325,-4.325,-4.3428,-4.3409,-4.3268,-4.2713,-4.2578,-4.2943,-4.3758,-4.4112,-4.4169,-4.4936,-4.4923,-4.4214,-4.4746,-4.4986,-4.5082,-4.5587,-4.5828,-4.5865,-4.5865,-4.5865,-4.5865,-4.5865,-4.5597,-4.5214,-4.3515,-4.3515,-4.3515,-4.3515,-4.3515,-4.3515,-4.3515,-4.3515,-4.3515,-4.3515,-4.3515,-4.3515,-4.3515,-4.3515,-4.3515,-4.3515,-4.3515,-4.3277,-4.28,-4.2323,-4.1699,-4.0891,-4.1332,-4.1038,-3.99,-3.9753,-3.9717,-3.99,-3.9423,-3.9019,-3.8689,-3.8689,-3.8689,-3.8689,-3.8689,-3.8689,-3.8689,-3.8689,-3.8689,-3.8689,-3.8689,-3.8689,-3.8689,-3.8689,-3.8689,-3.8689,-3.8689,-3.8689,-3.8689,-3.8689,-3.8909,-3.9276,-3.9753,-3.979,-3.9848,-4.0802,-4.0781,-4.0561,-4.1368,-4.1919,-4.2249,-4.2103,-4.2066,-4.1992,-4.1662,-4.1809,-4.1956,-4.1662,-4.1846,-4.2213,-4.269,-4.2763,-4.291,-4.3441,-4.3515,-4.3515,-4.3515,-4.3515,-4.3515,-4.3515,-4.3515,-4.3515,-4.3515,-4.3515,-4.3515,-4.3515,-4.3515,-4.3515,-4.3515,-4.3515,-4.3515,-4.3515,-4.3515,-4.3515,-4.3515,-4.3178,-4.3225,-4.3611,-4.4422,-4.4962,-4.5306,-4.6118,-4.6248,-4.5873,-4.6284,-4.6348,-4.6163,-4.6605,-4.6659,-4.6389,-4.6389,-4.6389,-4.6389,-4.6389,-4.6185,-4.584,-4.3515,-4.3515,-4.3515,-4.3515,-4.3515,-4.3515,-4.3515,-4.3515,-4.3515,-4.3515,-4.3515,-4.3515,-4.3515,-4.3515,-4.3515,-4.3515,-4.3515,-4.3515,-4.3515,-4.3441,-4.3057,-4.2323,-4.2286,-4.1625,-4.0157,-4.0781,-4.0744,-4.001,-3.9953,-3.9496,-3.8689,-3.8689,-3.8689,-3.8689,-3.8689,-3.8689,-3.8689,-3.8689,-3.8689,-3.8689,-3.8689,-3.8689,-3.8689,-3.8689,-3.8689,-3.8689,-3.8689,-3.8762,-3.8836,-3.8909,-3.9386,-4.001,-4.0084,-4.0561,-4.1132,-4.1279,-4.1242,-4.1389,-4.2176,-4.2396,-4.258,-4.3331,-4.3515,-4.3314,-4.258,-4.2947,-4.3277,-4.2543,-4.2983,-4.3515,-4.3515,-4.3515,-4.3515,-4.3515,-4.3515,-4.3515,-4.3515,-4.3515,-4.3515,-4.3515,-4.3515,-4.3515,-4.3515,-4.3515,-4.3515,-4.3515,-4.3515,-4.3515,-4.3515,-4.3588,-4.3625,-4.3625,-4.3625,-4.3644,-4.3735,-4.3644,-4.3938,-4.4599,-4.548,-4.6287,-4.7003,-4.7902,-4.8306,-4.8306,-4.8306,-4.7995,-4.747,-4.747,-4.711,-4.6553,-4.6553,-4.6553,-4.6553,-4.6553,-4.653,-4.646,-4.3515,-4.3515,-4.3515,-4.3515,-4.3515,-4.3515,-4.3515,-4.3515,-4.3515,-4.3515,-4.3515,-4.3515,-4.3515,-4.3515,-4.3515,-4.3515,-4.3515,-4.3515,-4.3515,-4.291,-4.247,-4.2323,-4.2286,-4.2139,-4.1772,-4.1315,-4.1022,-4.0838,-4.0194,-3.9496,-3.8689,-3.8689,-3.8689,-3.8689,-3.8689,-3.8689,-3.8689,-3.8689,-3.8689,-3.8689,-3.8689,-3.8689,-3.8689,-3.8689,-3.8689,-3.8689,-3.8689,-3.9093,-3.9753,-4.0361,-4.0691,-4.0948,-4.1589,-4.1479,-4.1352,-4.2616,-4.2543,-4.2213,-4.302,-4.3258,-4.3277,-4.3478,-4.3515,-4.3441,-4.3277,-4.3351,-4.3441,-4.3277,-4.3404,-4.3515,-4.3515,-4.3515,-4.3515,-4.3515,-4.3515,-4.3515,-4.3515,-4.3515,-4.3515,-4.3515,-4.3515,-4.3515,-4.3515,-4.3515,-4.3515,-4.3515,-4.3515,-4.3515,-4.3515,-4.4085,-4.4452,-4.4452,-4.4452,-4.4745,-4.5369,-4.4745,-4.4195,-4.3754,-4.5223,-4.5993,-4.6214,-4.7645,-4.8306,-4.8306,-4.8306,-4.8248,-4.8094,-4.8094,-4.8035,-4.7879,-4.7879,-4.7879,-4.7879,-4.7879,-4.7575,-4.7088,-4.3515,-4.3515,-4.3515,-4.3515,-4.3515,-4.3515,-4.3515,-4.3515,-4.3515,-4.3515,-4.3515,-4.3515,-4.3515,-4.3515,-4.3515,-4.3515,-4.3515,-4.3515,-4.3515,-4.3094,-4.2873,-4.2873,-4.2873,-4.2873,-4.2873,-4.247,-4.2066,-4.1662,-4.1258,-4.0451,-3.9276,-3.9276,-3.9056,-3.8689,-3.8689,-3.8689,-3.8689,-3.8689,-3.8689,-3.8689,-3.8689,-3.8689,-3.8689,-3.8689,-3.8946,-3.9276,-3.9276,-3.979,-4.0561,-4.0948,-4.1352,-4.1772,-4.2176,-4.2286,-4.2396,-4.324,-4.3204,-4.2947,-4.3404,-4.3515,-4.3515,-4.3515,-4.3515,-4.3515,-4.3515,-4.3515,-4.3515,-4.3515,-4.3515,-4.3515,-4.3515,-4.3515,-4.3515,-4.3515,-4.3515,-4.3515,-4.3515,-4.3515,-4.3515,-4.3515,-4.3515,-4.3515,-4.3515,-4.3515,-4.3515,-4.3515,-4.3515,-4.3644,-4.4048,-4.4488,-4.4892,-4.5259,-4.5259,-4.548,-4.5883,-4.548,-4.5076,-4.4672,-4.5883,-4.6287,-4.5957,-4.7572,-4.8306,-4.8306,-4.8306,-4.8306,-4.8306,-4.8306,-4.8306,-4.8306,-4.8306,-4.8306,-4.8269,-4.7846,-4.7546,-4.7268,-4.3515,-4.3515,-4.3515,-4.3515,-4.3515,-4.3515,-4.3515,-4.3515,-4.3515,-4.3515,-4.3515,-4.3515,-4.3515,-4.3515,-4.3515,-4.3515,-4.3515,-4.3515,-4.3515,-4.3515,-4.3515,-4.3515,-4.3515,-4.3515,-4.3515,-4.3515,-4.3094,-4.2286,-4.2286,-4.1552,-4.012,-4.012,-3.968,-3.8909,-3.8909,-3.8909,-3.8909,-3.8909,-3.8982,-3.9129,-3.9129,-3.9129,-3.9093,-3.8946,-3.9386,-4.0084,-3.9937,-4.0524,-4.1315,-4.1462,-4.1956,-4.2506,-4.2506,-4.2947,-4.3515,-4.3515,-4.3515,-4.3515,-4.3515,-4.3515,-4.3515,-4.3515,-4.3515,-4.3515,-4.3515,-4.3515,-4.3515,-4.3515,-4.3515,-4.3515,-4.3515,-4.3515,-4.3515,-4.3515,-4.3515,-4.3515,-4.3515,-4.3515,-4.3515,-4.3515,-4.3515,-4.3515,-4.3515,-4.3515,-4.3515,-4.3515,-4.3515,-4.3791,-4.4452,-4.4782,-4.5223,-4.5883,-4.603,-4.6177,-4.6324,-4.6177,-4.6104,-4.6104,-4.6929,-4.6856,-4.614,-4.7645,-4.8306,-4.8306,-4.8306,-4.8306,-4.8306,-4.8306,-4.8306,-4.8306,-4.8306,-4.8306,-4.8233,-4.7553,-4.7223,-4.7223,-4.3515,-4.3515,-4.3515,-4.3515,-4.3515,-4.3515,-4.3515,-4.3515,-4.3515,-4.3515,-4.3515,-4.3515,-4.3515,-4.3515,-4.3515,-4.3515,-4.3515,-4.3515,-4.3515,-4.3515,-4.3515,-4.3515,-4.3515,-4.3515,-4.3515,-4.3515,-4.3094,-4.2286,-4.2286,-4.1846,-4.0948,-4.0948,-4.0524,-3.9753,-3.9753,-3.9753,-3.9753,-3.9753,-4.0157,-4.0765,-4.0765,-4.0765,-4.0691,-4.001,-4.023,-4.0855,-4.0157,-4.0855,-4.2249,-4.2947,-4.324,-4.3314,-4.3314,-4.3404,-4.3515,-4.3515,-4.3515,-4.3515,-4.3515,-4.3515,-4.3515,-4.3515,-4.3515,-4.3515,-4.3515,-4.3515,-4.3515,-4.3515,-4.3515,-4.3515,-4.3515,-4.3515,-4.3515,-4.3515,-4.3515,-4.3515,-4.3515,-4.3515,-4.3515,-4.3515,-4.3515,-4.3515,-4.3515,-4.3515,-4.3515,-4.3515,-4.3515,-4.3551,-4.3644,-4.4966,-4.5773,-4.5883,-4.6562,-4.7259,-4.7976,-4.7296,-4.6929,-4.6966,-4.7736,-4.77,-4.6966,-4.7883,-4.8306,-4.8306,-4.8306,-4.8306,-4.8306,-4.8306,-4.8306,-4.8306,-4.8306,-4.8306,-4.8306,-4.8196,-4.77,-4.7223,-4.3515,-4.3515,-4.3515,-4.3515,-4.3515,-4.3515,-4.3515,-4.3515,-4.3515,-4.3515,-4.3515,-4.3515,-4.3515,-4.3515,-4.3515,-4.3515,-4.3515,-4.3515,-4.3515,-4.3515,-4.3515,-4.3515,-4.3515,-4.3515,-4.3515,-4.3515,-4.3331,-4.2947,-4.2947,-4.2543,-4.1772,-4.1315,-4.0912,-4.0561,-4.0084,-4.0157,-4.0561,-4.0561,-4.0781,-4.1095,-4.1095,-4.1095,-4.1058,-4.0708,-4.1075,-4.1772,-4.1882,-4.2359,-4.302,-4.3404,-4.3515,-4.3515,-4.3515,-4.3515,-4.3515,-4.3515,-4.3515,-4.3515,-4.3515,-4.3515,-4.3515,-4.3515,-4.3515,-4.3515,-4.3515,-4.3515,-4.3515,-4.3515,-4.3515,-4.3515,-4.3515,-4.3515,-4.3515,-4.3515,-4.3515,-4.3515,-4.3515,-4.3515,-4.3644,-4.4121,-4.4158,-4.4158,-4.4158,-4.4158,-4.3975,-4.3551,-4.3515,-4.3864,-4.4782,-4.5516,-4.6324,-4.7205,-4.7609,-4.792,-4.8306,-4.7976,-4.7773,-4.7773,-4.8122,-4.7883,-4.7113,-4.792,-4.8306,-4.8306,-4.8306,-4.8306,-4.8306,-4.8306,-4.8306,-4.8306,-4.8306,-4.8049,-4.7626,-4.7626,-4.7406,-4.7223]},{"header":{"parameterUnit":"m.s-1","parameterCategory":1,"la1":30.6,"la2":28.766,"lo1":-90.7593,"lo2":-88.6598,"dy":0.0162,"dx":0.0183,"nx":116,"ny":114,"refTime":"2023-07-13T12:00:00:Z","depth":0,"parameterNumber":3,"parameterNumberName":"V-component_of_WINDS"},"data":[0.0,0.0,0.0,0.0,0.0,0.0,0.0,0.0,0.0,0.0,0.0,0.0,0.0,0.0,0.0,0.0,0.0,0.0,0.0,0.0,0.0,0.0,0.0,0.0,0.0,0.0,0.0,0.0,0.0,0.0,0.0,0.0,0.0,0.0,0.0,0.0,0.0,0.0,0.0,0.0,0.0,0.0,0.0,0.0,0.0,0.0,0.0,0.0,0.0,0.0,0.0,0.0,0.0,0.0,0.0,0.0,0.0,0.0,0.0,0.0,0.0,0.0,0.0,0.0,0.0,0.0,0.0,0.0,0.0,0.0,0.0,0.0,0.0,0.0,0.0,0.0,0.0,0.0,0.0,0.0,0.0,0.0,0.0,0.0,0.0,0.0,0.0,0.0,0.0,0.0,0.0,0.0,0.0,0.0,0.0,0.0,0.0,0.0,0.0,0.0,0.0,0.0,0.0,0.0,0.0,0.0,0.0,0.0,0.0,0.0,0.0,0.0,0.0,0.0,0.0,0.0,0.0,0.0,0.0,0.0,0.0,0.0,0.0,0.0,0.0,0.0,0.0,0.0,0.0,0.0,0.0,0.0,0.0,0.0,0.0,0.0,0.0,0.0,0.0,0.0,0.0,0.0,0.0,0.0,0.0,0.0,0.0,0.0,0.0,0.0,0.0,0.0,0.0,0.0,0.0,0.0,0.0,0.0,0.0,0.0,0.0,0.0,0.0,0.0,0.0,0.0,0.0,0.0,0.0,0.0,0.0,0.0,0.0,0.0,0.0,0.0,0.0,0.0,0.0,0.0,0.0,0.0,0.0,0.0,0.0,0.0,0.0,0.0,0.0,0.0,0.0,0.0,0.0,0.0,0.0,0.0,0.0,0.0,0.0,0.0,0.0,0.0,0.0,0.0,0.0,0.0,0.0,0.0,0.0,0.0,0.0,0.0,0.0,0.0,0.0,0.0,0.0,0.0,0.0,0.0,0.0,0.0,0.0,0.0,0.0,0.0,0.0,0.0,0.0,0.0,0.0,0.0,0.0,0.0,0.0,0.0,0.0,0.0,0.0,0.0,0.0,0.0,0.0,0.0,0.0,0.0,0.0,0.0,0.0,0.0,0.0,0.0,0.0,0.0,0.0,0.0,0.0,0.0,0.0,0.0,0.0,0.0,0.0,0.0,0.0,0.0,0.0,0.0,0.0,0.0,0.0,0.0,0.0,0.0,0.0,0.0,0.0,0.0,0.0,0.0,0.0,0.0,0.0,0.0,0.0,0.0,0.0,0.0,0.0,0.0,0.0,0.0,0.0,0.0,0.0,0.0,0.0,0.0,0.0,0.0,0.0,0.0,0.0,0.0,0.0,0.0,0.0,0.0,0.0,0.0,0.0,0.0,0.0,0.0,0.0,0.0,0.0,0.0,0.0,0.0,0.0,0.0,0.0,0.0,0.0,0.0,0.0,0.0,0.0,0.0,0.0,0.0,0.0,0.0,0.0,0.0,0.0,0.0,0.0,0.0,0.0,0.0,0.0,0.0,0.0,0.0,0.0,0.0,0.0,0.0,0.0,0.0,0.0,0.0,0.0,0.0,0.0,0.0,0.0,0.0,0.0,0.0,0.0,0.0,0.0,0.0,0.0,0.0,0.0,0.0,0.0,0.0,0.0,0.0,0.0,0.0,0.0,0.0,0.0,0.0,0.0,0.0,0.0,0.0,0.0,0.0,0.0,0.0,0.0,0.0,0.0,0.0,0.0,0.0,0.0,0.0,0.0,0.0,0.0,0.0,0.0,0.0,0.0,0.0,0.0,0.0,0.0,0.0,0.0,0.0,0.0,0.0,0.0,0.0,0.0,0.0,0.0,0.0,0.0,0.0,0.0,0.0,0.0,0.0,0.0,0.0,0.0,0.0,0.0,0.0,0.0,0.0,0.0,0.0,0.0,0.0,0.0,0.0,0.0,0.0,0.0,0.0,0.0,0.0,0.0,0.0,0.0,0.0,0.0,0.0,0.0,0.0,0.0,0.0,0.0,0.0,0.0,0.0,0.0,0.0,0.0,0.0,0.0,0.0,0.0,0.0,0.0,0.0,0.0,0.0,0.0,0.0,0.0,0.0,0.0,0.0,0.0,0.0,0.0,0.0,0.0,0.0,0.0,0.0,0.0,0.0,0.0,0.0,0.0,0.0,0.0,0.0,0.0,0.0,0.0,0.0,0.0,0.0,0.0,0.0,0.0,0.0,0.0,0.0,0.0,0.0,0.0,0.0,0.0,0.0,0.0,0.0,0.0,0.0,0.0,0.0,0.0,0.0,0.0,0.0,0.0,0.0,0.0,0.0,0.0,0.0,0.0,0.0,0.0,0.0,0.0,0.0,0.0,0.0,0.0,0.0,0.0,0.0,0.0,0.0,0.0,0.0,0.0,0.0,0.0,0.0,0.0,0.0,0.0,0.0,0.0,0.0,0.0,0.0,0.0,0.0,0.0,0.0,0.0,0.0,0.0,0.0,0.0,0.0,0.0,0.0,0.0,0.0,0.0,0.0,0.0,0.0,0.0,0.0,0.0,0.0,0.0,0.0,0.0,0.0,0.0,0.0,0.0,0.0,0.0,0.0,0.0,0.0,0.0,0.0,0.0,0.0,0.0,0.0,0.0,0.0,0.0,0.0,0.0,0.0,0.0,0.0,0.0,0.0,0.0,0.0,0.0,0.0,0.0,0.0,0.0,0.0,0.0,0.0,0.0,0.0,0.0,0.0,0.0,0.0,0.0,0.0,0.0,0.0,0.0,0.0,0.0,0.0,0.0,0.0,0.0,0.0,0.0,0.0,0.0,0.0,0.0,0.0,0.0,0.0,0.0,0.0,0.0,0.0,0.0,0.0,0.0,0.0,0.0,0.0,0.0,0.0,0.0,0.0,0.0,0.0,0.0,0.0,0.0,0.0,0.0,0.0,0.0,0.0,0.0,0.0,0.0,0.0,0.0,0.0,0.0,0.0,0.0,0.0,0.0,0.0,0.0,0.0,0.0,0.0,0.0,0.0,0.0,0.0,0.0,0.0,0.0,0.0,0.0,0.0,0.0,0.0,0.0,0.0,0.0,0.0,0.0,0.0,0.0,0.0,0.0,0.0,0.0,0.0,0.0,0.0,0.0,0.0,0.0,0.0,0.0,0.0,0.0,0.0,0.0,0.0,0.0,0.0,0.0,0.0,0.0,0.0,0.0,0.0,0.0,0.0,0.0,0.0,0.0,0.0,0.0,0.0,0.0,0.0,0.0,0.0,0.0,0.0,0.0,0.0,0.0,0.0,0.0,0.0,0.0,0.0,0.0,0.0,0.0,0.0,0.0,0.0,0.0,0.0,0.0,0.0,0.0,0.0,0.0,0.0,0.0,0.0,0.0,0.0,0.0,0.0,0.0,0.0,0.0,0.0,0.0,0.0,0.0,0.0,0.0,0.0,0.0,0.0,0.0,0.0,0.0,0.0,0.0,0.0,0.0,0.0,0.0,0.0,0.0,0.0,0.0,0.0,0.0,0.0,0.0,0.0,0.0,0.0,0.0,0.0,0.0,0.0,0.0,0.0,0.0,0.0,0.0,0.0,0.0,0.0,0.0,0.0,0.0,0.0,0.0,0.0,0.0,0.0,0.0,0.0,0.0,0.0,0.0,0.0,0.0,0.0,0.0,0.0,0.0,0.0,0.0,0.0,0.0,0.0,0.0,0.0,0.0,0.0,0.0,0.0,0.0,0.0,0.0,0.0,0.0,0.0,0.0,0.0,0.0,0.0,0.0,0.0,0.0,0.0,0.0,0.0,0.0,0.0,0.0,0.0,0.0,0.0,0.0,0.0,0.0,0.0,0.0,0.0,0.0,0.0,0.0,0.0,0.0,0.0,0.0,0.0,0.0,0.0,0.0,0.0,0.0,0.0,0.0,0.0,0.0,0.0,0.0,0.0,0.0,0.0,0.0,0.0,0.0,0.0,0.0,0.0,0.0,0.0,0.0,0.0,0.0,0.0,0.0,0.0,0.0,0.0,0.0,0.0,0.0,0.0,0.0,0.0,0.0,0.0,0.0,0.0,0.0,0.0,0.0,0.0,0.0,0.0,0.0,0.0,0.0,0.0,0.0,0.0,0.0,0.0,0.0,0.0,0.0,0.0,0.0,0.0,0.0,0.0,0.0,0.0,0.0,0.0,0.0,0.0,0.0,0.0,0.0,0.0,0.0,0.0,0.0,0.0,0.0,0.0,0.0,0.0,0.0,0.0,0.0,0.0,0.0,0.0,0.0,0.0,0.0,0.0,0.0,0.0,0.0,0.0,0.0,0.0,0.0,0.0,0.0,0.0,0.0,0.0,0.0,0.0,0.0,0.0,0.0,0.0,0.0,0.0,0.0,0.0,0.0,0.0,0.0,0.0,0.0,0.0,0.0,0.0,0.0,0.0,0.0,0.0,0.0,0.0,0.0,0.0,0.0,0.0,0.0,0.0,0.0,0.0,0.0,0.0,0.0,0.0,0.0,0.0,0.0,0.0,0.0,0.0,0.0,0.0,0.0,0.0,0.0,0.0,0.0,0.0,0.0,0.0,0.0,0.0,0.0,0.0,0.0,0.0,0.0,0.0,0.0,0.0,0.0,0.0,0.0,0.0,0.0,0.0,0.0,0.0,0.0,0.0,0.0,0.0,0.0,0.0,0.0,0.0,0.0,0.0,0.0,0.0,0.0,0.0,0.0,0.0,0.0,0.0,0.0,0.0,0.0,0.0,0.0,0.0,0.0,0.0,0.0,0.0,0.0,0.0,0.0,0.0,0.0,0.0,0.0,0.0,0.0,0.0,0.0,0.0,0.0,0.0,0.0,0.0,0.0,0.0,0.0,0.0,0.0,0.0,0.0,0.0,0.0,0.0,0.0,0.0,0.0,0.0,0.0,0.0,0.0,0.0,0.0,0.0,0.0,0.0,0.0,0.0,0.0,0.0,0.0,0.0,0.0,0.0,0.0,0.0,0.0,0.0,0.0,0.0,0.0,0.0,0.0,0.0,0.0,0.0,0.0,0.0,0.0,0.0,0.0,0.0,0.0,0.0,0.0,0.0,0.0,0.0,0.0,0.0,0.0,0.0,0.0,0.0,0.0,0.0,0.0,0.0,0.0,0.0,0.0,0.0,0.0,0.0,0.0,0.0,0.0,0.0,0.0,0.0,0.0,0.0,0.0,0.0,0.0,0.0,0.0,0.0,0.0,0.0,0.0,0.0,0.0,0.0,0.0,0.0,0.0,0.0,0.0,0.0,0.0,0.0,0.0,0.0,0.0,0.0,0.0,0.0,0.0,0.0,0.0,0.0,0.0,0.0,0.0,0.0,0.0,0.0,0.0,0.0,0.0,0.0,0.0,0.0,0.0,0.0,0.0,0.0,0.0,0.0,0.0,0.0,0.0,0.0,0.0,0.0,0.0,0.0,0.0,0.0,0.0,0.0,0.0,0.0,0.0,0.0,0.0,0.0,0.0,0.0,0.0,0.0,0.0,0.0,0.0,0.0,0.0,0.0,0.0,0.0,0.0,0.0,0.0,0.0,0.0,0.0,0.0,0.0,0.0,0.0,0.0,0.0,0.0,0.0,0.0,0.0,0.0,0.0,0.0,0.0,0.0,0.0,0.0,0.0,0.0,0.0,0.0,0.0,0.0,0.0,0.0,0.0,0.0,0.0,0.0,0.0,0.0,0.0,0.0,0.0,0.0,0.0,0.0,0.0,0.0,0.0,0.0,0.0,0.0,0.0,0.0,0.0,0.0,0.0,0.0,0.0,0.0,0.0,0.0,0.0,0.0,0.0,0.0,0.0,0.0,0.0,0.0,0.0,0.0,0.0,0.0,0.0,0.0,0.0,0.0,0.0,0.0,0.0,0.0,0.0,0.0,0.0,0.0,0.0,0.0,0.0,0.0,0.0,0.0,0.0,0.0,0.0,0.0,0.0,0.0,0.0,0.0,0.0,0.0,0.0,0.0,0.0,0.0,0.0,0.0,0.0,0.0,0.0,0.0,0.0,0.0,0.0,0.0,0.0,0.0,0.0,0.0,0.0,0.0,0.0,0.0,0.0,0.0,0.0,0.0,0.0,0.0,0.0,0.0,0.0,0.0,0.0,-2.648,0.0,0.0,0.0,0.0,0.0,0.0,0.0,0.0,0.0,0.0,0.0,0.0,0.0,0.0,0.0,0.0,0.0,0.0,0.0,0.0,0.0,0.0,0.0,0.0,0.0,0.0,0.0,0.0,0.0,0.0,0.0,0.0,0.0,0.0,0.0,0.0,0.0,0.0,0.0,0.0,0.0,0.0,0.0,0.0,0.0,0.0,0.0,0.0,0.0,0.0,0.0,0.0,0.0,0.0,0.0,0.0,0.0,0.0,0.0,0.0,0.0,0.0,0.0,0.0,0.0,0.0,0.0,0.0,0.0,0.0,0.0,0.0,0.0,0.0,0.0,0.0,0.0,0.0,0.0,0.0,0.0,0.0,0.0,0.0,0.0,0.0,0.0,0.0,0.0,0.0,0.0,0.0,0.0,0.0,0.0,0.0,0.0,0.0,0.0,0.0,0.0,0.0,0.0,0.0,0.0,0.0,0.0,0.0,0.0,0.0,0.0,0.0,0.0,0.0,0.0,0.0,-2.823,0.0,0.0,0.0,0.0,0.0,0.0,0.0,0.0,0.0,0.0,0.0,0.0,0.0,0.0,0.0,0.0,0.0,0.0,0.0,0.0,0.0,0.0,0.0,0.0,0.0,0.0,0.0,0.0,0.0,0.0,0.0,0.0,0.0,0.0,0.0,0.0,0.0,0.0,0.0,0.0,0.0,0.0,0.0,0.0,0.0,0.0,0.0,0.0,0.0,0.0,0.0,0.0,0.0,0.0,0.0,0.0,0.0,0.0,0.0,0.0,0.0,0.0,0.0,0.0,0.0,0.0,0.0,0.0,0.0,0.0,0.0,0.0,0.0,0.0,0.0,0.0,0.0,0.0,0.0,0.0,0.0,0.0,0.0,0.0,0.0,0.0,0.0,0.0,0.0,0.0,0.0,0.0,0.0,0.0,0.0,0.0,0.0,0.0,0.0,0.0,0.0,0.0,0.0,0.0,0.0,0.0,0.0,0.0,-3.6537,-3.7524,-3.8452,-3.8452,-3.8212,-3.7734,-3.54,-3.3245,-3.136,0.0,0.0,0.0,0.0,0.0,0.0,0.0,0.0,0.0,0.0,0.0,0.0,0.0,0.0,0.0,0.0,0.0,0.0,0.0,0.0,0.0,0.0,0.0,0.0,0.0,0.0,0.0,0.0,0.0,0.0,0.0,0.0,0.0,0.0,0.0,0.0,0.0,0.0,0.0,-3.0888,-3.2825,-3.3748,-3.3684,-3.0397,0.0,0.0,0.0,0.0,0.0,0.0,0.0,0.0,0.0,0.0,0.0,0.0,0.0,0.0,0.0,0.0,0.0,0.0,0.0,0.0,0.0,0.0,0.0,0.0,0.0,0.0,0.0,0.0,0.0,0.0,0.0,0.0,0.0,0.0,0.0,0.0,0.0,0.0,0.0,0.0,0.0,0.0,0.0,-2.4241,-2.4429,0.0,0.0,0.0,0.0,0.0,0.0,0.0,0.0,0.0,0.0,0.0,0.0,0.0,-3.4259,-3.6237,-3.8811,-3.9918,-3.9649,-4.2013,-4.294,-4.2611,-4.2581,-4.2781,-4.324,-4.2273,0.0,-3.4801,-3.4203,0.0,0.0,0.0,0.0,0.0,0.0,0.0,0.0,0.0,0.0,0.0,0.0,0.0,0.0,0.0,0.0,0.0,0.0,0.0,0.0,0.0,0.0,0.0,0.0,0.0,0.0,0.0,0.0,0.0,0.0,0.0,0.0,0.0,0.0,0.0,0.0,-3.0601,-3.3386,-3.5429,-3.7434,-3.8512,-3.8751,-3.6981,-3.4785,-3.2287,-3.124,0.0,0.0,0.0,0.0,0.0,0.0,0.0,0.0,0.0,0.0,0.0,0.0,0.0,0.0,0.0,0.0,0.0,0.0,0.0,0.0,0.0,0.0,0.0,0.0,0.0,0.0,0.0,0.0,0.0,0.0,0.0,0.0,0.0,0.0,0.0,0.0,0.0,0.0,0.0,-2.5214,-2.7159,-2.6433,-2.805,-2.8319,0.0,0.0,0.0,0.0,0.0,0.0,0.0,0.0,0.0,-3.6746,-3.7464,-3.8931,-4.1265,-4.321,-4.4556,-4.5394,-4.692,-4.7698,-4.7788,-4.7758,-4.7684,-4.7595,-4.7296,-4.5024,-4.1384,-3.8841,-3.6537,-3.4472,0.0,0.0,0.0,0.0,-3.2258,-3.3394,0.0,0.0,0.0,0.0,0.0,0.0,0.0,0.0,0.0,0.0,0.0,0.0,0.0,0.0,0.0,-2.1118,0.0,0.0,0.0,0.0,0.0,0.0,0.0,0.0,0.0,0.0,0.0,-3.1091,-3.4743,-3.7618,-3.9709,-4.1713,-4.2641,-4.2641,-4.2641,-4.0247,-3.6181,-3.4472,-3.2048,0.0,0.0,0.0,0.0,0.0,0.0,0.0,0.0,0.0,0.0,0.0,0.0,0.0,0.0,0.0,0.0,0.0,0.0,0.0,0.0,0.0,0.0,0.0,0.0,0.0,0.0,0.0,0.0,0.0,0.0,0.0,0.0,0.0,0.0,0.0,0.0,0.0,0.0,-2.8017,-2.9714,-2.8723,-3.0911,-3.136,0.0,0.0,0.0,0.0,0.0,0.0,-3.5429,-3.7404,-3.9469,-4.1624,-4.2312,-4.3778,-4.6052,-4.7249,-4.8566,-5.0078,-5.069,-5.1259,-5.1708,-5.1708,-5.1379,-5.0674,-5.0524,-4.9239,-4.6967,-4.303,-3.9768,-3.7195,-3.6507,-3.525,-3.3902,-3.4891,-3.5878,-3.6956,0.0,0.0,0.0,0.0,0.0,0.0,0.0,0.0,0.0,0.0,0.0,0.0,0.0,0.0,-2.4062,-2.6466,-2.5918,-2.5493,0.0,0.0,0.0,0.0,0.0,0.0,0.0,0.0,0.0,-3.522,-3.9775,-4.241,-4.318,-4.5155,-4.604,-4.604,-4.604,-4.4197,-4.0876,-3.8272,-3.5998,-3.3874,0.0,0.0,0.0,0.0,0.0,0.0,0.0,0.0,0.0,0.0,0.0,0.0,0.0,0.0,0.0,0.0,0.0,0.0,0.0,0.0,0.0,0.0,0.0,0.0,0.0,0.0,0.0,0.0,0.0,0.0,0.0,0.0,0.0,0.0,0.0,0.0,0.0,0.0,0.0,-3.1301,-3.528,0.0,0.0,0.0,0.0,-3.4204,-3.66,-3.8901,-4.0913,-4.2851,-4.5125,-4.7758,-4.852,-4.9494,-5.087,-5.1558,-5.1947,-5.2067,-5.2725,-5.3054,-5.3084,-5.3084,-5.2725,-5.2067,-5.1439,-5.0704,-4.9687,-4.5753,-4.3269,-4.1811,-3.923,-3.8931,-3.9738,-3.7913,-3.8482,-4.0068,0.0,0.0,0.0,0.0,0.0,0.0,0.0,0.0,0.0,0.0,0.0,0.0,0.0,-2.5877,-2.9167,-3.0403,-3.2899,-3.2918,-2.9514,0.0,0.0,0.0,0.0,0.0,0.0,0.0,-3.4921,-3.8033,-4.1773,-4.4407,-4.5933,-4.707,-4.7818,-4.8207,-4.8207,-4.7339,-4.5603,-4.2073,-3.896,-3.6118,-3.3245,-3.0253,0.0,0.0,0.0,0.0,0.0,0.0,0.0,0.0,0.0,0.0,0.0,0.0,0.0,0.0,0.0,0.0,0.0,0.0,0.0,0.0,0.0,0.0,0.0,0.0,0.0,0.0,0.0,0.0,0.0,0.0,0.0,0.0,0.0,0.0,0.0,0.0,0.0,-3.6473,-3.9918,0.0,0.0,-3.8242,-3.8721,-3.8936,-4.1354,-4.3898,-4.6364,-4.7908,-4.9972,-5.2636,-5.2546,-5.3264,-5.497,-5.485,-5.497,-5.5359,-5.5179,-5.5119,-5.5089,-5.467,-5.4102,-5.3443,-5.2785,-5.1858,-5.0674,-4.885,-4.71,-4.5424,-4.4018,-4.3269,-4.288,-4.2581,-4.294,-4.3569,0.0,0.0,0.0,0.0,0.0,0.0,0.0,0.0,0.0,0.0,0.0,-2.1133,-2.3717,-2.9092,-3.3164,-3.4676,-3.7416,-3.7134,-3.2557,0.0,0.0,0.0,0.0,0.0,0.0,-3.4113,-3.7853,-4.1414,-4.4257,-4.6561,-4.8297,-4.8506,-4.8955,-4.9583,-4.9583,-4.9224,-4.8446,-4.6052,-4.2851,-3.92,-3.6567,-3.3664,-3.0552,0.0,0.0,0.0,0.0,0.0,0.0,0.0,0.0,0.0,0.0,0.0,0.0,0.0,0.0,0.0,0.0,0.0,0.0,0.0,0.0,0.0,0.0,0.0,0.0,0.0,0.0,0.0,0.0,0.0,0.0,0.0,0.0,0.0,0.0,0.0,-3.9499,-4.0636,-4.4047,-4.5364,-4.297,-4.3329,-4.3988,-4.4646,-4.6711,-4.8925,-5.1139,-5.2306,-5.3803,-5.5777,-5.5418,-5.5807,-5.7094,-5.6675,-5.6675,-5.7094,-5.6675,-5.6376,-5.6166,-5.5718,-5.479,-5.3503,-5.3294,-5.2306,-5.0823,-5.0614,-4.9747,-4.8506,-4.7399,-4.6441,-4.5693,-4.5903,-4.5963,-4.6052,0.0,0.0,0.0,0.0,0.0,0.0,0.0,0.0,0.0,0.0,-1.8503,-2.1785,-2.6636,-3.1378,-3.573,-3.9377,-3.8915,-3.7285,-3.4683,-2.9562,0.0,0.0,0.0,0.0,-3.3574,-3.7524,-4.1444,-4.5364,-4.7339,-4.8985,-5.0196,-4.9613,-4.9673,-5.0285,-5.0255,-4.9942,-4.9449,-5.0002,-4.7698,-4.3359,-4.0666,-3.7973,-3.513,0.0,0.0,0.0,0.0,0.0,0.0,0.0,0.0,0.0,0.0,0.0,0.0,0.0,0.0,0.0,0.0,0.0,0.0,0.0,0.0,0.0,0.0,0.0,0.0,0.0,0.0,0.0,0.0,0.0,0.0,0.0,0.0,0.0,-3.3574,-3.8846,-4.283,-4.3569,-4.7638,-4.9598,-4.7698,-4.9209,-5.0614,-5.1289,-5.2546,-5.3862,-5.5209,-5.5837,-5.6466,-5.7064,-5.7094,-5.7094,-5.7094,-5.7124,-5.7154,-5.7154,-5.7124,-5.6765,-5.6248,-5.6218,-5.473,-5.2336,-5.2935,-5.2097,-5.0315,-5.0913,-5.1199,-5.099,-4.9075,-4.8327,-4.8237,-4.7578,-4.7309,-4.7309,0.0,0.0,0.0,0.0,0.0,0.0,0.0,0.0,0.0,0.0,-1.989,-2.4859,-2.8208,-3.3723,-3.842,-4.1379,-3.9652,-3.7285,-3.4683,0.0,0.0,0.0,0.0,0.0,-3.6926,-4.0487,-4.3748,-4.6741,-4.8267,-4.9673,-5.0913,-5.078,-5.1289,-5.2336,-5.1887,-5.1558,-5.1379,-5.1079,-4.9897,-4.8013,-4.4396,-4.1115,-3.7943,0.0,0.0,0.0,0.0,0.0,0.0,0.0,0.0,0.0,0.0,0.0,0.0,0.0,0.0,0.0,0.0,0.0,0.0,0.0,0.0,0.0,0.0,0.0,0.0,0.0,0.0,0.0,0.0,0.0,0.0,0.0,0.0,-3.8811,-3.917,-4.309,-4.689,-4.9464,-5.2187,-5.3414,-5.2396,-5.3234,-5.3892,-5.4072,-5.488,-5.5927,-5.7244,-5.6585,-5.6466,-5.7064,-5.7094,-5.7094,-5.7094,-5.8052,-5.856,-5.853,-5.7543,-5.7004,-5.6795,-5.5897,-5.5059,-5.4311,-5.3533,-5.2875,-5.2306,-5.1528,-5.0883,-5.0405,-4.9867,-4.9404,-4.897,-4.8267,-4.7728,-4.7249,0.0,0.0,0.0,0.0,0.0,0.0,0.0,0.0,0.0,0.0,-1.9737,-2.4474,-2.7003,-3.2629,-3.6991,-3.8832,-3.7484,-3.5274,-3.2228,0.0,0.0,0.0,0.0,-3.5489,-3.9984,-4.306,-4.5783,-4.8117,-4.9434,-5.075,-5.2037,-5.2037,-5.2606,-5.3593,-5.3204,-5.2875,-5.2606,-5.2516,-5.2097,-5.1229,-4.8356,-4.5244,-4.1884,-3.8332,-3.6237,-3.5011,-3.3155,-3.3275,-3.3933,-3.1359,0.0,0.0,0.0,0.0,0.0,0.0,0.0,0.0,0.0,0.0,0.0,0.0,0.0,0.0,0.0,0.0,0.0,0.0,0.0,0.0,0.0,0.0,0.0,0.0,-4.0068,-4.3898,-4.6411,-4.8506,-5.069,-5.3144,-5.494,-5.5957,-5.5867,-5.6196,-5.6526,-5.6825,-5.7423,-5.8022,-5.8501,-5.8082,-5.7603,-5.7124,-5.7902,-5.7932,-5.7094,-5.871,-5.9368,-5.9099,-5.8321,-5.7633,-5.7064,-5.6316,-5.5388,0.0,-5.3533,-5.2875,-5.2306,-5.1528,-5.0794,0.0,0.0,0.0,0.0,0.0,-4.7638,-4.7249,0.0,0.0,0.0,0.0,0.0,0.0,0.0,0.0,0.0,0.0,0.0,-2.2344,-2.4494,-2.975,-3.3436,-3.426,-3.3965,-3.229,0.0,0.0,0.0,-3.2886,-3.6148,-3.9409,-4.277,-4.5274,-4.7489,-4.9419,-5.069,-5.1977,-5.3174,-5.3264,-5.3653,-5.4311,-5.4251,-5.3922,-5.3443,-5.3892,-5.3773,-5.3174,-5.1947,-4.9523,-4.6232,-4.2402,-4.0905,-4.0516,-3.7943,-3.6866,-3.6447,-3.54,0.0,0.0,0.0,0.0,0.0,0.0,0.0,0.0,0.0,0.0,0.0,0.0,0.0,0.0,0.0,0.0,0.0,0.0,0.0,0.0,0.0,0.0,0.0,0.0,-4.4436,-4.8207,-5.3653,-5.4042,-5.4162,-5.5269,-5.6466,-5.7453,-5.8052,-5.8261,-5.856,-5.9069,-5.9727,-5.9787,-5.9129,0.0,0.0,0.0,0.0,-5.889,-5.7124,-5.9009,-5.9668,-5.9099,-5.9039,-5.8321,-5.7094,-5.7034,-5.5688,-5.3414,-5.3324,-5.2576,-5.1439,-5.1349,-5.0853,-5.0106,-4.9434,-4.879,-4.8087,-4.7429,-4.7249,-4.7309,0.0,0.0,0.0,0.0,0.0,0.0,0.0,0.0,0.0,-1.4808,-1.9031,-2.2565,-2.406,-2.9205,-3.3092,-3.4335,-3.2949,-3.1247,0.0,0.0,-3.124,-3.6237,-3.914,-4.2162,-4.5484,-4.71,-4.8596,-5.0016,-5.1379,-5.2426,-5.3204,-5.3743,-5.4371,-5.497,-5.4431,-5.4431,-5.473,-5.3773,-5.3623,-5.3952,-5.3144,-5.1139,-4.8386,-4.5454,-4.4018,-4.3269,-4.1175,-4.1713,-4.291,-3.9589,-3.8901,-3.896,-3.6058,0.0,0.0,0.0,0.0,0.0,0.0,0.0,0.0,0.0,0.0,0.0,0.0,0.0,0.0,0.0,0.0,0.0,0.0,0.0,0.0,-4.5484,-4.9703,-5.3264,-5.5478,-5.6585,-5.7064,-5.6765,-5.7423,-5.7992,-5.8112,-5.9069,-5.9548,-5.9129,-5.9727,-5.9787,-5.9129,-5.8201,0.0,-5.7094,-5.7483,-5.7483,-5.7094,-5.856,-5.9219,-5.9099,0.0,0.0,-5.7064,-5.6585,-5.5777,-5.476,-5.4251,-5.3533,-5.2755,-5.2217,-5.1319,-5.0076,-4.8925,-4.8087,-4.7429,-4.6741,-4.686,-4.7219,0.0,0.0,0.0,0.0,0.0,0.0,0.0,0.0,0.0,0.0,-1.7561,-2.0309,-2.1773,-2.4716,-2.7177,-2.8792,-2.8163,0.0,0.0,-3.1334,-3.4532,-4.0091,-4.2282,-4.4436,-4.677,-4.8087,-4.9105,-4.9763,-5.1738,-5.2845,-5.3204,-5.4221,-5.488,-5.5179,-5.485,-5.488,-5.5149,-5.4461,-5.4192,-5.4162,-5.3443,-5.2187,-5.0511,-4.8536,-4.716,-4.6142,-4.4825,-4.4766,-4.5005,-4.303,-4.2132,-4.1572,-3.9595,-3.6896,-3.3872,0.0,0.0,0.0,0.0,0.0,0.0,0.0,0.0,0.0,0.0,0.0,0.0,0.0,0.0,-3.6178,0.0,0.0,-4.5873,-5.0511,-5.3174,-5.5508,-5.7812,-5.868,-5.874,-5.7723,-5.8201,-5.862,-5.862,-5.9219,-5.9458,-5.9129,-6.0027,-6.0146,-5.9159,-5.9099,-5.8501,-5.7124,-5.8082,-5.8112,-5.7094,-5.877,-5.9428,-5.9099,-5.877,-5.8261,-5.7573,-5.6944,-5.6286,-5.5628,-5.464,-5.3832,-5.3054,-5.1409,-5.0331,-4.9613,-4.8297,-4.7788,-4.7728,-4.707,-4.701,-4.7249,0.0,0.0,0.0,0.0,0.0,0.0,0.0,0.0,0.0,0.0,-1.5889,-1.7601,-1.9007,-1.9914,-2.1069,0.0,0.0,0.0,0.0,-3.303,-3.7187,-4.2881,-4.4674,-4.6139,-4.7489,-4.8775,-4.9464,-4.9464,-5.1947,-5.3174,-5.3204,-5.4551,-5.5179,-5.5179,-5.5179,-5.5179,-5.5179,-5.5059,-5.47,-5.4162,-5.3443,-5.2725,-5.1887,-5.0644,-4.9494,-4.8327,-4.713,-4.5873,-4.4736,-4.4736,-4.3728,-4.2321,-4.1893,-4.0217,-3.7584,-3.3484,-3.2467,0.0,0.0,0.0,0.0,0.0,0.0,0.0,0.0,0.0,-3.4861,-3.6447,-3.8871,-4.1594,-4.4556,-4.692,-5.0062,-5.5119,-5.6166,-5.7274,-5.9907,-6.0176,-5.9638,-5.8471,-5.889,-5.9249,-5.9129,-5.9219,-5.9249,-5.9129,-6.0236,-6.0386,-5.9159,-6.0116,-5.9727,-5.7543,-5.9039,-5.9129,-5.7483,-5.9099,-5.9697,-5.9279,-5.9159,-5.883,-5.8291,-5.7483,-5.6765,-5.6128,-5.464,-5.3683,-5.2995,-5.0677,-4.9583,-4.9344,-4.8147,-4.7938,-4.8207,-4.7549,-4.7309,-4.7309,0.0,0.0,0.0,0.0,0.0,0.0,0.0,0.0,0.0,0.0,0.0,0.0,0.0,0.0,0.0,0.0,0.0,0.0,-2.8997,-3.2874,-3.7327,-4.246,-4.5022,-4.6868,-4.8177,-4.9464,-5.0076,-5.0076,-5.2187,-5.3174,-5.3204,-5.4551,-5.5179,-5.5179,-5.5179,-5.5179,-5.5149,-5.4551,-5.4281,-5.4162,-5.3443,-5.2426,-5.1259,-5.0465,-4.9793,-4.882,-4.5723,-4.3808,-4.274,-4.274,-4.259,-4.25,-4.294,-4.2521,-4.0943,-3.6387,0.0,-3.2377,-2.7739,-2.6752,-2.8008,-3.2048,-3.2736,-3.4083,0.0,0.0,-4.2021,-4.4496,-4.7057,-4.9329,-5.093,-5.3773,-5.6496,-5.8351,-5.9668,-6.0595,-6.0954,-6.0475,-5.9817,-5.9069,-5.9578,-5.9727,-5.9159,-5.9638,-5.9727,-5.9159,-5.9787,-5.9877,-5.9129,-5.9249,-5.9189,-5.889,-5.9099,-5.9099,-5.889,-5.9099,-5.9458,-5.9967,-5.9368,-5.9069,-5.8949,-5.7663,-5.6765,-5.6128,-5.4132,-5.3264,-5.3054,-5.1588,-5.0661,-5.0016,-4.9344,-4.8745,-4.8207,-4.7549,-4.7309,-4.7309,0.0,0.0,0.0,0.0,0.0,0.0,0.0,0.0,0.0,0.0,0.0,0.0,0.0,0.0,0.0,0.0,0.0,0.0,-2.7853,-3.2571,-3.7646,-4.2983,-4.4475,-4.5921,-4.752,-4.8518,-4.9384,-5.0096,-5.2159,-5.3384,-5.3773,-5.4371,-5.482,-5.5179,-5.479,-5.482,-5.5149,-5.4491,-5.3982,-5.3563,-5.2875,-5.1828,-5.0435,-4.9075,-4.7638,-4.5992,-4.309,-4.0696,0.0,0.0,-3.923,-3.9356,-4.1504,-4.0427,-3.7913,-3.5579,-3.3694,0.0,-3.0941,-3.145,0.0,0.0,-3.7883,-4.0397,-4.4227,-4.5753,-4.7053,-4.9284,-5.1528,-5.3503,-5.482,-5.6166,-5.7663,0.0,-5.9518,-5.9638,-6.0416,-5.9937,-5.8979,-5.7573,-5.7633,-5.7842,-5.7932,-5.853,-5.883,-5.856,-5.9488,-5.9787,-5.9129,-5.9847,-5.9907,-5.9129,-5.9877,-6.0086,-5.9668,-5.9668,-5.9817,-6.0086,-5.9428,-5.8919,-5.8501,-5.7543,-5.6346,-5.497,-5.3713,-5.2965,-5.2486,-5.078,-4.9912,-4.9553,-4.8536,-4.7967,-4.7668,-4.7399,-4.7309,-4.7309,0.0,0.0,0.0,0.0,0.0,0.0,0.0,0.0,0.0,0.0,0.0,0.0,0.0,0.0,0.0,0.0,0.0,0.0,0.0,-3.0725,-3.5876,-4.1438,-4.2592,-4.4076,-4.6007,-4.7116,-4.8105,-4.8887,-5.0975,-5.2464,-5.3346,-5.3524,-5.4081,-5.488,-5.4221,-5.4192,-5.4581,-5.3922,-5.3264,-5.2576,-5.1917,-5.0661,-4.891,-4.716,-4.4556,-4.1624,-3.9529,-3.7075,0.0,0.0,-3.4651,-3.5011,-3.7584,-3.6926,-3.5011,-3.3963,-3.2407,-3.136,-3.3036,0.0,0.0,-3.9379,-4.2731,-4.5903,-4.7788,-4.9763,-5.1665,-5.3234,-5.485,-5.6286,-5.7214,-5.7393,0.0,-5.9548,-5.9159,-5.9009,-5.9937,-5.9189,-5.7842,-5.5867,-5.5149,-5.491,-5.5179,-5.6496,-5.7543,-5.8082,-5.9009,-5.9488,-5.9368,-6.0296,-6.0475,-5.9697,-6.0595,-6.0775,-6.0086,-6.0086,-6.0086,-6.0086,-5.9249,-5.868,-5.8351,-5.7304,-5.5867,-5.4162,-5.3473,-5.2815,-5.2067,-5.0272,-4.9434,-4.9209,-4.8027,-4.7459,-4.7309,-4.7309,-4.7309,-4.7309,0.0,0.0,0.0,0.0,0.0,0.0,0.0,0.0,0.0,0.0,0.0,0.0,0.0,0.0,0.0,0.0,0.0,0.0,0.0,-2.6433,-3.0855,-3.6588,-3.9036,-4.1268,-4.3579,-4.5398,-4.6311,-4.6215,-4.8086,-4.9764,-5.1193,-5.1776,-5.2844,-5.4221,-5.3533,-5.3234,-5.3204,-5.2546,-5.1887,-5.1229,-5.0524,-4.8701,-4.6249,-4.4915,-4.0816,-3.5669,-3.4921,0.0,0.0,0.0,-2.8753,-2.9951,-3.0612,-3.2527,0.0,-3.2168,-3.0672,0.0,0.0,0.0,-3.6926,-4.2701,-4.6172,-4.9015,-5.2247,-5.4571,-5.6137,-5.6825,-5.7513,-5.8052,-5.8082,-5.8082,-5.8321,-5.9009,-5.9638,-6.0027,-6.0086,-5.8381,-5.6436,-5.4491,-5.2546,-5.1092,0.0,-5.3384,-5.6077,-5.7992,-5.8171,-5.874,-5.9997,-6.0086,-6.0416,-6.1044,-6.1104,-6.0775,-6.0086,-6.0086,-6.0086,-6.0057,-5.877,-5.8471,-5.9009,-5.7064,-5.5478,-5.4162,-5.3473,-5.2815,-5.2097,-5.0704,-4.9853,-4.9239,-4.8506,-4.7878,-4.7309,-4.7309,-4.7309,-4.7309,0.0,0.0,0.0,0.0,0.0,0.0,0.0,0.0,0.0,0.0,0.0,0.0,0.0,0.0,0.0,0.0,0.0,0.0,0.0,-2.4054,-2.8267,-3.3647,-3.6274,-3.873,-4.1045,-4.2915,-4.4205,-4.4985,-4.6511,-4.7726,-4.8629,-4.9266,-5.0035,-5.0935,-5.1119,-5.1012,-5.0603,-5.0364,-4.9677,-4.8583,-4.7421,-4.6172,-4.4646,-4.1564,-3.7793,-3.3694,0.0,0.0,0.0,0.0,0.0,0.0,-2.729,-2.7345,0.0,-2.6333,-2.8757,-3.2018,0.0,0.0,-4.2372,-4.6561,-5.0242,-5.3503,-5.5897,-5.7334,-5.8052,-5.7812,-5.5867,-5.3922,-5.3006,-5.2187,-5.2097,-5.3623,-5.5179,-5.6645,-5.7932,-5.6795,-5.5089,-5.3114,-5.1887,0.0,0.0,0.0,0.0,-5.5418,-5.6705,-5.8022,-5.9368,-6.0296,-6.0655,-6.0446,-6.1313,-6.1224,-6.0086,-6.0086,-6.0086,-6.0057,-5.8291,-5.7334,-5.7094,-5.5568,-5.4371,-5.3503,-5.2815,-5.2157,-5.1468,-5.0554,-4.9554,-4.8453,-4.742,-4.6362,-4.5241,-4.489,-4.4794,-4.5024,0.0,0.0,0.0,0.0,0.0,0.0,0.0,0.0,0.0,0.0,0.0,0.0,0.0,0.0,0.0,0.0,0.0,0.0,0.0,0.0,-2.4147,-2.8646,-3.1057,-3.3267,-3.534,-3.7104,-3.8611,-3.9734,-4.1421,-4.2846,-4.4001,-4.4729,-4.56,-4.6536,-4.667,-4.6521,-4.6164,-4.6162,-4.5316,-4.3858,-4.2573,-4.1136,-3.9416,-3.62,-3.2941,0.0,0.0,0.0,0.0,0.0,0.0,0.0,0.0,-2.4148,-2.4029,-2.5615,-2.9475,-3.4023,0.0,-4.2282,-4.698,-5.0827,-5.4012,-5.6555,-5.7842,-5.8441,-5.8291,-5.6675,-5.3952,-5.1079,-4.8551,-4.7249,-4.71,-4.8835,-5.0601,-5.2665,-5.5329,-5.4581,-5.3384,-5.2336,-5.1409,0.0,0.0,0.0,0.0,-5.4102,-5.5807,-5.7334,-5.868,-5.9787,-6.0416,-6.0446,-6.1283,-6.1224,-6.0086,-6.0086,-5.9727,-5.9009,-5.7483,-5.6436,-5.5777,-5.47,-5.3563,-5.2456,-5.2276,-5.1439,-5.0106,-4.9453,-4.8536,-4.7386,-4.593,-4.4799,-4.398,-4.3642,-4.3504,-4.374,0.0,0.0,0.0,0.0,0.0,0.0,0.0,0.0,0.0,0.0,0.0,0.0,0.0,0.0,0.0,0.0,0.0,0.0,0.0,0.0,0.0,-2.197,-2.3772,-2.5485,-2.7128,-2.88,-3.0156,-3.1185,-3.3319,-3.5359,-3.7347,-3.8362,-3.959,-4.0882,-4.0308,-4.0027,-3.9985,-3.9999,-3.903,-3.7355,-3.6241,-3.4023,-3.1204,-2.9262,0.0,0.0,0.0,0.0,0.0,0.0,0.0,0.0,0.0,0.0,-2.6542,-2.9714,-3.2677,-3.636,-4.2701,-4.695,-5.0737,-5.52,-5.7244,-5.8141,-5.8082,-5.7962,-5.6915,-5.3514,-5.1571,-4.9044,0.0,0.0,-4.3379,-4.4814,-4.6309,-4.8716,-5.2636,-5.2157,-5.1618,0.0,0.0,0.0,0.0,0.0,0.0,-5.4162,0.0,-5.6765,-5.8112,-5.883,-5.9732,-6.0902,-6.1048,-6.0719,-5.9917,-5.9917,-5.8931,-5.6855,-5.6258,-5.5684,-5.5048,-5.4361,-5.3017,-5.1349,-5.184,-5.0627,-4.8298,-4.766,-4.6983,-4.6117,-4.4216,-4.3444,-4.3396,-4.3341,-4.3313,-4.3313,0.0,0.0,0.0,0.0,0.0,0.0,0.0,0.0,0.0,0.0,0.0,0.0,0.0,0.0,0.0,0.0,0.0,0.0,0.0,0.0,0.0,0.0,0.0,0.0,0.0,0.0,0.0,0.0,0.0,-3.0048,-3.0573,-3.1823,-3.2593,-3.2973,-3.3747,-3.3584,-3.2727,-3.315,-3.2563,-3.1182,0.0,-2.9614,-2.8649,0.0,0.0,0.0,0.0,0.0,0.0,0.0,0.0,0.0,0.0,0.0,-3.0345,-3.2198,-3.6716,-4.1803,-4.4945,-5.0032,-5.494,-5.7094,-5.8261,-5.859,-5.7573,-5.5837,-5.3207,-4.8883,-4.3855,-3.9241,0.0,0.0,0.0,-4.0979,-4.5221,0.0,-5.2695,-5.3773,0.0,0.0,0.0,-5.3803,-5.3473,-5.4491,0.0,0.0,-5.5718,-5.6944,-5.877,-5.9967,-5.9974,-5.8578,-6.0215,-5.9948,-5.7561,-5.7561,-5.6246,-5.3641,-5.35,-5.3483,-5.3541,-5.2384,-5.2129,-5.2587,-5.0778,-4.9582,-4.8856,-4.7702,-4.644,-4.5248,-4.3919,-4.2782,-4.1749,-4.0951,-4.0642,-4.0642,0.0,0.0,0.0,0.0,0.0,0.0,0.0,0.0,0.0,0.0,0.0,0.0,0.0,0.0,0.0,0.0,0.0,0.0,0.0,0.0,0.0,0.0,0.0,0.0,0.0,0.0,0.0,0.0,0.0,0.0,0.0,-2.6324,-2.6987,-2.702,-2.7732,-2.7637,-2.6993,-2.735,0.0,0.0,0.0,0.0,0.0,0.0,0.0,0.0,0.0,0.0,0.0,0.0,0.0,-2.7829,-3.064,-3.3095,-3.5517,-3.8302,0.0,-4.6651,-4.9793,-5.3773,-5.7334,-5.865,-5.8411,-5.7244,-5.5029,-5.2007,-4.8147,-4.2731,-3.792,0.0,0.0,0.0,0.0,0.0,0.0,0.0,-4.9923,-5.2237,-5.3367,0.0,-5.3994,0.0,-5.5846,-5.5342,-5.5625,0.0,-5.6249,-5.6054,-5.7143,-5.7763,-5.7513,-5.6271,-5.7714,-5.7628,-5.5676,-5.511,-5.4062,-5.248,-5.1956,-5.1822,-5.1969,-5.0901,-5.044,-5.0427,0.0,-4.8013,-4.6954,-4.613,-4.5178,-4.4072,-4.2918,-4.1819,-4.0902,-4.0275,-3.9898,-3.9697,0.0,0.0,0.0,0.0,0.0,0.0,0.0,0.0,0.0,0.0,0.0,0.0,0.0,0.0,0.0,0.0,0.0,0.0,0.0,0.0,0.0,0.0,0.0,0.0,0.0,0.0,0.0,0.0,0.0,0.0,0.0,0.0,0.0,0.0,0.0,0.0,0.0,0.0,0.0,0.0,0.0,0.0,0.0,0.0,0.0,0.0,0.0,0.0,0.0,0.0,-3.0556,-3.1448,-3.5968,-3.8811,-4.1257,-4.5484,-4.8237,-5.0857,-5.494,-5.7124,-5.8501,-5.9548,-5.7842,-5.5029,-5.1566,-4.7406,-4.2526,-3.6154,0.0,0.0,-2.605,0.0,-2.8935,-3.3888,0.0,-4.0418,-4.6264,-4.9315,-5.1484,-5.2851,-5.3378,-5.4873,-5.7952,-5.5395,-5.5279,-5.944,-5.6495,-5.4681,-5.5154,-5.4676,-5.4437,-5.4524,-5.4671,-5.4523,-5.4116,-5.2935,-5.2188,-5.1847,-5.0755,-5.0294,-5.0408,-4.9611,-4.8567,-4.7243,0.0,0.0,-4.4316,-4.4121,-4.3703,-4.3049,-4.1884,-4.1153,-4.0727,-4.0576,-4.0224,-3.9798,0.0,0.0,0.0,0.0,0.0,0.0,0.0,0.0,0.0,0.0,0.0,0.0,0.0,0.0,0.0,0.0,0.0,0.0,0.0,0.0,0.0,0.0,0.0,0.0,0.0,0.0,0.0,0.0,0.0,0.0,0.0,0.0,0.0,0.0,0.0,0.0,0.0,0.0,0.0,0.0,0.0,0.0,0.0,0.0,0.0,0.0,0.0,0.0,0.0,0.0,-3.3056,-3.6776,-4.0905,-4.3928,-4.6322,-4.8207,-5.093,-5.3653,-5.4999,-5.7124,-5.886,-5.853,-5.6496,-5.3456,-4.9339,-4.3855,0.0,0.0,0.0,-2.4733,-2.3189,-2.5282,0.0,-3.482,0.0,0.0,0.0,0.0,-5.0261,0.0,0.0,0.0,0.0,0.0,0.0,0.0,0.0,0.0,-5.7053,-5.5886,-5.5104,-5.5165,-5.345,-5.25,-5.2394,-5.1762,-5.0541,-4.8697,-4.8023,-4.8151,-4.8824,-4.7734,-4.7702,-4.8452,-4.641,0.0,-4.4758,-4.3676,-4.3148,-4.2966,-4.2292,-4.2011,-4.181,-4.0852,-4.045,-4.03,0.0,0.0,0.0,0.0,0.0,0.0,0.0,0.0,0.0,0.0,-1.2947,0.0,0.0,0.0,0.0,0.0,0.0,0.0,0.0,0.0,0.0,0.0,0.0,0.0,0.0,0.0,0.0,0.0,0.0,0.0,0.0,0.0,0.0,0.0,0.0,0.0,0.0,0.0,0.0,0.0,0.0,0.0,0.0,0.0,0.0,0.0,0.0,0.0,0.0,0.0,-3.1141,-3.5933,-4.2763,-4.6013,-4.7684,-4.9282,-5.1636,-5.403,-5.5355,-5.7363,-5.8949,-5.8291,-5.5359,-5.1173,-4.5683,0.0,0.0,0.0,0.0,-2.1636,-2.0065,0.0,0.0,0.0,0.0,0.0,0.0,0.0,0.0,0.0,0.0,0.0,0.0,0.0,0.0,0.0,0.0,0.0,-5.5407,-5.3779,-5.277,-5.277,-5.1454,-5.0661,-5.0352,-4.9786,-4.8789,-4.7506,-4.6954,-4.6737,-4.692,-4.6354,-4.616,-4.6178,-4.4882,0.0,-4.3085,-4.2987,-4.2635,-4.2158,-4.2459,-4.2464,-4.2112,-4.1254,-4.0752,-4.0425,0.0,0.0,0.0,0.0,0.0,0.0,0.0,-1.2764,-1.2689,-1.2998,-1.2764,-1.2739,-1.3148,-1.3198,0.0,0.0,0.0,0.0,0.0,0.0,0.0,0.0,0.0,0.0,0.0,0.0,0.0,0.0,0.0,0.0,0.0,0.0,0.0,0.0,0.0,0.0,0.0,0.0,0.0,0.0,0.0,0.0,0.0,0.0,0.0,0.0,0.0,0.0,0.0,0.0,-2.7758,-3.2168,-4.0391,-4.4496,-4.6621,-4.8577,-5.0759,-5.3007,-5.5138,-5.6734,-5.7753,-5.7309,-5.3473,-4.8257,-4.232,-3.6037,0.0,0.0,0.0,-2.0013,-1.8404,0.0,0.0,0.0,0.0,0.0,0.0,0.0,0.0,0.0,0.0,0.0,0.0,0.0,0.0,0.0,0.0,0.0,-5.2841,-5.1314,-5.0368,-5.0243,-4.9816,-4.9339,-4.8786,-4.8209,-4.7657,-4.7068,-4.6577,-4.6024,-4.5497,-4.5372,-4.4744,-4.379,-4.3689,0.0,0.0,-4.2534,-4.2333,-4.1401,-4.2534,-4.271,-4.2313,-4.158,-4.1025,-4.0601,0.0,0.0,0.0,0.0,0.0,0.0,0.0,-1.2864,-1.2973,-1.2538,-1.2847,-1.3148,-1.3198,-1.3198,0.0,0.0,0.0,0.0,0.0,0.0,0.0,0.0,0.0,0.0,0.0,0.0,0.0,0.0,0.0,0.0,0.0,0.0,0.0,0.0,0.0,0.0,0.0,0.0,0.0,0.0,0.0,0.0,0.0,0.0,0.0,0.0,0.0,0.0,0.0,0.0,0.0,-2.6457,-3.0899,-3.704,-4.2986,-4.5068,0.0,0.0,-5.3304,-5.4005,-5.4061,-5.4156,-4.9677,-4.4256,-4.0732,0.0,0.0,0.0,-2.0995,-1.9987,-2.0339,-2.1794,0.0,0.0,0.0,0.0,0.0,0.0,0.0,0.0,0.0,0.0,0.0,0.0,0.0,0.0,0.0,0.0,0.0,-5.0509,-5.0193,-4.969,-4.9615,-4.9339,-4.8786,-4.8209,-4.7657,-4.7068,-4.6577,-4.6024,-4.5472,-4.4945,-4.4367,-4.3765,-4.3263,0.0,0.0,-4.2534,-4.2333,-4.1401,-4.2534,-4.2936,-4.276,-4.1731,-4.125,-4.1075,0.0,0.0,0.0,0.0,0.0,0.0,0.0,-1.2789,-1.2764,-1.2864,-1.2789,-1.2839,-1.3173,-1.3198,0.0,0.0,0.0,0.0,0.0,0.0,0.0,0.0,0.0,0.0,0.0,0.0,0.0,0.0,0.0,0.0,0.0,0.0,0.0,0.0,0.0,0.0,0.0,0.0,0.0,0.0,0.0,0.0,0.0,0.0,0.0,0.0,0.0,0.0,0.0,0.0,0.0,0.0,-2.2964,-2.6838,0.0,0.0,-4.2008,-4.5376,-4.8925,-5.143,-5.2764,-5.1706,-4.7661,-4.2602,-3.7236,0.0,0.0,-2.1744,-2.0263,-1.9685,-1.9258,-2.0263,-2.1911,0.0,0.0,0.0,0.0,0.0,0.0,0.0,0.0,0.0,0.0,0.0,0.0,0.0,0.0,0.0,0.0,-5.0619,-5.0167,-4.9615,-4.9264,-4.8837,-4.8259,-4.7707,-4.7179,-4.6627,-4.6426,-4.5849,-4.497,-4.4719,-4.4141,-4.3288,-4.3062,0.0,0.0,-4.2258,-4.1932,-4.0526,-4.2283,-4.2816,-4.2439,-4.163,-4.1075,-4.0727,0.0,0.0,0.0,0.0,0.0,0.0,-1.2734,-1.2705,-1.2714,-1.2922,-1.2772,-1.2789,-1.3148,-1.3198,-1.3198,-1.3198,0.0,0.0,0.0,0.0,0.0,0.0,0.0,0.0,0.0,0.0,0.0,0.0,0.0,0.0,0.0,0.0,0.0,0.0,0.0,0.0,0.0,0.0,0.0,0.0,0.0,0.0,0.0,0.0,0.0,0.0,0.0,0.0,0.0,0.0,0.0,0.0,0.0,0.0,0.0,0.0,-3.6212,-4.0074,-4.4021,-4.743,-4.9599,-4.8464,-4.4575,-3.9681,0.0,0.0,0.0,-2.1078,-2.0037,-1.9635,-1.9032,-1.956,-2.0489,-2.1769,0.0,0.0,0.0,0.0,0.0,0.0,0.0,0.0,0.0,0.0,0.0,0.0,0.0,0.0,0.0,-5.0318,-4.9816,-4.9615,-4.9063,-4.8485,-4.7908,-4.738,-4.6853,-4.6301,-4.6301,-4.5547,-4.4141,-4.4468,-4.384,-4.2509,0.0,0.0,0.0,-4.2208,-4.1882,-4.035,-4.2057,-4.2564,-4.2112,-4.1354,-4.0799,-4.0425,0.0,0.0,0.0,0.0,0.0,0.0,0.0,-1.2552,-1.2998,-1.2488,-1.2864,-1.3198,-1.3198,-1.3198,-1.3198,-1.3198,0.0,0.0,0.0,0.0,0.0,0.0,0.0,0.0,0.0,0.0,0.0,-1.3198,-1.3803,0.0,0.0,0.0,0.0,0.0,0.0,0.0,0.0,0.0,0.0,0.0,0.0,0.0,0.0,0.0,0.0,0.0,0.0,0.0,0.0,0.0,0.0,0.0,0.0,0.0,0.0,0.0,-3.0903,-3.5368,-3.8998,-4.1518,-4.3305,-4.407,-3.9478,-3.4546,0.0,0.0,0.0,-2.1694,-2.0589,-1.9987,-2.0566,-2.0666,-2.1219,-2.2819,-2.3572,0.0,0.0,0.0,0.0,0.0,0.0,0.0,0.0,0.0,0.0,0.0,0.0,0.0,0.0,-4.9389,-4.9038,-4.9565,-4.9063,-4.8485,-4.7908,-4.738,-4.6853,-4.6301,-4.6301,-4.5146,-4.3037,-4.4116,-4.3382,0.0,0.0,0.0,0.0,-4.2534,-4.2333,-4.1326,-4.1957,-4.2213,-4.2087,-4.0927,-4.0526,-4.0425,0.0,0.0,0.0,0.0,0.0,0.0,0.0,0.0,-1.2777,-1.2939,-1.3098,-1.3198,-1.3198,-1.3198,-1.3198,-1.3198,0.0,0.0,0.0,0.0,0.0,0.0,0.0,0.0,0.0,0.0,-1.3391,-1.3803,-1.3997,-1.4475,-1.5185,0.0,0.0,0.0,0.0,0.0,0.0,0.0,0.0,0.0,0.0,0.0,0.0,0.0,0.0,0.0,0.0,0.0,0.0,0.0,0.0,0.0,0.0,0.0,0.0,-2.0347,0.0,0.0,-3.2634,-3.4882,-3.6197,-3.6075,-3.336,-3.0198,-2.8036,0.0,-2.2017,-2.0161,-1.9811,-1.9761,-1.9585,-1.9836,-2.074,-2.2769,-2.3271,0.0,0.0,0.0,0.0,0.0,0.0,0.0,0.0,0.0,0.0,0.0,0.0,0.0,0.0,-4.8786,-4.8435,-4.9012,-4.8134,-4.7556,-4.738,-4.6476,-4.6125,-4.6301,-4.5522,-4.4392,-4.3011,-4.374,0.0,0.0,0.0,0.0,0.0,-4.2534,-4.2333,-4.1351,-4.1932,-4.1932,-4.1505,-4.0777,-4.0275,-3.9923,0.0,0.0,0.0,0.0,0.0,0.0,0.0,0.0,-1.2597,-1.2903,-1.3094,-1.3198,-1.3198,-1.3198,-1.3198,-1.3198,0.0,0.0,0.0,0.0,0.0,0.0,0.0,0.0,0.0,-1.3198,-1.3391,-1.3752,-1.3997,-1.445,-1.5085,-1.44,-1.4292,0.0,0.0,0.0,0.0,0.0,0.0,0.0,0.0,0.0,-1.4116,0.0,0.0,0.0,0.0,0.0,0.0,0.0,0.0,0.0,0.0,0.0,0.0,0.0,-2.0087,0.0,0.0,-2.993,-3.1436,-3.106,-2.9302,0.0,0.0,0.0,-2.1292,-1.9936,-1.9911,-2.0037,-1.971,-1.9911,-2.0589,-2.197,0.0,0.0,0.0,0.0,0.0,0.0,0.0,0.0,0.0,0.0,0.0,0.0,0.0,0.0,0.0,0.0,-4.7682,-4.7832,-4.7179,-4.6928,-4.7068,-4.5824,-4.5447,-4.5999,-4.507,-4.394,-4.274,-4.3463,0.0,0.0,0.0,0.0,0.0,-4.2685,-4.2459,-4.1656,-4.1781,-4.1505,-4.0899,-4.04,-3.9998,-3.9697,0.0,0.0,0.0,0.0,0.0,0.0,0.0,0.0,0.0,0.0,0.0,-1.3198,-1.3198,-1.3198,0.0,0.0,0.0,0.0,0.0,0.0,0.0,0.0,0.0,0.0,0.0,-1.3198,-1.3223,-1.3248,-1.3853,-1.4191,-1.4217,-1.4249,-1.4242,-1.4123,-1.3584,-1.3273,-1.3198,-1.3198,-1.3198,-1.3248,-1.3803,-1.4022,0.0,0.0,0.0,0.0,0.0,0.0,0.0,0.0,0.0,0.0,0.0,0.0,0.0,0.0,0.0,0.0,0.0,0.0,0.0,0.0,0.0,0.0,0.0,0.0,0.0,-2.0641,-2.0666,-2.0691,-2.0691,-2.0767,-2.0842,0.0,0.0,0.0,0.0,0.0,0.0,0.0,0.0,0.0,0.0,0.0,0.0,0.0,0.0,0.0,0.0,0.0,-4.6753,-4.62,-4.615,-4.6401,-4.6892,-4.5372,-4.4819,-4.5296,-4.4769,-4.3639,-4.2137,-4.3212,0.0,0.0,0.0,0.0,0.0,-4.2861,-4.2615,-4.2112,-4.1505,-4.0924,-4.045,-3.9898,-3.9697,-3.9697,0.0,0.0,0.0,0.0,0.0,0.0,0.0,0.0,0.0,0.0,0.0,-1.3198,-1.3198,-1.3198,0.0,0.0,0.0,0.0,0.0,0.0,0.0,0.0,0.0,0.0,0.0,-1.3198,-1.3416,-1.3896,-1.445,-1.4909,-1.5336,-1.5743,-1.5512,-1.4702,-1.4557,-1.4011,-1.3198,-1.3198,-1.3198,-1.3198,-1.3341,-1.3416,0.0,0.0,0.0,0.0,-1.4123,-1.4626,0.0,0.0,0.0,0.0,0.0,0.0,0.0,0.0,-1.7024,-1.7649,-1.8807,0.0,-2.0688,-2.0688,0.0,0.0,0.0,0.0,0.0,0.0,0.0,0.0,0.0,0.0,0.0,0.0,0.0,0.0,0.0,0.0,0.0,0.0,0.0,0.0,0.0,0.0,0.0,0.0,0.0,0.0,0.0,-4.6175,-4.5623,-4.5045,-4.4618,-4.4669,-4.5196,-4.4392,-4.384,-4.3564,-4.3438,-4.2509,-4.0953,-4.2484,0.0,0.0,0.0,0.0,-4.1731,-4.1731,-4.1656,-4.148,-4.0927,-4.0626,-4.045,-3.9898,-3.9697,-3.9697,0.0,0.0,0.0,0.0,0.0,0.0,0.0,0.0,0.0,0.0,0.0,0.0,0.0,0.0,0.0,0.0,0.0,0.0,0.0,0.0,0.0,0.0,0.0,0.0,-1.3198,-1.3198,-1.3509,-1.4116,-1.4651,-1.5035,-1.5361,-1.5894,-1.5693,-1.4884,-1.4651,-1.4054,-1.3198,-1.3198,-1.3198,-1.3198,-1.3198,0.0,0.0,0.0,0.0,0.0,-1.3896,-1.4292,0.0,-1.5718,-1.6095,-1.622,0.0,0.0,0.0,0.0,-1.6748,-1.6974,-1.6974,-1.7928,-1.9058,-1.9585,-1.9736,-1.9911,0.0,0.0,0.0,0.0,0.0,0.0,0.0,0.0,0.0,0.0,0.0,0.0,0.0,0.0,0.0,0.0,0.0,0.0,0.0,0.0,0.0,0.0,0.0,0.0,0.0,-4.5246,-4.4819,-4.4267,-4.3966,-4.4066,-4.4618,-4.3815,-4.3011,-4.2233,-4.2484,-4.1731,-4.0199,-4.158,-4.1731,0.0,0.0,0.0,-4.125,-4.0802,-4.0727,-4.0874,-4.0626,-4.035,-4.0099,-3.9798,-3.9697,-3.9697,0.0,0.0,0.0,0.0,0.0,0.0,0.0,0.0,0.0,0.0,0.0,0.0,0.0,0.0,0.0,0.0,0.0,0.0,0.0,0.0,0.0,0.0,0.0,-1.3198,-1.3198,-1.3198,-1.3441,-1.3946,-1.4657,-1.5009,-1.5035,-1.5819,-1.5819,-1.511,-1.44,-1.3752,-1.3198,-1.3198,-1.3198,-1.3198,-1.3198,0.0,0.0,0.0,0.0,0.0,0.0,0.0,0.0,-1.5793,-1.6019,-1.5869,-1.6845,0.0,0.0,0.0,0.0,0.0,-1.6701,-1.8329,-2.0112,-2.0815,-2.0842,-2.0943,-2.1845,0.0,0.0,0.0,0.0,0.0,0.0,0.0,0.0,0.0,0.0,0.0,0.0,0.0,0.0,0.0,0.0,0.0,0.0,0.0,0.0,0.0,0.0,0.0,0.0,-4.4493,-4.4192,-4.3564,-4.3539,-4.374,-4.4116,-4.3288,-4.2258,-4.105,-4.1731,-4.1204,-3.9747,-4.0774,-4.125,0.0,0.0,0.0,-4.0974,-4.0074,-3.9973,-4.04,-4.04,-4.0099,-3.9697,-3.9697,-3.9697,-3.9697,0.0,0.0,0.0,0.0,0.0,0.0,0.0,0.0,0.0,0.0,0.0,0.0,0.0,0.0,0.0,0.0,0.0,0.0,0.0,0.0,0.0,0.0,-1.3198,-1.3198,-1.3198,-1.3198,-1.3248,-1.3341,-1.4839,-1.5567,-1.5618,-1.7578,-1.7679,-1.6195,-1.4733,-1.3752,-1.3198,-1.3198,-1.3198,-1.3198,-1.3198,0.0,0.0,0.0,0.0,0.0,0.0,0.0,0.0,-1.506,-1.5412,-1.5718,-1.5894,0.0,0.0,0.0,0.0,0.0,-1.7677,-1.9208,-2.0264,-1.9007,-1.9711,-2.0742,-2.0918,0.0,0.0,0.0,0.0,0.0,0.0,0.0,0.0,0.0,0.0,0.0,0.0,0.0,0.0,0.0,0.0,0.0,0.0,0.0,0.0,0.0,0.0,0.0,0.0,0.0,-4.3463,-4.2489,-4.2464,-4.2233,-4.1802,-4.2133,-4.1505,-3.9948,-4.0978,-4.0852,-3.9747,-4.0774,-4.1025,0.0,0.0,-4.0224,-3.9923,-3.9772,-3.9747,-3.9823,-3.9823,-3.9772,-3.9697,-3.9697,-3.9697,-3.9697,0.0,0.0,0.0,0.0,0.0,0.0,0.0,0.0,0.0,0.0,0.0,0.0,0.0,0.0,0.0,0.0,0.0,0.0,0.0,0.0,0.0,-1.3198,-1.3198,-1.3198,-1.3198,-1.3534,-1.3828,-1.4111,-1.5467,-1.6296,-1.6622,-1.735,-1.6751,-1.516,-1.4425,-1.3752,-1.3198,-1.3198,-1.3198,-1.3198,0.0,0.0,0.0,0.0,0.0,0.0,0.0,0.0,0.0,0.0,-1.5512,-1.5743,-1.6045,0.0,0.0,0.0,0.0,0.0,-1.7127,-1.8505,-1.9736,-1.961,-2.079,-2.2221,-2.3125,0.0,0.0,0.0,0.0,0.0,0.0,0.0,0.0,0.0,0.0,0.0,0.0,0.0,0.0,0.0,0.0,0.0,0.0,0.0,0.0,0.0,0.0,0.0,0.0,0.0,-4.2534,-4.1731,-4.1706,-4.1455,-4.0849,-4.1128,-4.0576,-3.927,-4.0375,-4.0149,-3.8818,-3.9948,-4.03,-4.0049,0.0,-3.9371,-3.9647,-3.9044,-3.9145,-3.9697,-3.9697,-3.9697,-3.9697,-3.9697,-3.9697,-3.9697,0.0,0.0,0.0,0.0,0.0,0.0,0.0,0.0,0.0,0.0,0.0,0.0,0.0,0.0,0.0,0.0,0.0,0.0,0.0,0.0,-1.3198,-1.3198,-1.3198,-1.3198,-1.3198,-1.3778,-1.4299,-1.4727,-1.5919,-1.6823,-1.7398,-1.6798,-1.5693,-1.4274,-1.4166,-1.3752,-1.3198,-1.3198,-1.3273,-1.3416,0.0,0.0,0.0,0.0,0.0,0.0,0.0,0.0,0.0,0.0,0.0,0.0,0.0,0.0,0.0,-1.65,-1.65,-1.655,-1.6826,-1.8005,-1.9434,-2.044,0.0,-2.3276,-2.5335,0.0,0.0,0.0,0.0,0.0,0.0,0.0,0.0,0.0,0.0,0.0,0.0,0.0,0.0,0.0,0.0,0.0,0.0,0.0,0.0,0.0,0.0,0.0,0.0,0.0,-4.1706,-4.1125,-4.11,-4.0877,-4.0325,-4.0325,-3.9898,-3.9069,-3.9923,-3.9647,-3.8442,-3.9295,-3.9697,-3.9647,-3.8768,-3.8894,-3.9622,-3.8768,-3.8919,-3.9697,-3.9697,-3.9697,-3.9697,-3.9697,-3.9697,-3.9697,0.0,0.0,0.0,0.0,0.0,0.0,0.0,0.0,0.0,0.0,0.0,0.0,0.0,0.0,0.0,0.0,0.0,0.0,0.0,0.0,-1.3198,-1.3198,-1.3198,-1.3198,-1.3198,-1.3778,-1.4116,-1.4166,-1.5718,-1.6823,-1.7398,-1.6798,-1.5919,-1.4828,-1.4324,-1.3752,-1.3198,-1.3198,-1.3534,-1.4022,-1.4022,0.0,0.0,0.0,0.0,0.0,0.0,0.0,0.0,0.0,0.0,0.0,0.0,0.0,-1.65,-1.65,-1.65,-1.6726,-1.7802,-1.8882,-1.9886,-2.0541,-2.1169,0.0,-2.5695,-2.5485,0.0,0.0,0.0,0.0,0.0,0.0,0.0,0.0,0.0,0.0,0.0,0.0,0.0,0.0,0.0,0.0,0.0,0.0,0.0,0.0,0.0,0.0,0.0,0.0,0.0,-4.0601,-4.0576,-4.03,-3.9747,-3.9747,-3.9722,-3.9647,-3.9722,-3.9697,-3.9572,-3.9647,-3.9697,-3.9697,-3.9597,-3.9622,-3.9697,-3.9597,-3.9622,-3.9697,-3.9697,-3.9697,-3.9697,-3.9697,-3.9697,-3.9697,0.0,0.0,0.0,0.0,0.0,0.0,0.0,0.0,0.0,0.0,0.0,0.0,0.0,0.0,0.0,0.0,0.0,0.0,0.0,0.0,-1.3198,-1.3198,-1.3198,-1.3198,-1.3198,-1.3778,-1.3921,-1.3534,-1.5191,-1.5944,-1.5839,-1.5613,-1.4915,-1.3817,-1.3634,-1.3609,-1.3752,-1.3752,-1.3896,-1.4141,-1.445,-1.4727,0.0,0.0,0.0,0.0,0.0,0.0,0.0,0.0,-1.5517,-1.5743,0.0,0.0,-1.65,-1.65,-1.65,-1.6575,-1.7027,-1.8455,-2.0012,-2.0968,-2.1594,0.0,0.0,-2.664,-2.7394,0.0,0.0,0.0,0.0,0.0,0.0,0.0,0.0,0.0,0.0,0.0,0.0,0.0,0.0,0.0,0.0,0.0,0.0,0.0,0.0,0.0,0.0,0.0,0.0,-4.0023,-3.9998,-3.9747,-3.9195,-3.917,-3.917,-3.9195,-3.9521,-3.9697,-3.9697,-3.9697,-3.9697,-3.9697,-3.9697,-3.9697,-3.9697,-3.9697,-3.9697,-3.9697,-3.9697,-3.9697,-3.9697,-3.9697,-3.9697,-3.9697,0.0,0.0,0.0,0.0,0.0,0.0,0.0,0.0,0.0,0.0,0.0,0.0,0.0,0.0,0.0,0.0,0.0,0.0,0.0,-1.3198,-1.3198,-1.3198,-1.3198,-1.3123,-1.2947,-1.3509,-1.3702,-1.3483,-1.4789,-1.516,-1.4651,-1.4828,-1.4406,-1.3509,-1.3667,-1.3979,-1.4349,-1.4349,-1.445,-1.4651,-1.4984,-1.5261,0.0,0.0,0.0,0.0,0.0,0.0,0.0,0.0,0.0,0.0,0.0,0.0,0.0,0.0,-1.65,-1.65,-1.65,-1.7877,-1.961,0.0,0.0,0.0,0.0,0.0,0.0,0.0,0.0,0.0,0.0,0.0,0.0,0.0,0.0,0.0,0.0,0.0,0.0,0.0,0.0,0.0,0.0,0.0,0.0,0.0,0.0,0.0,0.0,0.0,0.0,0.0,-3.9521,-3.9245,-3.8919,-3.8693,-3.8592,-3.8592,-3.8994,-3.9245,-3.9446,-3.9622,-3.9597,-3.9446,-3.9622,-3.9697,-3.9697,-3.9697,-3.9697,-3.9697,-3.9697,-3.9697,-3.9697,-3.9697,-3.9697,-3.9697,0.0,0.0,0.0,0.0,0.0,0.0,0.0,0.0,0.0,0.0,0.0,0.0,0.0,0.0,0.0,0.0,0.0,0.0,-1.3198,-1.3198,-1.3198,-1.3198,-1.3198,-1.2947,-1.2413,-1.2939,-1.3509,-1.4091,-1.4626,-1.4601,-1.4116,-1.4651,-1.4601,-1.4116,-1.4676,-1.4928,-1.4928,-1.4909,-1.5211,-1.5693,-1.5693,-1.6019,-1.6475,0.0,0.0,0.0,0.0,0.0,0.0,0.0,-1.445,0.0,0.0,0.0,0.0,0.0,-1.65,-1.65,-1.65,-1.7328,0.0,0.0,0.0,0.0,0.0,0.0,0.0,0.0,0.0,0.0,0.0,0.0,0.0,0.0,0.0,0.0,0.0,0.0,0.0,0.0,0.0,0.0,0.0,0.0,0.0,0.0,0.0,0.0,0.0,0.0,0.0,0.0,-3.9145,-3.8919,-3.8894,-3.8291,-3.799,-3.799,-3.799,-3.8291,-3.8919,-3.9421,-3.9371,-3.8944,-3.9446,-3.9672,-3.9672,-3.9672,-3.9672,-3.9672,-3.9697,-3.9697,-3.9697,-3.9697,-3.9697,-3.9697,0.0,0.0,0.0,0.0,0.0,0.0,0.0,0.0,0.0,0.0,0.0,0.0,0.0,0.0,0.0,0.0,0.0,0.0,-1.3198,-1.3198,-1.3198,-1.3198,-1.3198,-1.3123,-1.2973,-1.3123,-1.329,-1.3483,-1.3616,-1.3616,-1.3483,-1.4072,-1.4249,-1.4141,-1.506,-1.5462,-1.5487,-1.5869,-1.5894,-1.5718,-1.612,-1.6145,-1.5994,0.0,0.0,0.0,0.0,0.0,0.0,0.0,0.0,0.0,0.0,0.0,0.0,-1.6948,-1.7124,-1.7225,-1.7601,-1.8205,0.0,0.0,0.0,0.0,0.0,0.0,0.0,0.0,0.0,0.0,0.0,0.0,0.0,0.0,0.0,0.0,0.0,0.0,0.0,0.0,0.0,0.0,0.0,0.0,0.0,0.0,0.0,0.0,0.0,0.0,0.0,0.0,-3.8341,-3.809,-3.7688,-3.7513,-3.7437,-3.7437,-3.7437,-3.7713,-3.8266,-3.8442,-3.8417,-3.8266,-3.8442,-3.8492,-3.8492,-3.8492,-3.8492,-3.8542,-3.8944,-3.912,-3.912,-3.912,-3.9371,-3.9647,0.0,0.0,0.0,0.0,0.0,0.0,0.0,0.0,0.0,0.0,0.0,0.0,0.0,0.0,0.0,0.0,0.0,0.0,0.0,0.0,-1.3198,-1.3198,-1.3198,-1.3198,-1.3198,-1.3198,-1.3198,-1.3198,-1.3198,-1.3315,-1.3559,-1.4148,-1.4525,-1.4777,-1.5618,-1.6019,-1.6045,-1.635,-1.63,-1.6045,-1.6375,-1.63,-1.6045,0.0,0.0,0.0,0.0,0.0,0.0,0.0,0.0,0.0,0.0,0.0,0.0,-1.6672,-1.6895,-1.7174,-1.7727,0.0,0.0,0.0,0.0,0.0,0.0,0.0,0.0,0.0,0.0,0.0,0.0,0.0,0.0,0.0,0.0,0.0,0.0,0.0,0.0,0.0,0.0,0.0,0.0,0.0,0.0,0.0,0.0,0.0,0.0,0.0,0.0,0.0,-3.7789,-3.7513,-3.7186,-3.696,-3.6908,-3.6908,-3.6908,-3.7036,-3.7362,-3.7814,-3.7889,-3.7688,-3.7914,-3.8015,-3.8015,-3.8015,-3.8015,-3.804,-3.8391,-3.8517,-3.8517,-3.8517,-3.8894,-3.932,0.0,0.0,0.0,0.0,0.0,0.0,0.0,0.0,0.0,0.0,0.0,0.0,0.0,0.0,0.0,0.0,0.0,0.0,0.0,0.0,-1.3198,-1.3198,-1.3198,-1.3198,-1.3198,-1.3198,-1.3198,-1.3198,-1.3198,-1.3509,-1.4116,-1.4651,-1.5185,-1.5718,-1.6321,-1.655,-1.65,-1.655,-1.655,-1.65,-1.65,-1.65,-1.65,-1.65,0.0,0.0,0.0,0.0,0.0,0.0,0.0,0.0,0.0,0.0,-1.6421,-1.5969,-1.6245,-1.6798,0.0,0.0,0.0,0.0,0.0,0.0,0.0,0.0,0.0,0.0,0.0,0.0,0.0,0.0,0.0,0.0,0.0,0.0,0.0,0.0,0.0,0.0,0.0,0.0,0.0,0.0,0.0,0.0,0.0,0.0,0.0,0.0,0.0,0.0,-3.7362,-3.7111,-3.7111,-3.6606,-3.6355,0.0,-3.6355,-3.6355,-3.643,-3.7387,-3.7588,-3.7136,-3.7638,-3.7864,-3.7864,-3.7864,-3.7864,-3.7864,-3.7914,-3.7939,-3.7939,-3.7939,-3.8291,-3.8844,0.0,0.0,0.0,0.0,0.0,0.0,0.0,0.0,0.0,0.0,0.0,0.0,0.0,0.0,0.0,0.0,0.0,0.0,0.0,0.0,-1.3198,-1.3198,-1.3198,-1.3198,-1.3198,-1.3198,-1.3198,-1.3198,-1.3198,-1.3509,-1.4116,-1.4651,-1.5185,-1.5743,-1.6769,-1.6948,-1.6525,-1.6999,-1.6923,-1.65,-1.65,-1.65,-1.65,-1.65,-1.6425,0.0,0.0,0.0,0.0,0.0,0.0,0.0,-1.5517,-1.607,-1.6575,-1.6923,-1.74,-1.8053,0.0,0.0,0.0,0.0,0.0,0.0,0.0,0.0,0.0,0.0,0.0,0.0,0.0,0.0,0.0,0.0,0.0,0.0,0.0,0.0,0.0,0.0,0.0,0.0,0.0,0.0,0.0,0.0,0.0,0.0,0.0,0.0,0.0,-3.6757,-3.6656,-3.6581,-3.6581,-3.6006,-3.5931,0.0,-3.5931,-3.5956,-3.6405,-3.6656,-3.6707,-3.6581,-3.6707,-3.6757,-3.6757,-3.6757,-3.6757,-3.6807,-3.7186,-3.7362,-3.7362,-3.7362,-3.7713,-3.814,0.0,0.0,0.0,0.0,0.0,0.0,0.0,0.0,0.0,0.0,0.0,0.0,0.0,0.0,0.0,0.0,0.0,0.0,0.0,0.0,0.0,-1.3198,-1.3198,-1.3198,-1.3198,-1.3198,-1.3198,-1.3198,-1.3509,-1.3928,0.0,0.0,-1.5739,-1.6522,-1.7146,-1.7247,-1.6923,-1.6948,-1.6798,-1.65,-1.65,-1.65,-1.65,-1.65,-1.65,-1.645,-1.6195,0.0,0.0,0.0,0.0,0.0,0.0,0.0,-1.6873,-1.6647,-1.6974,-1.7576,0.0,0.0,0.0,0.0,0.0,0.0,0.0,0.0,0.0,0.0,0.0,0.0,0.0,0.0,0.0,0.0,0.0,0.0,0.0,0.0,0.0,0.0,0.0,0.0,0.0,0.0,0.0,0.0,0.0,0.0,0.0,-3.573,-3.5579,-3.5579,-3.5579,-3.5579,-3.5579,-3.5257,-3.5257,-3.5579,-3.5278,-3.5303,-3.5604,-3.6179,-3.6405,-3.6405,-3.6405,-3.6405,-3.6405,-3.6405,-3.6405,-3.643,-3.6732,-3.6832,-3.6832,-3.6832,-3.7136,-3.7563,0.0,0.0,0.0,0.0,0.0,0.0,0.0,0.0,0.0,0.0,0.0,0.0,0.0,0.0,0.0,0.0,0.0,0.0,0.0,0.0,0.0,-1.3198,-1.3198,-1.3198,-1.3198,-1.3315,-1.3366,-1.3366,-1.3954,0.0,0.0,0.0,0.0,-1.7526,-1.7448,-1.7348,-1.72,-1.6701,-1.65,-1.65,-1.65,-1.65,-1.65,-1.65,-1.65,-1.65,-1.65,-1.65,-1.65,-1.65,0.0,0.0,0.0,0.0,-1.7049,-1.612,-1.6245,-1.6776,0.0,0.0,0.0,0.0,0.0,0.0,0.0,0.0,0.0,0.0,0.0,0.0,0.0,0.0,0.0,0.0,0.0,0.0,0.0,0.0,0.0,0.0,0.0,0.0,0.0,0.0,0.0,0.0,0.0,0.0,-3.468,-3.468,-3.468,-3.468,-3.468,-3.4675,-3.4575,-3.4474,-3.4474,-3.4575,-3.4675,-3.468,-3.4705,-3.5655,-3.6128,-3.6128,-3.6128,-3.6128,-3.6128,-3.6128,-3.6128,-3.6128,-3.6229,-3.6254,-3.6279,-3.638,-3.6707,-3.7036,0.0,0.0,0.0,0.0,0.0,0.0,0.0,0.0,0.0,0.0,0.0,0.0,0.0,0.0,0.0,0.0,0.0,0.0,-1.3198,0.0,0.0,-1.3198,-1.3198,-1.3198,-1.3198,-1.3702,-1.3972,-1.3972,0.0,0.0,0.0,0.0,0.0,-1.8078,0.0,-1.7099,-1.66,-1.6525,-1.65,-1.65,-1.65,-1.65,-1.65,-1.65,-1.65,-1.65,-1.65,-1.65,-1.65,-1.65,-1.65,0.0,0.0,0.0,-1.6575,-1.6425,-1.6823,0.0,0.0,0.0,0.0,0.0,0.0,0.0,0.0,0.0,0.0,0.0,0.0,0.0,0.0,0.0,0.0,0.0,0.0,0.0,0.0,0.0,0.0,0.0,0.0,0.0,0.0,0.0,0.0,0.0,0.0,0.0,-3.468,-3.468,-3.468,-3.468,-3.468,-3.45,-3.4022,-3.3545,-3.3545,-3.4022,-3.45,-3.468,-3.4726,-3.4876,-3.4951,-3.4951,-3.4951,-3.4951,-3.4951,-3.4951,-3.4951,-3.4977,-3.5433,-3.5608,-3.5658,-3.6182,-3.6455,-3.6505,0.0,0.0,0.0,0.0,0.0,0.0,0.0,0.0,0.0,0.0,0.0,0.0,0.0,0.0,0.0,-1.3198,-1.3198,-1.3198,-1.3198,-1.3198,-1.3198,-1.3198,-1.3198,-1.3198,-1.3198,-1.3778,-1.4116,-1.4116,0.0,0.0,0.0,-1.8455,-1.8957,0.0,0.0,0.0,0.0,0.0,0.0,-1.65,-1.65,0.0,-1.65,-1.65,-1.65,-1.65,-1.65,-1.65,-1.65,-1.65,-1.65,-1.65,-1.65,0.0,0.0,0.0,-1.6697,0.0,0.0,0.0,0.0,0.0,0.0,0.0,0.0,0.0,0.0,0.0,0.0,0.0,0.0,0.0,0.0,0.0,0.0,0.0,0.0,0.0,0.0,0.0,0.0,0.0,0.0,0.0,0.0,0.0,0.0,-3.347,-3.3796,-3.3495,-3.347,-3.3796,-3.3495,-3.3194,-3.2968,-3.2416,-3.2265,-3.2491,-3.2742,-3.2867,-3.2867,-3.3169,-3.3822,-3.468,-3.468,-3.468,-3.468,-3.468,-3.468,-3.4731,-3.5282,-3.5508,-3.5558,-3.6157,-3.6405,-3.6405,0.0,0.0,0.0,0.0,0.0,0.0,0.0,0.0,0.0,0.0,0.0,0.0,0.0,0.0,0.0,0.0,-1.3198,-1.3198,-1.3198,-1.3198,-1.3198,-1.3198,-1.3341,-1.3416,-1.3416,-1.413,-1.45,0.0,0.0,0.0,-1.9033,-1.9861,-2.0765,0.0,-2.1418,0.0,0.0,0.0,0.0,0.0,0.0,0.0,-1.65,-1.65,-1.65,-1.65,-1.65,-1.65,-1.65,-1.65,-1.65,-1.65,-1.65,-1.65,0.0,0.0,0.0,0.0,0.0,0.0,0.0,0.0,0.0,0.0,0.0,0.0,0.0,0.0,0.0,0.0,0.0,0.0,0.0,0.0,0.0,0.0,0.0,0.0,0.0,0.0,0.0,0.0,0.0,0.0,0.0,0.0,0.0,-3.219,-3.2616,-3.224,-3.2215,-3.2641,-3.224,-3.1938,-3.1813,-3.1411,-3.1185,-3.1185,-3.1336,-3.1386,-3.1411,-3.1813,-3.2692,-3.3897,-3.4173,-3.4299,-3.4299,-3.4299,-3.4299,-3.4349,-3.4856,-3.5182,-3.5332,-3.578,-3.6179,-3.638,0.0,0.0,0.0,0.0,0.0,0.0,0.0,0.0,0.0,0.0,0.0,0.0,-1.3198,-1.3198,-1.3198,-1.3198,-1.3198,-1.3198,-1.3198,-1.3198,-1.3198,-1.3198,-1.3752,0.0,-1.4065,-1.5085,0.0,0.0,0.0,0.0,-1.9033,-2.0665,-2.1719,-2.2221,-2.1194,-2.039,-1.9685,0.0,0.0,0.0,0.0,0.0,0.0,0.0,0.0,0.0,0.0,0.0,-1.65,-1.65,-1.65,-1.65,-1.65,-1.65,-1.65,0.0,0.0,0.0,0.0,0.0,0.0,0.0,0.0,0.0,0.0,0.0,0.0,0.0,0.0,0.0,0.0,0.0,0.0,0.0,0.0,0.0,0.0,0.0,0.0,0.0,0.0,0.0,0.0,0.0,0.0,0.0,0.0,-3.1461,-3.1486,-3.1461,-3.1461,-3.1486,-3.1461,-3.121,-3.0708,-3.0658,-3.0658,-3.0658,-3.116,-3.1386,-3.1386,-3.1411,-3.1486,-3.1612,-3.2692,-3.3169,-3.3169,-3.3169,-3.3169,-3.3262,-3.3771,-3.4299,-3.4731,-3.4801,-3.5454,-3.6329,0.0,0.0,0.0,0.0,0.0,0.0,0.0,0.0,0.0,0.0,0.0,0.0,0.0,-1.3198,-1.3198,-1.3198,-1.3198,-1.3198,-1.3198,-1.3198,-1.3366,-1.3752,-1.3972,-1.4267,-1.4601,-1.5336,0.0,0.0,0.0,-1.7177,-1.853,-1.9434,-2.0388,-2.132,-2.2376,-2.1923,-2.0365,-1.9962,0.0,0.0,0.0,0.0,0.0,0.0,0.0,0.0,0.0,0.0,0.0,-1.6626,-1.65,-1.65,-1.65,-1.65,-1.65,-1.65,-1.65,0.0,0.0,0.0,0.0,0.0,0.0,0.0,0.0,0.0,0.0,0.0,0.0,0.0,0.0,0.0,0.0,0.0,0.0,0.0,0.0,0.0,0.0,0.0,0.0,0.0,0.0,0.0,0.0,0.0,0.0,0.0,-3.1361,-3.0733,-3.0683,-3.1361,-3.106,-3.0633,-3.008,-3.008,-3.008,-3.008,-3.0281,-3.0357,-3.0382,-3.0733,-3.0884,-3.0934,-3.1662,-3.219,-3.2516,-3.2516,-3.2742,-3.3144,-3.3696,-3.4022,-3.4248,-3.46,-3.4977,-3.5328,0.0,0.0,0.0,0.0,0.0,0.0,0.0,0.0,0.0,-1.2685,0.0,0.0,0.0,0.0,-1.3042,-1.3181,-1.3198,-1.329,-1.3509,-1.3509,-1.3778,-1.4349,-1.4551,-1.4783,-1.516,-1.5693,0.0,0.0,0.0,0.0,0.0,-1.8381,-1.9133,-1.9937,-2.1769,-2.2071,0.0,0.0,0.0,-1.9334,0.0,0.0,-1.8254,0.0,0.0,0.0,0.0,0.0,0.0,0.0,0.0,0.0,-1.6873,-1.6651,-1.65,-1.65,-1.65,0.0,0.0,0.0,0.0,0.0,0.0,0.0,0.0,0.0,0.0,0.0,0.0,0.0,0.0,0.0,0.0,0.0,0.0,0.0,0.0,0.0,0.0,0.0,0.0,0.0,0.0,0.0,0.0,0.0,0.0,0.0,-3.0809,-3.0181,-3.0131,-3.0834,-3.0507,-3.0156,-2.9804,-2.9804,-2.9804,-2.9804,-2.9804,-2.9804,-2.9804,-3.0181,-3.0331,-3.0357,-3.0708,-3.1361,-3.2215,-3.2215,-3.2566,-3.3162,-3.347,-3.3746,-3.3922,-3.4098,-3.4399,-3.4731,0.0,0.0,0.0,0.0,0.0,0.0,0.0,0.0,-1.2808,-1.195,0.0,0.0,0.0,0.0,0.0,-1.3213,-1.3248,-1.3509,-1.4091,-1.4116,-1.4349,-1.4884,-1.5437,-1.5693,-1.5718,-1.6224,0.0,0.0,0.0,0.0,0.0,0.0,-1.8154,-1.8229,-1.9284,-2.0665,-2.2146,0.0,-2.0993,-2.1267,0.0,-1.9359,-1.9811,0.0,0.0,0.0,-2.1041,-2.074,0.0,0.0,0.0,0.0,0.0,0.0,-1.65,-1.65,0.0,0.0,0.0,0.0,0.0,0.0,0.0,0.0,0.0,0.0,0.0,0.0,0.0,0.0,0.0,0.0,0.0,0.0,0.0,0.0,0.0,0.0,0.0,0.0,0.0,0.0,0.0,0.0,0.0,0.0,0.0,-2.9779,-2.9804,-2.9779,-2.9779,-2.9804,-2.9779,-2.9779,-2.9804,-2.9804,-2.9804,-2.9804,-2.9804,-2.9804,-2.9804,-2.9804,-2.9804,-2.9804,-2.9804,-3.0708,-3.2164,-3.2164,-3.2516,-3.3043,-3.3043,-3.3395,-3.3796,-3.3269,-3.3746,-3.4675,0.0,0.0,0.0,0.0,0.0,0.0,0.0,-1.1356,-1.1781,0.0,0.0,0.0,-1.3611,-1.3995,-1.4281,-1.4412,-1.4431,-1.4507,-1.4676,-1.4676,-1.4928,-1.5462,-1.5618,-1.5894,-1.6271,-1.6425,0.0,0.0,0.0,0.0,0.0,0.0,0.0,0.0,-1.8329,-1.9133,-1.9961,-2.0891,0.0,0.0,-2.1189,-2.0613,0.0,0.0,0.0,0.0,0.0,-2.0062,0.0,0.0,-1.9208,-1.8607,0.0,0.0,0.0,0.0,0.0,0.0,-1.65,0.0,0.0,0.0,0.0,0.0,0.0,0.0,0.0,0.0,0.0,0.0,0.0,0.0,0.0,0.0,0.0,0.0,0.0,0.0,0.0,0.0,0.0,0.0,0.0,0.0,0.0,0.0,-2.9402,-2.9352,-2.9779,-2.9402,-2.9352,-2.9779,-2.9377,-2.9377,-2.9804,-2.9804,-2.9804,-2.9804,-2.9804,-2.9804,-2.9804,-2.9804,-2.9804,-2.9804,-2.9804,-3.0281,-3.106,-3.106,-3.1612,-3.2466,-3.2466,-3.2792,-3.3294,-3.3144,-3.3269,-3.3596,0.0,0.0,0.0,0.0,0.0,0.0,0.0,-1.1318,-1.1714,0.0,0.0,0.0,-1.3303,-1.3781,-1.4233,-1.4494,-1.4533,-1.473,-1.5191,-1.5236,-1.5467,-1.6019,-1.6045,-1.6195,-1.6475,-1.65,0.0,0.0,0.0,0.0,0.0,0.0,0.0,0.0,0.0,0.0,0.0,0.0,0.0,0.0,-2.1139,0.0,0.0,-2.1945,-2.1794,0.0,0.0,0.0,-2.1794,-2.1091,-2.0188,0.0,0.0,0.0,0.0,0.0,0.0,0.0,0.0,0.0,0.0,0.0,0.0,0.0,0.0,-1.6876,0.0,0.0,0.0,0.0,0.0,0.0,0.0,0.0,0.0,0.0,0.0,0.0,0.0,0.0,0.0,0.0,0.0,0.0,0.0,-2.9101,-2.8775,-2.8725,-2.9076,-2.8976,-2.8976,-2.9076,-2.8976,-2.8849,-2.8762,-2.9197,-2.9297,-2.9106,-2.9585,-2.9804,-2.9804,-2.9804,-2.9804,-2.9804,-2.9804,-2.998,-3.0281,-3.0281,-3.0909,-3.1888,-3.2114,-3.2416,-3.2742,-3.2993,-3.3111,-3.3169,0.0,0.0,0.0,0.0,0.0,0.0,0.0,-1.1735,-1.2175,0.0,-1.1836,-1.2046,-1.2531,-1.2892,-1.3393,-1.4041,-1.4081,-1.4516,-1.5517,-1.5645,-1.589,-1.6389,-1.6479,-1.65,-1.65,-1.65,0.0,0.0,0.0,0.0,0.0,0.0,0.0,0.0,0.0,0.0,0.0,0.0,0.0,-2.1142,-2.0388,-2.1164,0.0,0.0,-2.3471,0.0,-2.4199,-2.455,-2.4274,-2.2824,-2.1267,0.0,0.0,0.0,0.0,0.0,-1.7448,0.0,0.0,0.0,0.0,0.0,0.0,0.0,-1.5944,-1.7375,-1.8531,0.0,0.0,0.0,0.0,0.0,0.0,0.0,0.0,0.0,0.0,0.0,0.0,0.0,0.0,0.0,0.0,-2.7921,-2.7946,-2.8021,-2.8072,-2.8097,-2.8097,-2.8524,-2.8512,-2.8122,-2.8487,-2.8299,-2.7382,-2.8284,-2.8478,-2.8012,-2.8964,-2.9507,-2.9624,-2.9624,-2.9663,-2.9779,-2.9663,-2.9624,-2.9585,-2.9507,-3.0184,-3.1361,-3.1838,-3.2114,-3.2265,-3.2792,-3.3018,-3.3144,-1.0293,0.0,0.0,0.0,0.0,0.0,0.0,0.0,-1.1876,-1.2152,-1.2612,-1.3253,-1.4138,-1.4027,-1.409,-1.4518,-1.4541,-1.4653,-1.4902,-1.5345,-1.5656,-1.5776,-1.6238,-1.65,-1.65,-1.65,-1.65,0.0,0.0,0.0,0.0,0.0,0.0,0.0,0.0,0.0,0.0,0.0,0.0,-1.961,-2.1164,0.0,-2.1345,-2.2749,-2.2673,-2.1945,-2.3045,-2.3145,-2.2749,0.0,-2.1794,-2.0966,0.0,0.0,0.0,0.0,0.0,0.0,0.0,0.0,0.0,0.0,0.0,0.0,-1.6697,-1.7049,-1.7501,0.0,0.0,0.0,0.0,0.0,0.0,0.0,0.0,0.0,0.0,0.0,0.0,0.0,0.0,0.0,0.0,-2.6826,-2.7002,-2.7394,-2.7871,-2.8097,-2.8097,-2.7795,-2.777,-2.8097,-2.777,-2.7712,-2.7953,-2.7708,-2.7565,-2.7466,-2.7255,-2.7585,-2.8426,-2.8426,-2.8949,-2.974,-2.8806,-2.8426,-2.8347,-2.7504,-2.8569,-3.0783,-3.0884,-3.1461,-3.2215,-3.234,-3.2667,-3.3093,-1.0293,0.0,0.0,0.0,0.0,0.0,0.0,0.0,-1.2076,-1.2587,-1.2883,-1.3219,-1.3747,-1.3624,-1.3699,-1.4215,-1.426,-1.4376,-1.4675,-1.4994,-1.5152,-1.5152,-1.5444,-1.5732,-1.6039,-1.6039,-1.6194,0.0,0.0,0.0,0.0,0.0,0.0,0.0,0.0,0.0,0.0,0.0,-1.7919,-1.9158,-2.084,0.0,-2.1619,-2.2694,-2.2769,-2.2368,-2.292,-2.292,-2.2694,-2.2694,-2.2347,0.0,0.0,-1.9887,-1.9359,0.0,-1.843,-1.8204,0.0,0.0,0.0,-1.8204,0.0,0.0,0.0,-1.7174,0.0,0.0,0.0,0.0,0.0,0.0,0.0,0.0,0.0,0.0,0.0,0.0,0.0,0.0,0.0,0.0,0.0,-2.5485,-2.5762,-2.6038,-2.6314,-2.6465,-2.6465,-2.6237,-2.6385,-2.6866,-2.6178,-2.5933,-2.6158,-2.5905,-2.5776,-2.5761,-2.6008,-2.6563,-2.7279,-2.7279,-2.7626,-2.8131,-2.7545,-2.7279,-2.7238,-2.6707,-2.7318,-2.86,-2.8862,-2.9267,-2.9809,-3.0315,-3.0715,-3.0978,-1.0293,0.0,0.0,0.0,0.0,0.0,0.0,0.0,-1.2483,-1.2925,-1.2922,-1.2974,-1.3105,-1.3047,-1.3348,-1.4171,-1.4076,-1.4233,-1.4803,-1.486,-1.4799,-1.4669,-1.4829,-1.513,-1.554,-1.5634,-1.5931,-1.6379,0.0,0.0,0.0,0.0,0.0,0.0,0.0,0.0,0.0,0.0,0.0,-1.8926,0.0,-2.1191,-2.2221,-2.2869,-2.3045,-2.297,-2.307,-2.3095,-2.3095,-2.297,0.0,-2.2117,-2.0951,-2.0476,0.0,0.0,0.0,0.0,0.0,0.0,0.0,0.0,0.0,-1.7856,0.0,0.0,0.0,0.0,0.0,0.0,0.0,0.0,0.0,0.0,0.0,0.0,0.0,0.0,0.0,0.0,0.0,0.0,0.0,-2.3454,-2.3934,-2.4201,-2.4228,-2.423,-2.4296,-2.4564,-2.4795,-2.4936,-2.4517,-2.416,-2.3936,-2.3964,-2.3994,-2.401,-2.4789,-2.5502,-2.6171,-2.6171,-2.6295,-2.6483,-2.6276,-2.6171,-2.613,-2.5944,-2.5861,-2.5924,-2.6825,-2.7217,-2.7397,-2.8296,-2.8701,-2.8858,-1.0293,-1.0293,0.0,0.0,0.0,0.0,0.0,0.0,-1.2837,-1.289,-1.29,-1.3164,0.0,0.0,0.0,0.0,0.0,0.0,-1.5277,0.0,-1.5258,-1.4472,-1.5331,-1.5697,-1.5348,-1.5749,-1.5997,-1.6072,0.0,0.0,0.0,0.0,0.0,0.0,-1.5855,0.0,0.0,0.0,-1.7369,0.0,-1.9388,-2.0541,0.0,-2.2719,-2.2794,-2.2443,-2.292,-2.3095,-2.302,0.0,-2.2372,-2.2052,0.0,-1.9654,0.0,0.0,0.0,0.0,0.0,0.0,0.0,0.0,-1.8985,0.0,0.0,0.0,0.0,0.0,0.0,0.0,0.0,0.0,0.0,0.0,0.0,0.0,0.0,0.0,0.0,0.0,0.0,0.0,0.0,0.0,-2.0774,-2.2128,-2.2063,-2.2111,-2.2491,-2.324,-2.3354,-2.2617,-2.3641,-2.3839,-2.3073,-2.2918,-2.3061,-2.3405,-2.3039,-2.3632,-2.4999,-2.4999,-2.5546,-2.6442,-2.542,-2.4999,-2.4914,-2.3887,-2.3474,-2.3691,-2.5779,-2.6861,-2.7352,-2.7805,-2.8342,-2.8858,-1.0352,-1.0488,0.0,0.0,0.0,0.0,0.0,0.0,-1.3145,-1.2935,-1.3086,0.0,0.0,0.0,0.0,0.0,0.0,-1.5879,0.0,0.0,-1.5021,-1.4666,0.0,0.0,-1.5185,-1.5378,-1.5643,-1.5978,-1.5643,0.0,0.0,0.0,0.0,0.0,-1.538,0.0,-1.6177,0.0,0.0,0.0,0.0,0.0,0.0,-2.1235,-2.1494,-2.1306,-2.1212,-2.1376,-2.1518,0.0,-2.0811,0.0,0.0,0.0,0.0,0.0,0.0,0.0,0.0,0.0,0.0,0.0,0.0,0.0,0.0,0.0,-1.6361,0.0,0.0,0.0,0.0,0.0,0.0,0.0,0.0,0.0,0.0,0.0,0.0,0.0,0.0,0.0,0.0,0.0,0.0,0.0,0.0,-1.998,-2.009,-2.0725,-2.1263,-2.1722,-2.1716,-2.1818,-2.2035,-2.1676,-2.1828,-2.2493,-2.2259,-2.2735,-2.38,-2.38,-2.4059,-2.451,-2.4016,-2.38,-2.38,-2.3299,-2.3101,-2.3188,-2.4145,-2.4843,-2.53,-2.5692,-2.6214,-2.6676,-1.0704,0.0,0.0,0.0,0.0,0.0,0.0,0.0,0.0,0.0,0.0,0.0,-1.5615,-1.5664,0.0,0.0,0.0,-1.7305,0.0,0.0,-1.5508,0.0,0.0,0.0,0.0,0.0,-1.5392,-1.5849,0.0,0.0,0.0,0.0,0.0,0.0,0.0,-1.5408,-1.5702,0.0,0.0,-1.7901,-1.7978,-1.827,-1.8781,-1.9913,-2.0478,-2.0546,-2.0156,-2.0268,-2.0456,-1.9574,-1.9753,0.0,-1.9232,0.0,0.0,0.0,0.0,0.0,-1.886,0.0,0.0,0.0,0.0,0.0,0.0,0.0,0.0,0.0,0.0,0.0,0.0,0.0,0.0,0.0,0.0,0.0,0.0,0.0,0.0,0.0,0.0,0.0,0.0,0.0,0.0,0.0,-1.7436,-1.766,-1.7707,-1.8594,-1.9498,-2.0303,-2.0047,-2.0179,-2.0813,-2.0536,-2.084,-2.1699,-2.1836,-2.2266,-2.2925,-2.3042,-2.3101,-2.3101,-2.3101,-2.3101,-2.3101,-2.3101,-2.3101,-2.3101,-2.3101,-2.3398,-2.3848,-2.4258,-2.4551,-2.4793,-1.1567,-1.1567,0.0,0.0,0.0,0.0,0.0,0.0,0.0,0.0,0.0,0.0,0.0,0.0,0.0,0.0,0.0,-1.9199,-1.918,0.0,-1.7344,0.0,0.0,-1.5371,0.0,0.0,0.0,0.0,0.0,0.0,0.0,0.0,0.0,0.0,0.0,-1.5855,-1.7101,-1.6377,-1.6586,-1.7481,-1.7827,-1.8003,-1.8146,0.0,-2.0102,-2.059,-2.0568,0.0,0.0,-1.9977,-1.9736,0.0,0.0,0.0,0.0,0.0,0.0,0.0,0.0,0.0,0.0,-1.7201,0.0,0.0,0.0,0.0,-1.6142,0.0,0.0,0.0,0.0,0.0,-1.1934,-1.1074,-1.1312,0.0,0.0,0.0,0.0,0.0,0.0,0.0,0.0,0.0,0.0,-1.4655,-1.4854,-1.5094,-1.5497,-1.7482,-1.8306,-1.7553,-1.9056,-1.9731,-1.937,-1.9727,-2.0333,-2.121,-2.168,-2.2109,-2.2539,-2.2906,-2.3101,-2.3101,-2.3101,-2.3101,-2.3101,-2.3101,-2.3101,-2.3101,-2.3101,-2.3398,-2.3848,-2.4258,-2.416,-2.3945,0.0,0.0,0.0,0.0,0.0,0.0,0.0,-1.3848,0.0,0.0,0.0,0.0,0.0,0.0,-1.9783,0.0,0.0,-2.0801,-2.0214,-1.9336,0.0,0.0,0.0,-1.6719,0.0,0.0,0.0,0.0,0.0,0.0,0.0,0.0,0.0,0.0,0.0,-1.5487,0.0,0.0,0.0,0.0,0.0,-1.7754,-1.8022,0.0,0.0,-1.8877,-1.8877,-1.8877,0.0,-1.8364,-1.8373,-1.8459,-1.7933,-1.7656,-1.7616,-1.8055,-1.7579,0.0,0.0,0.0,-1.8026,-1.7917,0.0,0.0,0.0,0.0,0.0,0.0,0.0,0.0,0.0,0.0,-1.2008,-1.1467,-1.1252,-1.0841,0.0,0.0,0.0,0.0,0.0,0.0,0.0,0.0,0.0,-1.2157,-1.2767,-1.3194,0.0,-1.5342,-1.6496,-1.6535,-1.8174,-1.9112,-1.9277,-1.9707,-2.0352,-2.119,-2.1346,-2.1816,-2.2519,-2.2656,-2.2828,-2.3101,-2.3101,-2.3101,-2.3101,-2.3101,-2.3101,-2.3101,-2.3101,-2.3179,-2.3393,-2.416,-2.4512,-2.4727,-1.2974,0.0,0.0,0.0,0.0,0.0,0.0,0.0,0.0,0.0,-1.7598,0.0,-2.1387,0.0,-2.1075,0.0,-2.2031,-2.1641,-2.1114,-2.0078,0.0,-1.9065,-1.8242,0.0,0.0,0.0,0.0,0.0,0.0,-1.5644,0.0,0.0,0.0,0.0,0.0,0.0,0.0,0.0,-1.6621,0.0,0.0,-1.7637,0.0,0.0,-1.7969,-1.8188,0.0,-1.8008,-1.7969,-1.7695,-1.7793,-1.7969,-1.7695,-1.7598,-1.7656,-1.793,-1.7584,-1.7344,-1.8124,-1.7975,0.0,-1.8035,-1.7504,0.0,-1.6746,0.0,0.0,0.0,0.0,0.0,0.0,0.0,-1.2441,-1.1724,-1.1213,-1.0762,0.0,-1.0175,0.0,0.0,0.0,0.0,0.0,0.0,-1.1044,-1.0489,-1.1286,-1.185,0.0,0.0,-1.5547,-1.585,-1.7519,-1.8691,-1.9277,-1.9551,-2.0137,-2.0996,-2.1112,-2.1561,-2.2305,-2.2441,-2.2734,-2.3101,-2.3101,-2.3101,-2.3101,-2.3101,-2.3101,-2.3101,-2.3101,-2.3101,-2.3198,-2.4102,-2.4687,-2.5165,0.0,0.0,0.0,0.0,-1.3281,0.0,0.0,0.0,-1.791,0.0,-1.9746,-2.0371,-2.1249,-2.0977,-2.1055,-2.1855,-2.1914,0.0,-2.1894,-2.0703,0.0,0.0,-1.8437,-1.7715,-1.8027,0.0,0.0,0.0,0.0,0.0,0.0,0.0,0.0,0.0,-1.541,0.0,-1.5469,-1.6336,-1.6707,-1.6765,-1.7187,-1.7617,-1.7969,-1.7539,-1.791,-1.8539,-1.813,-1.8008,-1.8008,-1.8008,-1.8027,-1.8047,-1.8008,-1.8027,-1.8047,-1.8008,-1.8008,-1.8008,-1.8008,-1.8008,-1.791,-1.7519,0.0,0.0,0.0,0.0,-1.7161,0.0,0.0,0.0,0.0,0.0,0.0,-1.1858,-1.1232,-1.0742,-1.0352,0.0,0.0,0.0,0.0,0.0,0.0,-1.002,-1.0098,-0.9611,-1.0371,0.0,0.0,0.0,-1.5332,-1.541,-1.7031,-1.8359,-1.9277,-1.9258,-1.9687,-2.0605,-2.1016,-2.1465,-2.1894,-2.2324,-2.2734,-2.3101,-2.3101,-2.3101,-2.3101,-2.3101,-2.3101,-2.3101,-2.3101,-2.312,-2.3257,-2.4075,-2.4707,-2.5145,-1.3457,-1.3594,-1.3685,0.0,-1.3965,-1.4629,0.0,0.0,0.0,0.0,-2.0898,-2.1953,-2.3437,-2.293,-2.2441,-2.2363,-2.2363,0.0,0.0,0.0,0.0,-2.1387,-2.0644,-1.965,-1.8461,-1.8227,0.0,-1.6707,0.0,0.0,-1.6085,0.0,0.0,0.0,0.0,0.0,-1.5469,-1.6336,-1.6882,-1.7207,-1.696,-1.7344,0.0,0.0,-1.791,-1.8539,-1.813,-1.8008,-1.8008,-1.8008,-1.8223,-1.8383,-1.8105,-1.8223,-1.8383,-1.8105,-1.8008,-1.8008,-1.8008,-1.8008,-1.7988,-1.7871,-1.7617,-1.7363,0.0,0.0,0.0,0.0,0.0,0.0,0.0,0.0,0.0,-1.2661,-1.1389,-1.043,0.0,0.0,0.0,0.0,0.0,0.0,0.0,0.0,-0.998,-0.9201,-0.9961,0.0,0.0,0.0,0.0,-1.5371,-1.6152,-1.7474,-1.9277,-1.8965,-1.9394,-2.0605,-2.1016,-2.1465,-2.1894,-2.2324,-2.2734,-2.3101,-2.3101,-2.3101,-2.3101,-2.3101,-2.3101,-2.3101,-2.3101,-2.3491,-2.4075,-2.4336,-2.4902,-2.5566,-1.3633,0.0,0.0,-1.4102,0.0,0.0,-1.6746,0.0,0.0,-2.1465,-2.2129,0.0,-2.3705,-2.3594,-2.3242,-2.2789,-2.2441,0.0,0.0,0.0,0.0,-2.2148,-2.1387,-2.0312,-1.8945,-1.8695,0.0,-1.7012,0.0,0.0,-1.6348,0.0,0.0,0.0,0.0,-1.541,0.0,-1.6336,-1.696,-1.7396,-1.7109,0.0,0.0,-1.7539,-1.7793,-1.8286,-1.8086,-1.8008,-1.8008,-1.8008,-1.813,-1.8286,-1.8086,-1.8164,-1.8286,-1.8086,-1.8008,-1.8008,-1.8008,-1.8008,-1.8008,-1.8008,-1.7832,-1.7656,-1.7656,-1.7656,-1.7578,0.0,0.0,0.0,0.0,0.0,0.0,0.0,0.0,0.0,0.0,0.0,0.0,0.0,0.0,0.0,0.0,0.0,0.0,0.0,0.0,0.0,0.0,0.0,0.0,-1.4277,-1.6172,-1.7598,-1.8437,-1.8769,-1.9375,-2.0293,-2.0723,-2.1269,-2.1894,-2.2324,-2.2734,-2.3101,-2.3101,-2.3101,-2.3101,-2.3101,-2.3101,-2.312,-2.334,-2.3828,-2.4434,-2.4629,-2.5137,-2.5693,0.0,0.0,0.0,0.0,0.0,0.0,0.0,-1.9787,0.0,-2.2847,0.0,-2.3223,-2.3101,-2.3477,-2.3535,-2.3042,0.0,-2.2285,-2.2964,-2.197,-2.1697,-2.248,-2.1367,-2.0351,-1.9394,-1.8945,0.0,0.0,0.0,0.0,0.0,0.0,0.0,0.0,0.0,0.0,0.0,-1.6317,-1.6934,0.0,-1.7383,-1.7598,-1.7891,-1.7578,-1.7695,-1.8008,-1.8008,-1.8008,-1.8008,-1.8008,-1.8047,-1.8086,-1.8027,-1.8047,-1.8086,-1.8027,-1.8008,-1.8008,-1.8008,-1.8008,-1.8008,-1.8008,-1.8008,-1.8008,-1.8008,-1.8008,-1.8008,-1.8008,-1.8008,-1.7793,0.0,0.0,0.0,0.0,0.0,0.0,0.0,0.0,0.0,0.0,0.0,0.0,0.0,0.0,0.0,0.0,0.0,0.0,0.0,0.0,0.0,-1.3066,-1.6348,0.0,-1.7559,0.0,-1.9473,-2.0176,-2.0508,-2.1153,-2.1973,-2.2402,-2.275,-2.3101,-2.3101,-2.3101,-2.3101,-2.3101,-2.3101,-2.314,-2.3672,-2.4102,-2.4473,-2.498,-2.541,-2.5693,0.0,0.0,0.0,0.0,0.0,-1.9766,-2.1562,-2.2204,-2.2672,-2.3042,-2.3457,-2.3535,-2.314,-2.3159,-2.3042,-2.2656,-2.248,0.0,0.0,0.0,0.0,-2.25,-2.1953,-2.1074,-1.9824,-1.9394,-1.875,0.0,0.0,0.0,0.0,0.0,0.0,0.0,0.0,0.0,-1.6453,-1.6269,0.0,-1.7383,-1.7383,-1.7422,-1.7519,-1.7793,-1.7949,-1.8008,-1.8008,-1.8008,-1.8008,-1.8008,-1.8208,-1.8422,-1.8091,-1.8208,-1.8422,-1.8105,-1.8008,-1.8008,-1.8008,-1.8008,-1.8008,-1.8008,-1.8008,-1.8008,-1.8008,-1.8008,-1.8008,-1.8008,-1.8008,-1.7969,-1.7812,0.0,0.0,0.0,0.0,0.0,0.0,0.0,0.0,0.0,0.0,0.0,0.0,0.0,0.0,0.0,0.0,0.0,0.0,0.0,0.0,0.0,-1.4922,0.0,0.0,0.0,-1.9355,-2.1543,-2.125,-2.1562,-2.2422,-2.2789,-2.3023,-2.3101,-2.3101,-2.3101,-2.3101,-2.3101,-2.3101,-2.3179,-2.4004,-2.4355,-2.4512,-2.5312,-2.5615,-2.5693,0.0,0.0,0.0,0.0,0.0,0.0,0.0,-2.3437,0.0,-2.3535,-2.3281,-2.3047,-2.2789,-2.2964,-2.3023,-2.2808,-2.2637,-2.2598,-2.2789,-2.2637,-2.2519,-2.2519,-2.2109,0.0,-1.9941,-1.9512,-1.8867,-1.8008,0.0,0.0,-1.6687,0.0,0.0,0.0,0.0,-1.5977,0.0,0.0,0.0,-1.7422,-1.7852,-1.791,-1.7734,-1.793,-1.8008,-1.8008,-1.8008,-1.8008,-1.8008,-1.8008,-1.8144,-1.8247,-1.8066,-1.8144,-1.8247,-1.8066,-1.8008,-1.8008,-1.8008,-1.8008,-1.8008,-1.8008,-1.8008,-1.8008,-1.8008,-1.8008,-1.8008,-1.8008,-1.8008,-1.7871,-1.7389,-1.6465,0.0,0.0,0.0,0.0,0.0,0.0,0.0,0.0,0.0,0.0,0.0,0.0,0.0,0.0,0.0,0.0,0.0,0.0,0.0,0.0,0.0,0.0,0.0,0.0,0.0,-2.1251,-2.123,-2.1639,-2.2519,-2.2906,-2.3101,-2.3101,-2.3101,-2.3101,-2.3101,-2.3101,-2.3101,-2.3179,-2.4082,-2.4414,-2.4531,-2.5362,-2.5693,-2.5693,0.0,-1.8301,0.0,0.0,-2.0723,0.0,-2.2969,-2.4043,-2.4636,-2.4004,-2.3262,-2.2754,-2.2656,-2.2906,-2.3062,-2.2964,-2.275,-2.2672,-2.2828,-2.2734,-2.2519,-2.2246,-2.2012,-2.1269,-1.9941,-1.9512,-1.8906,0.0,0.0,0.0,0.0,0.0,0.0,0.0,0.0,0.0,0.0,0.0,-1.8008,-1.7852,-1.8481,-1.8539,-1.8281,-1.8184,-1.8144,-1.8125,-1.8047,-1.8008,-1.8008,-1.8008,-1.8008,-1.8008,-1.8008,-1.8008,-1.8008,-1.8008,-1.8008,-1.8008,-1.8008,-1.8008,-1.8008,-1.8008,-1.8008,-1.8008,-1.8008,-1.8008,-1.8008,-1.8008,-1.8008,-1.7812,-1.7096,-1.6641,0.0,0.0,0.0,0.0,0.0,0.0,0.0,0.0,0.0,0.0,0.0,0.0,0.0,0.0,0.0,0.0,0.0,0.0,0.0,0.0,0.0,-1.7044,-1.7416,0.0,-1.9766,-2.1016,-2.125,-2.1775,-2.2656,-2.2945,-2.3101,-2.3101,-2.3101,-2.3101,-2.3101,-2.3101,-2.3101,-2.3179,-2.4082,-2.4414,-2.4531,-2.5362,-2.5693,-2.5693,0.0,0.0,0.0,0.0,0.0,0.0,0.0,-2.4297,-2.4023,-2.4316,-2.3965,-2.3516,-2.3081,-2.3081,-2.2945,-2.2598,-2.2847,-2.273,-2.2051,-2.2676,-2.2516,-2.1366,-2.1699,-2.1269,-1.9941,-1.9512,-1.9043,0.0,0.0,0.0,0.0,0.0,0.0,0.0,0.0,0.0,0.0,-1.8325,-1.8789,-1.9121,-1.9199,-1.9199,-1.9121,-1.8695,-1.8539,-1.85,-1.8144,-1.8008,-1.8008,-1.8008,-1.8008,-1.8008,-1.8008,-1.8008,-1.8008,-1.8008,-1.8008,-1.8008,-1.8008,-1.8008,-1.8008,-1.8008,-1.8008,-1.8008,-1.8008,-1.8008,-1.8008,-1.8008,-1.8008,-1.7988,-1.791,-1.7539,-1.6836,0.0,0.0,0.0,0.0,0.0,0.0,0.0,0.0,0.0,0.0,0.0,0.0,0.0,0.0,0.0,0.0,0.0,0.0,-1.2856,0.0,-1.5811,-1.7363,-1.8262,-1.9884,-2.2324,-2.1992,-2.2266,-2.3042,-2.3081,-2.3101,-2.3101,-2.3101,-2.3101,-2.3101,-2.3101,-2.3101,-2.3179,-2.4082,-2.4414,-2.4531,-2.5362,-2.5693,-2.5693,0.0,0.0,0.0,0.0,0.0,0.0,0.0,-2.4219,-2.4141,-2.4043,-2.3672,-2.3296,-2.312,-2.3101,-2.3023,-2.2867,-2.3003,-2.2945,-2.2656,-2.2906,-2.275,-2.199,-2.1934,-2.1523,-2.0683,-2.0019,-1.9453,0.0,0.0,0.0,0.0,0.0,0.0,0.0,0.0,-1.8223,-1.8403,-1.9085,-1.9355,-1.9316,-1.9551,-1.9512,-1.9238,-1.8773,-1.8598,-1.8539,-1.813,-1.8008,-1.8008,-1.8008,-1.8008,-1.8008,-1.8008,-1.8008,-1.8008,-1.8008,-1.8008,-1.8008,-1.8008,-1.8008,-1.8008,-1.8008,-1.8008,-1.8008,-1.8008,-1.8008,-1.8008,-1.8008,-1.8008,-1.8008,-1.8008,-1.7871,-1.75,0.0,0.0,0.0,0.0,0.0,0.0,0.0,0.0,0.0,0.0,0.0,0.0,0.0,0.0,0.0,0.0,0.0,0.0,-1.3594,0.0,-1.6894,-1.8887,-1.9238,-2.0449,-2.2519,-2.2344,-2.2578,-2.3101,-2.3101,-2.3101,-2.3101,-2.3101,-2.3101,-2.3101,-2.3101,-2.3101,-2.3179,-2.4082,-2.4414,-2.4531,-2.5362,-2.5693,-2.5693,-2.2871,0.0,-2.2129,0.0,-2.3125,-2.353,-2.3769,-2.4043,-2.4082,-2.3652,-2.334,-2.3101,-2.3101,-2.3101,-2.3042,-2.2925,-2.3023,-2.2984,-2.275,-2.2964,-2.2847,-2.2363,-2.2051,0.0,-2.121,-2.0371,-1.9766,-1.9473,-1.875,0.0,0.0,0.0,0.0,0.0,-1.8734,-1.8968,-1.9026,-1.9805,-1.9941,-1.9725,-1.998,-1.9922,-1.9609,-1.9143,-1.889,-1.8734,-1.8305,-1.8105,-1.8008,-1.8008,-1.8008,-1.8008,-1.8008,-1.8008,-1.8008,-1.8008,-1.8008,-1.8008,-1.8008,-1.8008,-1.8008,-1.8008,-1.8008,-1.8008,-1.8008,-1.8008,-1.8008,-1.8008,-1.8008,-1.8008,-1.8008,-1.8008,-1.7832,-1.7285,0.0,0.0,0.0,0.0,0.0,0.0,0.0,-1.4114,-1.4114,0.0,0.0,0.0,0.0,0.0,0.0,0.0,0.0,0.0,0.0,0.0,0.0,-1.9727,-2.0781,-2.2519,-2.2637,-2.2808,-2.3101,-2.3101,-2.3101,-2.3101,-2.3101,-2.3101,-2.3101,-2.3101,-2.3179,-2.3354,-2.4141,-2.4492,-2.4687,-2.5401,-2.5693,-2.5693,-2.3691,-2.3769,-2.3887,-2.4316,-2.4394,-2.4258,-2.3848,-2.3789,-2.3652,-2.3266,-2.3144,-2.3101,-2.3101,-2.3101,-2.2925,-2.2559,-2.2847,-2.275,-2.1953,-2.2676,-2.273,0.0,0.0,-2.168,-2.121,-2.0371,-1.9922,-1.9902,0.0,0.0,-1.8578,0.0,-1.8598,-1.8637,-1.9475,-1.9902,-1.9922,-2.041,-2.0586,-2.0586,-2.0586,-2.0586,-2.0546,-2.0059,-1.9648,-1.9219,-1.8754,-1.8325,-1.8008,-1.8008,-1.8008,-1.8008,-1.8008,-1.8008,-1.8008,-1.8008,-1.8008,-1.8008,-1.8008,-1.8008,-1.8008,-1.8008,-1.8008,-1.8008,-1.8008,-1.8008,-1.8008,-1.8008,-1.8008,-1.8008,-1.8008,-1.8008,-1.7734,-1.6843,0.0,0.0,0.0,0.0,0.0,0.0,-1.4387,-1.4114,-1.4114,0.0,0.0,0.0,0.0,0.0,0.0,0.0,0.0,-1.4055,-1.457,0.0,-1.8008,-1.9277,-2.0781,-2.2519,-2.2886,-2.3081,-2.3101,-2.3101,-2.3101,-2.3101,-2.3101,-2.3101,-2.3101,-2.3101,-2.3354,-2.3828,-2.4258,-2.4687,-2.5117,-2.5566,-2.5693,-2.5693,-2.2949,-2.3398,-2.3652,-2.3203,-2.3594,-2.3848,-2.3418,-2.3296,-2.3301,-2.3164,-2.3101,-2.3101,-2.3101,-2.3101,-2.3042,0.0,-2.2793,-2.2715,0.0,-2.2672,-2.2598,-2.2324,-2.1758,-2.123,-2.0781,-2.0215,-1.9766,-1.9492,0.0,0.0,0.0,-1.9219,-1.9394,-1.9961,-2.0234,-2.039,-2.041,-2.0546,-2.0605,-2.0605,-2.0605,-2.0605,-2.0527,-1.9766,-1.9394,-1.9199,-1.8477,-1.8125,-1.8008,-1.8008,-1.8008,-1.8008,-1.8008,-1.8008,-1.8008,-1.8008,-1.8008,-1.8008,-1.8008,-1.8008,-1.8008,-1.8008,-1.8008,-1.8008,-1.8008,-1.8008,-1.8008,-1.8008,-1.8008,-1.8008,-1.8008,-1.8008,-1.7832,-1.7266,-1.7539,0.0,0.0,0.0,0.0,0.0,0.0,-1.4687,0.0,-1.4211,0.0,0.0,0.0,0.0,0.0,0.0,0.0,0.0,-1.6863,0.0,-2.0157,-2.0566,-2.1483,-2.2906,-2.3042,-2.3101,-2.3101,-2.3101,-2.3101,-2.3101,-2.3101,-2.3101,-2.3101,-2.3101,-2.3179,-2.3374,-2.4141,-2.4492,-2.4707,-2.5421,-2.5693,-2.5693,-2.275,-2.3184,-2.3379,-2.2832,-2.3184,-2.3398,-2.2925,-2.2984,-2.3042,-2.2886,-2.3003,-2.3101,-2.3101,-2.3101,0.0,-2.3101,-2.2847,-2.2808,-2.3081,-2.2711,-2.2519,-2.2519,-2.1658,-2.1054,-2.082,0.0,0.0,-1.9803,-2.0039,-2.0156,-2.0156,-1.992,-2.0096,-2.0605,-2.0605,-2.0605,-2.0605,-2.0605,-2.0605,-2.0605,-2.0605,-2.0605,-2.0546,-2.0018,-1.9668,-1.9453,-1.8926,-1.8633,-1.8496,-1.8496,-1.8496,-1.8457,-1.8301,-1.8242,-1.8223,-1.8047,-1.8008,-1.8008,-1.8008,-1.8008,-1.8008,-1.8008,-1.8008,-1.8008,-1.8008,-1.8008,-1.8008,-1.8008,-1.8008,-1.8008,-1.8008,-1.8008,-1.793,-1.7656,-1.7832,-1.791,-1.7656,0.0,0.0,0.0,0.0,0.0,0.0,-1.54,0.0,0.0,0.0,0.0,0.0,0.0,0.0,-1.6648,-1.7623,0.0,-2.0977,-2.1112,-2.1834,-2.3101,-2.3101,-2.3101,-2.3101,-2.3101,-2.3101,-2.3101,-2.3101,-2.3101,-2.3101,-2.3101,-2.3198,-2.3457,-2.4141,-2.4512,-2.4746,-2.5421,-2.5693,-2.5693,-2.3023,-2.3062,0.0,0.0,-2.3081,0.0,-2.2489,-2.2804,-2.2964,-2.2469,-2.2804,-2.3057,-2.2994,-2.2969,-2.295,-2.2862,0.0,0.0,0.0,-2.2715,-2.2461,-2.2461,-2.16,-2.1092,-2.0973,-2.0605,-2.045,-2.0489,-2.0489,-2.0527,-2.0605,-2.0527,-2.0527,-2.0605,-2.0605,-2.0605,-2.0605,-2.0605,-2.0605,-2.0605,-2.0605,-2.0566,-2.0489,-2.045,-2.0101,-1.9676,-1.9638,-1.9424,-1.9168,-1.9095,-1.9112,-1.9071,-1.8647,-1.8511,-1.8449,-1.8091,-1.8027,-1.8047,-1.8008,-1.8027,-1.8047,-1.8008,-1.8008,-1.8008,-1.8008,-1.8008,-1.8008,-1.8047,-1.8027,-1.8027,-1.8047,-1.8027,-1.8008,-1.8008,-1.8008,-1.7988,-1.793,0.0,0.0,0.0,0.0,0.0,0.0,-1.6746,-1.6941,0.0,0.0,0.0,0.0,0.0,-1.5147,-1.6863,-1.7383,-1.8629,-2.0723,-2.1113,-2.1892,-2.3101,-2.3101,-2.3101,-2.3101,-2.3101,-2.3101,-2.3101,-2.3101,-2.3101,-2.3101,-2.3101,-2.3398,-2.3828,-2.4258,-2.4687,-2.5165,-2.5566,-2.5693,-2.5693,0.0,0.0,-2.2984,-2.2715,-2.2886,-2.2736,-2.1725,-2.2435,-2.2736,-2.1699,-2.2454,-2.2775,-2.1854,-2.1702,-2.1346,-2.0449,-2.177,-2.275,-2.3081,-2.2441,-2.2031,-2.2031,-2.1191,-2.0196,-1.9019,-1.8909,-1.9001,-1.9353,-1.9353,-1.9805,-2.0566,-1.9766,-1.9805,-2.0605,-2.0605,-2.0605,-2.0605,-2.0605,-2.0605,-2.0605,-2.0605,-2.0118,-1.9335,-1.8983,-1.8279,-1.7402,-1.7034,-1.7409,-1.7971,-1.7076,-1.7181,-1.7733,-1.7862,-1.7734,-1.7582,-1.7919,-1.8208,-1.8383,-1.8086,-1.8208,-1.8364,-1.8086,-1.8008,-1.8008,-1.8008,-1.8008,-1.8105,-1.8383,-1.8188,-1.8105,-1.8403,-1.8223,-1.8008,-1.8008,-1.8008,-1.7793,-1.7096,-1.6824,0.0,0.0,-1.6102,-1.6473,-1.6687,-1.7291,-1.7617,0.0,0.0,0.0,0.0,-1.7187,-1.7701,-1.9121,-1.959,-2.0527,-2.2031,-2.2148,-2.2519,-2.3101,-2.3101,-2.3101,-2.3101,-2.3101,-2.3101,-2.3101,-2.3101,-2.3101,-2.3101,-2.3101,-2.3398,-2.3828,-2.4258,-2.4687,-2.5165,-2.5566,-2.5693,-2.5693,-2.1583,-2.197,-2.2196,-2.197,-2.212,-2.1854,-2.0657,-2.1033,-2.123,-2.0557,-2.1051,-2.1212,-2.0522,-2.0477,-2.0206,-1.9542,-2.0499,-2.1218,-2.1436,-2.0709,-2.0316,-2.0316,-1.9534,-1.8691,-1.7847,-1.783,-1.7973,-1.8238,-1.8238,-1.8519,-1.9076,-1.8519,-1.8541,-1.9116,-1.9116,-1.9116,-1.9116,-1.9116,-1.9116,-1.9116,-1.9116,-1.8758,-1.8204,-1.7956,-1.7474,-1.6924,-1.6688,-1.6974,-1.742,-1.6818,-1.6879,-1.7263,-1.726,-1.7121,-1.6991,-1.7045,-1.7604,-1.815,-1.7924,-1.7547,-1.7153,-1.6824,-1.6825,-1.6881,-1.6735,-1.7306,-1.7868,-1.7941,-1.8296,-1.8594,-1.8598,-1.8422,-1.8188,-1.8047,-1.7676,-1.7233,-1.6765,-1.6356,0.0,-1.5985,-1.659,-1.7155,-1.7525,-1.8203,-1.8496,-1.8262,-1.8262,0.0,-1.8262,-1.8848,-1.9414,-1.9902,-2.037,-2.1231,-2.25,-2.2695,-2.2867,-2.3101,-2.3101,-2.3101,-2.3101,-2.3101,-2.3101,-2.3101,-2.3101,-2.3101,-2.3101,-2.3101,-2.3237,-2.3555,-2.418,-2.4551,-2.4844,-2.544,-2.5693,-2.5693,-2.0827,-2.1033,-2.1033,-2.1033,-2.1033,-2.0612,-1.9405,-1.936,-1.9451,-1.9268,-1.9405,-1.9451,-1.9268,-1.9222,-1.9131,-1.8948,-1.8948,-1.9085,-1.9497,-1.882,-1.8423,-1.8423,-1.7689,-1.7212,-1.705,-1.705,-1.705,-1.705,-1.705,-1.7131,-1.7293,-1.7131,-1.7131,-1.7293,-1.7293,-1.7293,-1.7293,-1.7293,-1.7293,-1.7293,-1.7293,-1.7212,-1.705,-1.705,-1.6968,-1.6821,-1.6821,-1.6927,-1.7009,-1.6846,-1.6895,-1.6976,-1.666,-1.6507,-1.6449,-1.6244,-1.6754,-1.7401,-1.7428,-1.659,-1.5589,-1.5366,-1.5478,-1.5589,-1.535,-1.6441,-1.7397,-1.715,-1.8027,-1.8743,-1.86,-1.8521,-1.8344,-1.7974,-1.733,-1.6804,-1.6531,0.0,-1.5996,-1.6707,-1.7266,-1.7871,-1.8617,-1.9121,-1.9414,-1.9473,-1.9531,-1.959,-1.959,-2.037,-2.0586,-2.0215,-2.0625,-2.1426,-2.2598,-2.2925,-2.3101,-2.3101,-2.3101,-2.3101,-2.3101,-2.3101,-2.314,-2.3198,-2.312,-2.3159,-2.3276,-2.314,-2.3218,-2.3452,-2.416,-2.4492,-2.4707,-2.5421,-2.5693,-2.5693,-1.9724,-1.977,-1.977,-1.977,-1.977,-1.936,-1.8133,-1.881,-1.9131,-1.8087,-1.8872,-1.9131,-1.8087,-1.7963,-1.7544,-1.648,-1.6386,-1.725,-1.936,-1.882,-1.8423,-1.8423,-1.7689,-1.6887,-1.5985,-1.5944,-1.5944,-1.5944,-1.5944,-1.6396,-1.7293,-1.6355,-1.6437,-1.7293,-1.7293,-1.7293,-1.7293,-1.7293,-1.7293,-1.7293,-1.7293,-1.6764,-1.5944,-1.5944,-1.5379,-1.4615,-1.4615,-1.5186,-1.582,-1.4894,-1.5039,-1.5644,-1.5792,-1.5711,-1.5728,-1.6766,-1.6605,-1.6059,-1.6201,-1.6103,-1.594,-1.5891,-1.5907,-1.594,-1.5891,-1.607,-1.637,-1.6713,-1.6639,-1.688,-1.8127,-1.8061,-1.775,-1.7523,-1.7656,-1.7272,-1.579,0.0,-1.7129,-1.7266,-1.7969,-1.8633,-1.9141,-1.957,-1.9961,-2.037,-2.0723,-2.0898,-2.0898,-2.1406,-2.1641,-2.1582,-2.1992,-2.248,-2.2984,-2.3062,-2.3101,-2.3101,-2.3101,-2.3101,-2.3101,-2.3101,-2.334,-2.3672,-2.3257,-2.351,-2.416,-2.3393,-2.3789,-2.4746,-2.4512,-2.4836,-2.5499,-2.5635,-2.5693,-2.5693,-1.8411,-1.8549,-1.8549,-1.8549,-1.8549,-1.8087,-1.6842,-1.7171,-1.7296,-1.6763,-1.7171,-1.7296,-1.6763,-1.6669,-1.6433,-1.5832,-1.5784,-1.6292,-1.7436,-1.6921,-1.6566,-1.6566,-1.5943,-1.5352,-1.4852,-1.4852,-1.4852,-1.4852,-1.4852,-1.5103,-1.556,-1.5061,-1.5103,-1.5602,-1.5602,-1.5602,-1.5602,-1.5602,-1.5602,-1.5602,-1.5602,-1.5269,-1.4852,-1.4852,-1.4531,-1.4082,-1.4082,-1.4405,-1.4768,-1.425,-1.4365,-1.4669,-1.481,-1.4753,-1.4792,-1.5391,-1.5628,-1.555,-1.4874,-1.4717,-1.4673,-1.4535,-1.4585,-1.4673,-1.4535,-1.5191,-1.5872,-1.592,-1.6332,-1.6845,-1.7337,-1.7317,-1.707,-1.6704,-1.6457,0.0,0.0,-1.5627,-1.6203,-1.68,-1.8023,-1.9146,-1.9923,-2.0586,-2.1055,-2.129,-2.1465,-2.1582,-2.1582,-2.1992,-2.2227,-2.2227,-2.2637,-2.2906,-2.3101,-2.3101,-2.3101,-2.3101,-2.3101,-2.3101,-2.3101,-2.3101,-2.3198,-2.3437,-2.3179,-2.3315,-2.3666,-2.3555,-2.3848,-2.4394,-2.4668,-2.5019,-2.541,-2.5596,-2.5693,-2.5693,-1.7091,-1.7279,-1.7279,-1.7279,-1.7279,-1.6951,-1.5974,-1.5784,-1.5784,-1.5784,-1.5784,-1.5784,-1.5784,-1.5784,-1.5784,-1.5784,-1.5784,-1.5784,-1.5784,-1.5351,-1.5075,-1.5008,-1.4402,-1.4082,-1.4082,-1.4082,-1.4082,-1.4082,-1.4082,-1.4082,-1.4082,-1.4082,-1.4082,-1.4082,-1.4082,-1.4082,-1.4082,-1.4082,-1.4082,-1.4082,-1.4082,-1.4082,-1.4082,-1.4082,-1.4082,-1.4082,-1.4082,-1.4082,-1.4082,-1.4082,-1.4082,-1.4082,-1.4082,-1.4082,-1.4082,-1.4082,-1.4699,-1.5087,-1.4008,-1.3706,-1.3653,-1.3467,-1.3547,-1.3653,-1.3467,-1.4391,-1.5265,-1.5072,-1.5858,-1.6522,-1.6477,-1.6468,-1.6331,-1.5929,0.0,0.0,0.0,-1.4908,-1.5396,-1.6434,-1.7828,-1.9039,-1.9949,-2.0765,-2.1198,-2.1198,-2.1545,-2.1771,-2.1771,-2.231,-2.2528,-2.2251,-2.2795,-2.3101,-2.3101,-2.3101,-2.3101,-2.3101,-2.3198,-2.3198,-2.3101,-2.3198,-2.3257,-2.3237,-2.314,-2.3257,-2.3594,-2.373,-2.3965,-2.4297,-2.4891,-2.5184,-2.5273,-2.5605,-2.5693,-2.5693,-1.5927,-1.5927,-1.5927,-1.5927,-1.5927,-1.5927,-1.5832,-1.5784,-1.5784,-1.5784,-1.5784,-1.5784,-1.5784,-1.5784,-1.5784,-1.5784,-1.5784,-1.5784,-1.5784,-1.5538,-1.5244,-1.5022,-1.4402,-1.4082,-1.4082,-1.4082,-1.4082,-1.4082,-1.4082,-1.4082,-1.4082,-1.4082,-1.4082,-1.4082,-1.4082,-1.4082,-1.4082,-1.4082,-1.4082,-1.4082,-1.4082,-1.4082,-1.4082,-1.4082,-1.4082,-1.4082,-1.4082,-1.4082,-1.4082,-1.4082,-1.4082,-1.4082,-1.4082,-1.4082,-1.4082,-1.4082,-1.4166,-1.4208,-1.4097,-1.4055,-1.4055,-1.4028,-1.4041,-1.4055,-1.4028,-1.4139,-1.4195,-1.4181,-1.4279,-1.4643,-1.5584,-1.579,-1.5715,-1.5487,0.0,0.0,-1.4896,-1.5327,-1.6063,-1.6943,-1.7458,-1.7894,-1.8351,-1.8819,-1.9096,-1.9035,-2.0465,-2.1345,-2.1345,-2.2435,-2.2541,-2.1425,-2.2517,-2.3101,-2.3101,-2.3101,-2.3101,-2.3101,-2.3555,-2.3535,-2.3101,-2.3555,-2.375,-2.3711,-2.3276,-2.3809,-2.4863,-2.4102,-2.4512,-2.5518,-2.5215,-2.5332,-2.5635,-2.5674,-2.5693,-2.5693,-1.5784,-1.5784,-1.5784,-1.5784,-1.5784,-1.5784,-1.5784,-1.5784,-1.5784,-1.5784,-1.5784,-1.5784,-1.5784,-1.5784,-1.5784,-1.5784,-1.5784,-1.5784,-1.5784,-1.5565,-1.519,-1.471,-1.4469,-1.4269,-1.4095,-1.4082,-1.4082,-1.4082,-1.4082,-1.4082,-1.4082,-1.4082,-1.4082,-1.4082,-1.4082,-1.4082,-1.4082,-1.4082,-1.4082,-1.4082,-1.4082,-1.4082,-1.4082,-1.4082,-1.4082,-1.4082,-1.4082,-1.4082,-1.4082,-1.4082,-1.4082,-1.4082,-1.4082,-1.4082,-1.4082,-1.4082,-1.4082,-1.4082,-1.4082,-1.4082,-1.4082,-1.4082,-1.4082,-1.4082,-1.4082,-1.4082,-1.4082,-1.4082,-1.4082,-1.4262,-1.4851,-1.4978,-1.5007,-1.5132,0.0,-1.5274,-1.4961,-1.5132,-1.5659,-1.6664,-1.7116,-1.7671,-1.8518,-1.8994,-1.9237,-1.9237,-1.9822,-2.0161,-2.0161,-2.0629,-2.0674,-2.0206,-2.0629,-2.1212,-2.1987,-2.1987,-2.2536,-2.3555,-2.3711,-2.3711,-2.3555,-2.3711,-2.3633,-2.3354,-2.3496,-2.3828,-2.4297,-2.4492,-2.4863,-2.5332,-2.5449,-2.5586,-2.5693,-2.5693,-2.5693,-2.5693,-1.5784,-1.5784,-1.5784,-1.5784,-1.5784,-1.5784,-1.5784,-1.5784,-1.5784,-1.5784,-1.5784,-1.5784,-1.5784,-1.5784,-1.5784,-1.5784,-1.5784,-1.5784,-1.5784,-1.5645,-1.5231,-1.4549,-1.4429,-1.4295,-1.4095,-1.4082,-1.4082,-1.4082,-1.4082,-1.4082,-1.4082,-1.4082,-1.4082,-1.4082,-1.4082,-1.4082,-1.4082,-1.4082,-1.4082,-1.4082,-1.4082,-1.4082,-1.4082,-1.4082,-1.4082,-1.4082,-1.4082,-1.4082,-1.4082,-1.4082,-1.4082,-1.4082,-1.4082,-1.4082,-1.4082,-1.4082,-1.4082,-1.4108,-1.4202,-1.4229,-1.4229,-1.4229,-1.4295,-1.4335,-1.4242,-1.4295,-1.4335,-1.4242,-1.4295,-1.4429,-1.4629,-1.4656,-1.4723,-1.4981,-1.5008,-1.5008,-1.5008,-1.5089,-1.54,-1.6135,-1.6543,-1.7051,-1.7765,-1.8164,-1.8349,-1.8349,-1.8718,-1.9085,-1.9497,-1.9131,-1.8948,-1.8948,-1.8534,-1.8948,-2.0161,-2.0522,-2.1365,-2.2574,-2.2731,-2.276,-2.276,-2.2843,-2.2676,-2.2261,-2.2584,-2.3018,-2.3621,-2.4193,-2.4803,-2.5312,-2.5557,-2.5693,-2.5693,-2.5693,-2.5693,-2.5693,-1.5784,-1.5784,-1.5784,-1.5784,-1.5784,-1.5784,-1.5784,-1.5784,-1.5784,-1.5784,-1.5784,-1.5784,-1.5784,-1.5784,-1.5784,-1.5784,-1.5784,-1.5784,-1.5784,-1.5771,-1.5431,-1.4563,-1.4242,-1.4095,-1.4095,-1.4082,-1.4082,-1.4095,-1.4082,-1.4082,-1.4082,-1.4082,-1.4082,-1.4082,-1.4082,-1.4082,-1.4082,-1.4082,-1.4082,-1.4082,-1.4082,-1.4082,-1.4082,-1.4082,-1.4082,-1.4082,-1.4082,-1.4082,-1.4082,-1.4082,-1.4082,-1.4082,-1.4095,-1.4095,-1.4082,-1.4095,-1.4095,-1.4162,-1.4442,-1.4522,-1.4522,-1.4479,-1.475,-1.4928,-1.4589,-1.475,-1.4928,-1.4589,-1.4763,-1.5008,-1.5008,-1.5008,-1.5008,-1.5022,-1.5022,-1.5022,-1.5022,-1.5217,-1.5404,-1.5404,-1.5658,-1.5784,-1.5784,-1.5784,-1.5784,-1.5784,-1.6998,-1.8226,-1.9405,-1.8319,-1.7684,-1.7684,-1.648,-1.6433,-1.7684,-1.8856,-1.9632,-1.9884,-2.0404,-2.0521,-2.0442,-2.0835,-2.0769,-2.0377,-2.0377,-2.1414,-2.2991,-2.2991,-2.404,-2.5693,-2.5693,-2.5693,-2.5693,-2.5693,-2.5693,-2.5693,-1.5784,-1.5784,-1.5784,-1.5784,-1.5784,-1.5784,-1.5784,-1.5784,-1.5784,-1.5784,-1.5784,-1.5784,-1.5784,-1.5784,-1.5784,-1.5784,-1.5784,-1.5738,-1.5538,-1.5337,-1.5017,-1.4536,-1.4643,-1.4603,-1.4389,-1.4188,-1.4188,-1.4389,-1.4188,-1.4082,-1.4082,-1.4082,-1.4082,-1.4082,-1.4082,-1.4082,-1.4082,-1.4082,-1.4082,-1.4082,-1.4082,-1.4082,-1.4082,-1.4082,-1.4082,-1.4082,-1.4082,-1.4082,-1.4082,-1.4082,-1.4082,-1.4122,-1.4322,-1.4255,-1.4162,-1.462,-1.4549,-1.4456,-1.475,-1.4977,-1.5084,-1.4883,-1.4941,-1.4981,-1.4856,-1.4941,-1.4981,-1.4843,-1.4941,-1.5075,-1.5231,-1.5271,-1.5337,-1.5538,-1.5565,-1.5565,-1.5565,-1.5645,-1.5698,-1.5698,-1.5731,-1.5784,-1.5784,-1.5784,-1.5784,-1.5784,-1.615,-1.6527,-1.6889,-1.656,-1.6386,-1.6386,-1.6021,-1.5961,-1.6339,-1.7638,-1.8846,-2.0025,-2.0404,-2.057,-2.0538,-2.0835,-2.0769,-2.0442,-2.0687,-2.1097,-2.1624,-2.1927,-2.2414,-2.2868,-2.2868,-2.2868,-2.2868,-2.2868,-2.3484,-2.4295,-1.5784,-1.5784,-1.5784,-1.5784,-1.5784,-1.5784,-1.5784,-1.5784,-1.5784,-1.5784,-1.5784,-1.5784,-1.5784,-1.5784,-1.5784,-1.5784,-1.5784,-1.5752,-1.5578,-1.5404,-1.5177,-1.4883,-1.5044,-1.4937,-1.4522,-1.4469,-1.4456,-1.4522,-1.4349,-1.4202,-1.4082,-1.4082,-1.4082,-1.4082,-1.4082,-1.4082,-1.4082,-1.4082,-1.4082,-1.4082,-1.4082,-1.4082,-1.4082,-1.4082,-1.4082,-1.4082,-1.4082,-1.4082,-1.4082,-1.4082,-1.4162,-1.4295,-1.4469,-1.4482,-1.4553,-1.4901,-1.4843,-1.4763,-1.5057,-1.5257,-1.5378,-1.5324,-1.5311,-1.5284,-1.5164,-1.5217,-1.5271,-1.5164,-1.5231,-1.5364,-1.5538,-1.5565,-1.5618,-1.5758,-1.5784,-1.5784,-1.5784,-1.5784,-1.5784,-1.5784,-1.5784,-1.5784,-1.5784,-1.5784,-1.5784,-1.5784,-1.5784,-1.5784,-1.5784,-1.5784,-1.5784,-1.5784,-1.5784,-1.5784,-1.5784,-1.6574,-1.7519,-1.8624,-1.8913,-1.9143,-1.9231,-1.9517,-1.9512,-1.9295,-1.9527,-1.9973,-2.0493,-2.075,-2.1202,-2.1693,-2.1693,-2.1693,-2.1693,-2.1693,-2.2215,-2.2918,-1.5784,-1.5784,-1.5784,-1.5784,-1.5784,-1.5784,-1.5784,-1.5784,-1.5784,-1.5784,-1.5784,-1.5784,-1.5784,-1.5784,-1.5784,-1.5784,-1.5784,-1.5784,-1.5784,-1.5758,-1.5671,-1.5404,-1.5391,-1.515,-1.4616,-1.4843,-1.483,-1.4563,-1.4492,-1.4376,-1.4082,-1.4082,-1.4082,-1.4082,-1.4082,-1.4082,-1.4082,-1.4082,-1.4082,-1.4082,-1.4082,-1.4082,-1.4082,-1.4082,-1.4082,-1.4082,-1.4082,-1.4108,-1.4135,-1.4162,-1.4335,-1.4563,-1.4589,-1.4763,-1.5022,-1.5075,-1.5062,-1.5115,-1.5351,-1.5431,-1.5498,-1.5718,-1.5784,-1.5765,-1.5498,-1.5631,-1.5752,-1.5484,-1.5645,-1.5784,-1.5784,-1.5784,-1.5784,-1.5784,-1.5784,-1.5784,-1.5784,-1.5784,-1.5784,-1.5784,-1.5784,-1.5784,-1.5784,-1.5784,-1.5784,-1.5784,-1.5784,-1.5784,-1.5784,-1.5811,-1.5824,-1.5824,-1.5824,-1.5885,-1.5864,-1.5885,-1.5992,-1.6233,-1.6553,-1.6847,-1.7166,-1.7435,-1.7582,-1.7582,-1.7582,-1.8304,-1.942,-1.942,-2.0179,-2.1338,-2.1338,-2.1338,-2.1338,-2.1338,-2.1389,-2.1541,-1.5784,-1.5784,-1.5784,-1.5784,-1.5784,-1.5784,-1.5784,-1.5784,-1.5784,-1.5784,-1.5784,-1.5784,-1.5784,-1.5784,-1.5784,-1.5784,-1.5784,-1.5784,-1.5784,-1.5618,-1.5458,-1.5404,-1.5391,-1.5337,-1.5204,-1.5089,-1.4981,-1.4914,-1.4629,-1.4376,-1.4082,-1.4082,-1.4082,-1.4082,-1.4082,-1.4082,-1.4082,-1.4082,-1.4082,-1.4082,-1.4082,-1.4082,-1.4082,-1.4082,-1.4082,-1.4082,-1.4082,-1.4229,-1.4469,-1.474,-1.4861,-1.4955,-1.5137,-1.5097,-1.5102,-1.5511,-1.5484,-1.5364,-1.5658,-1.5691,-1.5752,-1.5771,-1.5784,-1.5758,-1.5752,-1.5778,-1.5758,-1.5752,-1.5744,-1.5784,-1.5784,-1.5784,-1.5784,-1.5784,-1.5784,-1.5784,-1.5784,-1.5784,-1.5784,-1.5784,-1.5784,-1.5784,-1.5784,-1.5784,-1.5784,-1.5784,-1.5784,-1.5784,-1.5784,-1.6046,-1.6179,-1.6179,-1.6179,-1.6286,-1.6513,-1.6286,-1.6086,-1.5925,-1.646,-1.674,-1.682,-1.7341,-1.7582,-1.7582,-1.7582,-1.774,-1.8042,-1.8042,-1.8199,-1.8499,-1.8499,-1.8499,-1.8499,-1.8499,-1.9161,-2.0231,-1.5784,-1.5784,-1.5784,-1.5784,-1.5784,-1.5784,-1.5784,-1.5784,-1.5784,-1.5784,-1.5784,-1.5784,-1.5784,-1.5784,-1.5784,-1.5784,-1.5784,-1.5784,-1.5784,-1.5685,-1.5605,-1.5605,-1.5605,-1.5605,-1.5605,-1.5458,-1.5311,-1.5164,-1.5017,-1.4723,-1.4295,-1.4295,-1.4215,-1.4082,-1.4082,-1.4082,-1.4082,-1.4082,-1.4082,-1.4082,-1.4082,-1.4082,-1.4082,-1.4082,-1.4175,-1.4295,-1.4295,-1.4482,-1.4763,-1.4955,-1.5102,-1.5204,-1.5351,-1.5391,-1.5431,-1.5738,-1.5725,-1.5631,-1.5744,-1.5784,-1.5784,-1.5784,-1.5784,-1.5784,-1.5784,-1.5784,-1.5784,-1.5784,-1.5784,-1.5784,-1.5784,-1.5784,-1.5784,-1.5784,-1.5784,-1.5784,-1.5784,-1.5784,-1.5784,-1.5784,-1.5784,-1.5784,-1.5784,-1.5784,-1.5784,-1.5784,-1.5784,-1.5885,-1.6032,-1.6192,-1.6339,-1.6473,-1.6473,-1.6553,-1.67,-1.6553,-1.6406,-1.6259,-1.67,-1.6847,-1.6727,-1.7315,-1.7582,-1.7582,-1.7582,-1.7582,-1.7582,-1.7582,-1.7582,-1.7582,-1.7582,-1.7582,-1.7569,-1.7474,-1.7836,-1.856,-1.5784,-1.5784,-1.5784,-1.5784,-1.5784,-1.5784,-1.5784,-1.5784,-1.5784,-1.5784,-1.5784,-1.5784,-1.5784,-1.5784,-1.5784,-1.5784,-1.5784,-1.5784,-1.5784,-1.5784,-1.5784,-1.5784,-1.5784,-1.5784,-1.5784,-1.5784,-1.5685,-1.5391,-1.5391,-1.5124,-1.4603,-1.4603,-1.4442,-1.4162,-1.4162,-1.4162,-1.4162,-1.4162,-1.4188,-1.4242,-1.4242,-1.4242,-1.4229,-1.4175,-1.4335,-1.4589,-1.4536,-1.475,-1.5089,-1.5142,-1.5271,-1.5471,-1.5471,-1.5631,-1.5784,-1.5784,-1.5784,-1.5784,-1.5784,-1.5784,-1.5784,-1.5784,-1.5784,-1.5784,-1.5784,-1.5784,-1.5784,-1.5784,-1.5784,-1.5784,-1.5784,-1.5784,-1.5784,-1.5784,-1.5784,-1.5784,-1.5784,-1.5784,-1.5784,-1.5784,-1.5784,-1.5784,-1.5784,-1.5784,-1.5784,-1.5784,-1.5784,-1.5939,-1.6179,-1.6299,-1.646,-1.67,-1.6754,-1.6807,-1.686,-1.6807,-1.678,-1.678,-1.7139,-1.7112,-1.6794,-1.7341,-1.7582,-1.7582,-1.7582,-1.7582,-1.7582,-1.7582,-1.7582,-1.7582,-1.7582,-1.7582,-1.7555,-1.7367,-1.7246,-1.7246,-1.5784,-1.5784,-1.5784,-1.5784,-1.5784,-1.5784,-1.5784,-1.5784,-1.5784,-1.5784,-1.5784,-1.5784,-1.5784,-1.5784,-1.5784,-1.5784,-1.5784,-1.5784,-1.5784,-1.5784,-1.5784,-1.5784,-1.5784,-1.5784,-1.5784,-1.5784,-1.5685,-1.5391,-1.5391,-1.5231,-1.4955,-1.4955,-1.475,-1.4469,-1.4469,-1.4469,-1.4469,-1.4469,-1.4616,-1.4888,-1.4888,-1.4888,-1.4861,-1.4563,-1.4643,-1.487,-1.4616,-1.487,-1.5378,-1.5631,-1.5738,-1.5765,-1.5765,-1.5744,-1.5784,-1.5784,-1.5784,-1.5784,-1.5784,-1.5784,-1.5784,-1.5784,-1.5784,-1.5784,-1.5784,-1.5784,-1.5784,-1.5784,-1.5784,-1.5784,-1.5784,-1.5784,-1.5784,-1.5784,-1.5784,-1.5784,-1.5784,-1.5784,-1.5784,-1.5784,-1.5784,-1.5784,-1.5784,-1.5784,-1.5784,-1.5784,-1.5784,-1.5798,-1.5885,-1.6366,-1.666,-1.67,-1.7005,-1.7259,-1.7462,-1.7273,-1.7139,-1.7152,-1.7434,-1.742,-1.7152,-1.7487,-1.7582,-1.7582,-1.7582,-1.7582,-1.7582,-1.7582,-1.7582,-1.7582,-1.7582,-1.7582,-1.7582,-1.7542,-1.742,-1.7246,-1.5784,-1.5784,-1.5784,-1.5784,-1.5784,-1.5784,-1.5784,-1.5784,-1.5784,-1.5784,-1.5784,-1.5784,-1.5784,-1.5784,-1.5784,-1.5784,-1.5784,-1.5784,-1.5784,-1.5784,-1.5784,-1.5784,-1.5784,-1.5784,-1.5784,-1.5784,-1.5718,-1.5631,-1.5631,-1.5484,-1.5204,-1.5089,-1.4941,-1.4763,-1.4589,-1.4616,-1.4763,-1.4763,-1.4843,-1.5008,-1.5008,-1.5008,-1.4995,-1.4816,-1.495,-1.5204,-1.5244,-1.5418,-1.5658,-1.5744,-1.5784,-1.5784,-1.5784,-1.5784,-1.5784,-1.5784,-1.5784,-1.5784,-1.5784,-1.5784,-1.5784,-1.5784,-1.5784,-1.5784,-1.5784,-1.5784,-1.5784,-1.5784,-1.5784,-1.5784,-1.5784,-1.5784,-1.5784,-1.5784,-1.5784,-1.5784,-1.5784,-1.5784,-1.5885,-1.6059,-1.6072,-1.6072,-1.6072,-1.6072,-1.6005,-1.5798,-1.5784,-1.5965,-1.6299,-1.6567,-1.686,-1.7181,-1.7328,-1.7501,-1.7582,-1.7462,-1.7447,-1.7447,-1.7515,-1.7487,-1.7206,-1.7501,-1.7582,-1.7582,-1.7582,-1.7582,-1.7582,-1.7582,-1.7582,-1.7582,-1.7582,-1.7488,-1.7393,-1.7393,-1.7313,-1.7246]}]]